<?xml version='1.0' encoding='UTF-8' ?>
<gpx version="1.1" creator="S Health_0.2" n0:schemaLocation="http://www.topografix.com/GPX/1/1 http://www.topografix.com/GPX/1/1/gpx.xsd" xmlns="http://www.topografix.com/GPX/1/1" n1:xsi="http://www.w3.org/2001/XMLSchema-instance" n1:gpx1="http://www.topografix.com/GPX/1/0" n1:ogt10="http://gpstracker.android.sogeti.n1/GPX/1/0" xmlns:n0="xsi" xmlns:n1="xmlns">
  <metadate>2019-03-17T09:22:10Z</metadate>
  <trk>
    <name>20190317_100613.gpx</name>
    <trkseg>
      <trkpt lat="47.494198" lon="7.7854443">
        <ele>546.87933</ele>
        <time>2019-03-17T09:22:10Z</time>
      </trkpt>
      <trkpt lat="47.494164" lon="7.7854137">
        <ele>546.64417</ele>
        <time>2019-03-17T09:22:11Z</time>
      </trkpt>
      <trkpt lat="47.494053" lon="7.7853146">
        <ele>546.20294</ele>
        <time>2019-03-17T09:22:14Z</time>
      </trkpt>
      <trkpt lat="47.493965" lon="7.7854195">
        <ele>545.52386</ele>
        <time>2019-03-17T09:22:17Z</time>
      </trkpt>
      <trkpt lat="47.493893" lon="7.785586">
        <ele>545.9678</ele>
        <time>2019-03-17T09:22:20Z</time>
      </trkpt>
      <trkpt lat="47.49383" lon="7.785691">
        <ele>545.86475</ele>
        <time>2019-03-17T09:22:22Z</time>
      </trkpt>
      <trkpt lat="47.493782" lon="7.785806">
        <ele>546.195</ele>
        <time>2019-03-17T09:22:24Z</time>
      </trkpt>
      <trkpt lat="47.493675" lon="7.7859874">
        <ele>547.55316</ele>
        <time>2019-03-17T09:22:28Z</time>
      </trkpt>
      <trkpt lat="47.493675" lon="7.7859874">
        <ele>547.55316</ele>
        <time>2019-03-17T09:22:28Z</time>
      </trkpt>
      <trkpt lat="47.493614" lon="7.78612">
        <ele>548.758</ele>
        <time>2019-03-17T09:22:31Z</time>
      </trkpt>
      <trkpt lat="47.49359" lon="7.786169">
        <ele>548.71576</ele>
        <time>2019-03-17T09:22:32Z</time>
      </trkpt>
      <trkpt lat="47.493523" lon="7.786325">
        <ele>549.34985</ele>
        <time>2019-03-17T09:22:35Z</time>
      </trkpt>
      <trkpt lat="47.493496" lon="7.786371">
        <ele>549.61145</ele>
        <time>2019-03-17T09:22:36Z</time>
      </trkpt>
      <trkpt lat="47.493473" lon="7.786418">
        <ele>549.8625</ele>
        <time>2019-03-17T09:22:37Z</time>
      </trkpt>
      <trkpt lat="47.493454" lon="7.786469">
        <ele>550.2324</ele>
        <time>2019-03-17T09:22:38Z</time>
      </trkpt>
      <trkpt lat="47.493435" lon="7.7865186">
        <ele>550.0686</ele>
        <time>2019-03-17T09:22:39Z</time>
      </trkpt>
      <trkpt lat="47.493366" lon="7.786645">
        <ele>551.21533</ele>
        <time>2019-03-17T09:22:42Z</time>
      </trkpt>
      <trkpt lat="47.493343" lon="7.7866836">
        <ele>551.67773</ele>
        <time>2019-03-17T09:22:43Z</time>
      </trkpt>
      <trkpt lat="47.49332" lon="7.786721">
        <ele>551.96576</ele>
        <time>2019-03-17T09:22:44Z</time>
      </trkpt>
      <trkpt lat="47.4933" lon="7.7867413">
        <ele>552.5259</ele>
        <time>2019-03-17T09:22:45Z</time>
      </trkpt>
      <trkpt lat="47.493282" lon="7.7867565">
        <ele>552.2273</ele>
        <time>2019-03-17T09:22:46Z</time>
      </trkpt>
      <trkpt lat="47.493183" lon="7.786736">
        <ele>552.5074</ele>
        <time>2019-03-17T09:22:51Z</time>
      </trkpt>
      <trkpt lat="47.493168" lon="7.7867093">
        <ele>552.7135</ele>
        <time>2019-03-17T09:22:52Z</time>
      </trkpt>
      <trkpt lat="47.493145" lon="7.786687">
        <ele>552.3304</ele>
        <time>2019-03-17T09:22:53Z</time>
      </trkpt>
      <trkpt lat="47.49306" lon="7.7866006">
        <ele>552.9302</ele>
        <time>2019-03-17T09:22:57Z</time>
      </trkpt>
      <trkpt lat="47.493046" lon="7.7865725">
        <ele>553.36084</ele>
        <time>2019-03-17T09:22:58Z</time>
      </trkpt>
      <trkpt lat="47.492985" lon="7.7864537">
        <ele>553.4586</ele>
        <time>2019-03-17T09:23:02Z</time>
      </trkpt>
      <trkpt lat="47.492958" lon="7.7864313">
        <ele>553.56696</ele>
        <time>2019-03-17T09:23:03Z</time>
      </trkpt>
      <trkpt lat="47.492924" lon="7.7864094">
        <ele>553.67267</ele>
        <time>2019-03-17T09:23:04Z</time>
      </trkpt>
      <trkpt lat="47.492886" lon="7.7863793">
        <ele>553.5511</ele>
        <time>2019-03-17T09:23:05Z</time>
      </trkpt>
      <trkpt lat="47.492775" lon="7.786276">
        <ele>553.60925</ele>
        <time>2019-03-17T09:23:08Z</time>
      </trkpt>
      <trkpt lat="47.492737" lon="7.786239">
        <ele>553.8127</ele>
        <time>2019-03-17T09:23:09Z</time>
      </trkpt>
      <trkpt lat="47.492695" lon="7.7862005">
        <ele>554.00555</ele>
        <time>2019-03-17T09:23:10Z</time>
      </trkpt>
      <trkpt lat="47.492657" lon="7.786161">
        <ele>553.82855</ele>
        <time>2019-03-17T09:23:11Z</time>
      </trkpt>
      <trkpt lat="47.492558" lon="7.786051">
        <ele>554.2117</ele>
        <time>2019-03-17T09:23:14Z</time>
      </trkpt>
      <trkpt lat="47.492523" lon="7.7860155">
        <ele>554.30676</ele>
        <time>2019-03-17T09:23:15Z</time>
      </trkpt>
      <trkpt lat="47.49249" lon="7.7859836">
        <ele>554.40454</ele>
        <time>2019-03-17T09:23:16Z</time>
      </trkpt>
      <trkpt lat="47.49245" lon="7.7859554">
        <ele>554.8141</ele>
        <time>2019-03-17T09:23:17Z</time>
      </trkpt>
      <trkpt lat="47.492416" lon="7.7859282">
        <ele>554.9964</ele>
        <time>2019-03-17T09:23:18Z</time>
      </trkpt>
      <trkpt lat="47.49238" lon="7.785899">
        <ele>554.8458</ele>
        <time>2019-03-17T09:23:19Z</time>
      </trkpt>
      <trkpt lat="47.492268" lon="7.785822">
        <ele>555.34784</ele>
        <time>2019-03-17T09:23:22Z</time>
      </trkpt>
      <trkpt lat="47.492226" lon="7.7858024">
        <ele>555.82874</ele>
        <time>2019-03-17T09:23:23Z</time>
      </trkpt>
      <trkpt lat="47.492188" lon="7.785784">
        <ele>555.8578</ele>
        <time>2019-03-17T09:23:24Z</time>
      </trkpt>
      <trkpt lat="47.49215" lon="7.7857637">
        <ele>556.16693</ele>
        <time>2019-03-17T09:23:25Z</time>
      </trkpt>
      <trkpt lat="47.49211" lon="7.7857447">
        <ele>556.33075</ele>
        <time>2019-03-17T09:23:26Z</time>
      </trkpt>
      <trkpt lat="47.492073" lon="7.785725">
        <ele>556.21185</ele>
        <time>2019-03-17T09:23:27Z</time>
      </trkpt>
      <trkpt lat="47.491974" lon="7.785646">
        <ele>556.7271</ele>
        <time>2019-03-17T09:23:30Z</time>
      </trkpt>
      <trkpt lat="47.491943" lon="7.7856083">
        <ele>556.7403</ele>
        <time>2019-03-17T09:23:31Z</time>
      </trkpt>
      <trkpt lat="47.49186" lon="7.785485">
        <ele>556.5659</ele>
        <time>2019-03-17T09:23:34Z</time>
      </trkpt>
      <trkpt lat="47.491825" lon="7.7854366">
        <ele>556.33606</ele>
        <time>2019-03-17T09:23:35Z</time>
      </trkpt>
      <trkpt lat="47.49173" lon="7.785294">
        <ele>556.51306</ele>
        <time>2019-03-17T09:23:38Z</time>
      </trkpt>
      <trkpt lat="47.49164" lon="7.7851667">
        <ele>556.81696</ele>
        <time>2019-03-17T09:23:41Z</time>
      </trkpt>
      <trkpt lat="47.491547" lon="7.7850385">
        <ele>556.51306</ele>
        <time>2019-03-17T09:23:44Z</time>
      </trkpt>
      <trkpt lat="47.49145" lon="7.784903">
        <ele>556.23035</ele>
        <time>2019-03-17T09:23:47Z</time>
      </trkpt>
      <trkpt lat="47.49136" lon="7.784763">
        <ele>556.19867</ele>
        <time>2019-03-17T09:23:50Z</time>
      </trkpt>
      <trkpt lat="47.49129" lon="7.784676">
        <ele>556.41797</ele>
        <time>2019-03-17T09:23:52Z</time>
      </trkpt>
      <trkpt lat="47.49119" lon="7.7845464">
        <ele>556.53687</ele>
        <time>2019-03-17T09:23:55Z</time>
      </trkpt>
      <trkpt lat="47.49111" lon="7.784453">
        <ele>556.595</ele>
        <time>2019-03-17T09:23:57Z</time>
      </trkpt>
      <trkpt lat="47.491013" lon="7.784325">
        <ele>556.7403</ele>
        <time>2019-03-17T09:24:00Z</time>
      </trkpt>
      <trkpt lat="47.490917" lon="7.784202">
        <ele>556.4233</ele>
        <time>2019-03-17T09:24:03Z</time>
      </trkpt>
      <trkpt lat="47.490837" lon="7.7840886">
        <ele>556.55005</ele>
        <time>2019-03-17T09:24:06Z</time>
      </trkpt>
      <trkpt lat="47.490776" lon="7.7839665">
        <ele>556.5474</ele>
        <time>2019-03-17T09:24:09Z</time>
      </trkpt>
      <trkpt lat="47.49073" lon="7.783824">
        <ele>556.3889</ele>
        <time>2019-03-17T09:24:12Z</time>
      </trkpt>
      <trkpt lat="47.490685" lon="7.7836885">
        <ele>555.9609</ele>
        <time>2019-03-17T09:24:15Z</time>
      </trkpt>
      <trkpt lat="47.49061" lon="7.783576">
        <ele>554.43097</ele>
        <time>2019-03-17T09:24:18Z</time>
      </trkpt>
      <trkpt lat="47.49052" lon="7.7834506">
        <ele>554.74274</ele>
        <time>2019-03-17T09:24:20Z</time>
      </trkpt>
      <trkpt lat="47.49045" lon="7.7833457">
        <ele>554.5789</ele>
        <time>2019-03-17T09:24:22Z</time>
      </trkpt>
      <trkpt lat="47.49036" lon="7.7831974">
        <ele>555.0836</ele>
        <time>2019-03-17T09:24:25Z</time>
      </trkpt>
      <trkpt lat="47.490265" lon="7.783059">
        <ele>555.0942</ele>
        <time>2019-03-17T09:24:28Z</time>
      </trkpt>
      <trkpt lat="47.490196" lon="7.7829685">
        <ele>555.2421</ele>
        <time>2019-03-17T09:24:30Z</time>
      </trkpt>
      <trkpt lat="47.490124" lon="7.782875">
        <ele>555.2606</ele>
        <time>2019-03-17T09:24:32Z</time>
      </trkpt>
      <trkpt lat="47.490055" lon="7.7827854">
        <ele>555.5407</ele>
        <time>2019-03-17T09:24:34Z</time>
      </trkpt>
      <trkpt lat="47.489986" lon="7.7826824">
        <ele>555.64905</ele>
        <time>2019-03-17T09:24:36Z</time>
      </trkpt>
      <trkpt lat="47.489918" lon="7.7825937">
        <ele>555.7891</ele>
        <time>2019-03-17T09:24:38Z</time>
      </trkpt>
      <trkpt lat="47.489853" lon="7.7824984">
        <ele>555.71246</ele>
        <time>2019-03-17T09:24:40Z</time>
      </trkpt>
      <trkpt lat="47.48975" lon="7.7823668">
        <ele>555.982</ele>
        <time>2019-03-17T09:24:43Z</time>
      </trkpt>
      <trkpt lat="47.48968" lon="7.7822785">
        <ele>555.842</ele>
        <time>2019-03-17T09:24:45Z</time>
      </trkpt>
      <trkpt lat="47.489616" lon="7.782182">
        <ele>555.7574</ele>
        <time>2019-03-17T09:24:47Z</time>
      </trkpt>
      <trkpt lat="47.48954" lon="7.782095">
        <ele>555.7415</ele>
        <time>2019-03-17T09:24:49Z</time>
      </trkpt>
      <trkpt lat="47.489468" lon="7.7819896">
        <ele>555.5064</ele>
        <time>2019-03-17T09:24:51Z</time>
      </trkpt>
      <trkpt lat="47.489388" lon="7.781883">
        <ele>555.2844</ele>
        <time>2019-03-17T09:24:53Z</time>
      </trkpt>
      <trkpt lat="47.48931" lon="7.781774">
        <ele>555.04663</ele>
        <time>2019-03-17T09:24:55Z</time>
      </trkpt>
      <trkpt lat="47.489235" lon="7.7816706">
        <ele>554.8194</ele>
        <time>2019-03-17T09:24:57Z</time>
      </trkpt>
      <trkpt lat="47.48916" lon="7.7815685">
        <ele>554.7824</ele>
        <time>2019-03-17T09:24:59Z</time>
      </trkpt>
      <trkpt lat="47.48908" lon="7.781465">
        <ele>554.57104</ele>
        <time>2019-03-17T09:25:01Z</time>
      </trkpt>
      <trkpt lat="47.489002" lon="7.7813525">
        <ele>554.6767</ele>
        <time>2019-03-17T09:25:03Z</time>
      </trkpt>
      <trkpt lat="47.488922" lon="7.7812495">
        <ele>554.33057</ele>
        <time>2019-03-17T09:25:05Z</time>
      </trkpt>
      <trkpt lat="47.48885" lon="7.7811303">
        <ele>553.69904</ele>
        <time>2019-03-17T09:25:07Z</time>
      </trkpt>
      <trkpt lat="47.488773" lon="7.7810073">
        <ele>553.50616</ele>
        <time>2019-03-17T09:25:09Z</time>
      </trkpt>
      <trkpt lat="47.488686" lon="7.780857">
        <ele>552.7135</ele>
        <time>2019-03-17T09:25:11Z</time>
      </trkpt>
      <trkpt lat="47.488613" lon="7.7807">
        <ele>551.97894</ele>
        <time>2019-03-17T09:25:13Z</time>
      </trkpt>
      <trkpt lat="47.48854" lon="7.780516">
        <ele>550.9722</ele>
        <time>2019-03-17T09:25:15Z</time>
      </trkpt>
      <trkpt lat="47.4885" lon="7.780319">
        <ele>550.1267</ele>
        <time>2019-03-17T09:25:17Z</time>
      </trkpt>
      <trkpt lat="47.488445" lon="7.780088">
        <ele>549.05133</ele>
        <time>2019-03-17T09:25:19Z</time>
      </trkpt>
      <trkpt lat="47.48838" lon="7.779845">
        <ele>548.0842</ele>
        <time>2019-03-17T09:25:21Z</time>
      </trkpt>
      <trkpt lat="47.48831" lon="7.779604">
        <ele>546.95337</ele>
        <time>2019-03-17T09:25:23Z</time>
      </trkpt>
      <trkpt lat="47.488266" lon="7.779484">
        <ele>546.335</ele>
        <time>2019-03-17T09:25:24Z</time>
      </trkpt>
      <trkpt lat="47.488182" lon="7.7792296">
        <ele>545.072</ele>
        <time>2019-03-17T09:25:26Z</time>
      </trkpt>
      <trkpt lat="47.488136" lon="7.7791095">
        <ele>544.71533</ele>
        <time>2019-03-17T09:25:27Z</time>
      </trkpt>
      <trkpt lat="47.48804" lon="7.7789593">
        <ele>544.2635</ele>
        <time>2019-03-17T09:25:28Z</time>
      </trkpt>
      <trkpt lat="47.487957" lon="7.778736">
        <ele>543.6478</ele>
        <time>2019-03-17T09:25:30Z</time>
      </trkpt>
      <trkpt lat="47.487854" lon="7.7786136">
        <ele>543.49725</ele>
        <time>2019-03-17T09:25:31Z</time>
      </trkpt>
      <trkpt lat="47.487774" lon="7.7785053">
        <ele>543.4259</ele>
        <time>2019-03-17T09:25:32Z</time>
      </trkpt>
      <trkpt lat="47.487667" lon="7.7782936">
        <ele>543.01636</ele>
        <time>2019-03-17T09:25:34Z</time>
      </trkpt>
      <trkpt lat="47.48759" lon="7.7781177">
        <ele>542.7072</ele>
        <time>2019-03-17T09:25:36Z</time>
      </trkpt>
      <trkpt lat="47.487507" lon="7.7780147">
        <ele>542.45886</ele>
        <time>2019-03-17T09:25:37Z</time>
      </trkpt>
      <trkpt lat="47.487442" lon="7.777826">
        <ele>542.5619</ele>
        <time>2019-03-17T09:25:39Z</time>
      </trkpt>
      <trkpt lat="47.48734" lon="7.7776623">
        <ele>542.4879</ele>
        <time>2019-03-17T09:25:41Z</time>
      </trkpt>
      <trkpt lat="47.48726" lon="7.7775273">
        <ele>542.45886</ele>
        <time>2019-03-17T09:25:43Z</time>
      </trkpt>
      <trkpt lat="47.487194" lon="7.777397">
        <ele>542.443</ele>
        <time>2019-03-17T09:25:45Z</time>
      </trkpt>
      <trkpt lat="47.487106" lon="7.77731">
        <ele>542.4271</ele>
        <time>2019-03-17T09:25:46Z</time>
      </trkpt>
      <trkpt lat="47.487003" lon="7.7771754">
        <ele>542.2237</ele>
        <time>2019-03-17T09:25:48Z</time>
      </trkpt>
      <trkpt lat="47.486942" lon="7.777041">
        <ele>542.5619</ele>
        <time>2019-03-17T09:25:50Z</time>
      </trkpt>
      <trkpt lat="47.486855" lon="7.776911">
        <ele>542.5751</ele>
        <time>2019-03-17T09:25:52Z</time>
      </trkpt>
      <trkpt lat="47.486763" lon="7.7767816">
        <ele>542.2237</ele>
        <time>2019-03-17T09:25:54Z</time>
      </trkpt>
      <trkpt lat="47.486717" lon="7.776655">
        <ele>541.8062</ele>
        <time>2019-03-17T09:25:56Z</time>
      </trkpt>
      <trkpt lat="47.486637" lon="7.7764983">
        <ele>541.4363</ele>
        <time>2019-03-17T09:25:58Z</time>
      </trkpt>
      <trkpt lat="47.486584" lon="7.776321">
        <ele>540.94214</ele>
        <time>2019-03-17T09:26:00Z</time>
      </trkpt>
      <trkpt lat="47.4865" lon="7.776113">
        <ele>540.59076</ele>
        <time>2019-03-17T09:26:02Z</time>
      </trkpt>
      <trkpt lat="47.486416" lon="7.775907">
        <ele>540.0781</ele>
        <time>2019-03-17T09:26:04Z</time>
      </trkpt>
      <trkpt lat="47.486355" lon="7.775692">
        <ele>539.30133</ele>
        <time>2019-03-17T09:26:06Z</time>
      </trkpt>
      <trkpt lat="47.4863" lon="7.7754846">
        <ele>539.19824</ele>
        <time>2019-03-17T09:26:08Z</time>
      </trkpt>
      <trkpt lat="47.486244" lon="7.775263">
        <ele>538.47955</ele>
        <time>2019-03-17T09:26:10Z</time>
      </trkpt>
      <trkpt lat="47.48621" lon="7.77502">
        <ele>537.42267</ele>
        <time>2019-03-17T09:26:12Z</time>
      </trkpt>
      <trkpt lat="47.48629" lon="7.774829">
        <ele>537.25885</ele>
        <time>2019-03-17T09:26:14Z</time>
      </trkpt>
      <trkpt lat="47.48638" lon="7.774651">
        <ele>536.57446</ele>
        <time>2019-03-17T09:26:16Z</time>
      </trkpt>
      <trkpt lat="47.486485" lon="7.774489">
        <ele>536.0619</ele>
        <time>2019-03-17T09:26:18Z</time>
      </trkpt>
      <trkpt lat="47.486576" lon="7.774364">
        <ele>536.13324</ele>
        <time>2019-03-17T09:26:20Z</time>
      </trkpt>
      <trkpt lat="47.4867" lon="7.7742376">
        <ele>535.94037</ele>
        <time>2019-03-17T09:26:22Z</time>
      </trkpt>
      <trkpt lat="47.486774" lon="7.774122">
        <ele>535.9245</ele>
        <time>2019-03-17T09:26:24Z</time>
      </trkpt>
      <trkpt lat="47.486866" lon="7.773995">
        <ele>536.2178</ele>
        <time>2019-03-17T09:26:26Z</time>
      </trkpt>
      <trkpt lat="47.48696" lon="7.773866">
        <ele>536.49786</ele>
        <time>2019-03-17T09:26:28Z</time>
      </trkpt>
      <trkpt lat="47.48706" lon="7.7737517">
        <ele>536.4239</ele>
        <time>2019-03-17T09:26:30Z</time>
      </trkpt>
      <trkpt lat="47.487156" lon="7.773625">
        <ele>536.9074</ele>
        <time>2019-03-17T09:26:32Z</time>
      </trkpt>
      <trkpt lat="47.48727" lon="7.773503">
        <ele>537.13727</ele>
        <time>2019-03-17T09:26:34Z</time>
      </trkpt>
      <trkpt lat="47.487377" lon="7.7733855">
        <ele>537.15576</ele>
        <time>2019-03-17T09:26:36Z</time>
      </trkpt>
      <trkpt lat="47.487457" lon="7.7732673">
        <ele>537.85864</ele>
        <time>2019-03-17T09:26:38Z</time>
      </trkpt>
      <trkpt lat="47.48755" lon="7.7731524">
        <ele>537.85864</ele>
        <time>2019-03-17T09:26:40Z</time>
      </trkpt>
      <trkpt lat="47.487637" lon="7.773019">
        <ele>537.6288</ele>
        <time>2019-03-17T09:26:42Z</time>
      </trkpt>
      <trkpt lat="47.48772" lon="7.772881">
        <ele>538.506</ele>
        <time>2019-03-17T09:26:44Z</time>
      </trkpt>
      <trkpt lat="47.487797" lon="7.7727265">
        <ele>538.4637</ele>
        <time>2019-03-17T09:26:46Z</time>
      </trkpt>
      <trkpt lat="47.48787" lon="7.772577">
        <ele>538.9182</ele>
        <time>2019-03-17T09:26:48Z</time>
      </trkpt>
      <trkpt lat="47.487934" lon="7.772425">
        <ele>539.22736</ele>
        <time>2019-03-17T09:26:50Z</time>
      </trkpt>
      <trkpt lat="47.487988" lon="7.7722635">
        <ele>538.9684</ele>
        <time>2019-03-17T09:26:52Z</time>
      </trkpt>
      <trkpt lat="47.48804" lon="7.7721024">
        <ele>539.6924</ele>
        <time>2019-03-17T09:26:54Z</time>
      </trkpt>
      <trkpt lat="47.48809" lon="7.77194">
        <ele>539.88525</ele>
        <time>2019-03-17T09:26:56Z</time>
      </trkpt>
      <trkpt lat="47.488132" lon="7.771771">
        <ele>540.2208</ele>
        <time>2019-03-17T09:26:58Z</time>
      </trkpt>
      <trkpt lat="47.48816" lon="7.771605">
        <ele>540.3001</ele>
        <time>2019-03-17T09:27:00Z</time>
      </trkpt>
      <trkpt lat="47.488197" lon="7.7714257">
        <ele>540.54846</ele>
        <time>2019-03-17T09:27:02Z</time>
      </trkpt>
      <trkpt lat="47.488224" lon="7.7712398">
        <ele>540.32916</ele>
        <time>2019-03-17T09:27:04Z</time>
      </trkpt>
      <trkpt lat="47.488255" lon="7.7710567">
        <ele>540.5353</ele>
        <time>2019-03-17T09:27:06Z</time>
      </trkpt>
      <trkpt lat="47.48833" lon="7.7709002">
        <ele>540.1521</ele>
        <time>2019-03-17T09:27:08Z</time>
      </trkpt>
      <trkpt lat="47.488396" lon="7.770746">
        <ele>539.6739</ele>
        <time>2019-03-17T09:27:10Z</time>
      </trkpt>
      <trkpt lat="47.488434" lon="7.770586">
        <ele>539.12695</ele>
        <time>2019-03-17T09:27:12Z</time>
      </trkpt>
      <trkpt lat="47.488514" lon="7.7704268">
        <ele>538.00134</ele>
        <time>2019-03-17T09:27:14Z</time>
      </trkpt>
      <trkpt lat="47.488575" lon="7.7703214">
        <ele>537.671</ele>
        <time>2019-03-17T09:27:15Z</time>
      </trkpt>
      <trkpt lat="47.48867" lon="7.77012">
        <ele>536.00903</ele>
        <time>2019-03-17T09:27:17Z</time>
      </trkpt>
      <trkpt lat="47.48873" lon="7.770014">
        <ele>534.7355</ele>
        <time>2019-03-17T09:27:18Z</time>
      </trkpt>
      <trkpt lat="47.48879" lon="7.769906">
        <ele>534.6192</ele>
        <time>2019-03-17T09:27:19Z</time>
      </trkpt>
      <trkpt lat="47.488884" lon="7.769659">
        <ele>532.68243</ele>
        <time>2019-03-17T09:27:21Z</time>
      </trkpt>
      <trkpt lat="47.488926" lon="7.7695136">
        <ele>531.41943</ele>
        <time>2019-03-17T09:27:22Z</time>
      </trkpt>
      <trkpt lat="47.48897" lon="7.7693815">
        <ele>530.4999</ele>
        <time>2019-03-17T09:27:23Z</time>
      </trkpt>
      <trkpt lat="47.48903" lon="7.769262">
        <ele>529.73364</ele>
        <time>2019-03-17T09:27:24Z</time>
      </trkpt>
      <trkpt lat="47.48908" lon="7.76914">
        <ele>528.97003</ele>
        <time>2019-03-17T09:27:25Z</time>
      </trkpt>
      <trkpt lat="47.489147" lon="7.7688975">
        <ele>527.21027</ele>
        <time>2019-03-17T09:27:27Z</time>
      </trkpt>
      <trkpt lat="47.489204" lon="7.7686768">
        <ele>525.5694</ele>
        <time>2019-03-17T09:27:29Z</time>
      </trkpt>
      <trkpt lat="47.489265" lon="7.768518">
        <ele>524.21924</ele>
        <time>2019-03-17T09:27:31Z</time>
      </trkpt>
      <trkpt lat="47.48931" lon="7.7683573">
        <ele>523.61945</ele>
        <time>2019-03-17T09:27:34Z</time>
      </trkpt>
      <trkpt lat="47.48932" lon="7.768163">
        <ele>522.77655</ele>
        <time>2019-03-17T09:27:37Z</time>
      </trkpt>
      <trkpt lat="47.489273" lon="7.768017">
        <ele>522.441</ele>
        <time>2019-03-17T09:27:39Z</time>
      </trkpt>
      <trkpt lat="47.489235" lon="7.76786">
        <ele>521.8782</ele>
        <time>2019-03-17T09:27:41Z</time>
      </trkpt>
      <trkpt lat="47.489197" lon="7.767679">
        <ele>521.244</ele>
        <time>2019-03-17T09:27:43Z</time>
      </trkpt>
      <trkpt lat="47.48916" lon="7.767479">
        <ele>520.1316</ele>
        <time>2019-03-17T09:27:45Z</time>
      </trkpt>
      <trkpt lat="47.48912" lon="7.767258">
        <ele>519.20685</ele>
        <time>2019-03-17T09:27:47Z</time>
      </trkpt>
      <trkpt lat="47.48907" lon="7.76703">
        <ele>517.8751</ele>
        <time>2019-03-17T09:27:49Z</time>
      </trkpt>
      <trkpt lat="47.489017" lon="7.7667828">
        <ele>516.8499</ele>
        <time>2019-03-17T09:27:51Z</time>
      </trkpt>
      <trkpt lat="47.48899" lon="7.7666507">
        <ele>516.09424</ele>
        <time>2019-03-17T09:27:52Z</time>
      </trkpt>
      <trkpt lat="47.48896" lon="7.766511">
        <ele>515.53143</ele>
        <time>2019-03-17T09:27:53Z</time>
      </trkpt>
      <trkpt lat="47.48893" lon="7.766364">
        <ele>514.49036</ele>
        <time>2019-03-17T09:27:54Z</time>
      </trkpt>
      <trkpt lat="47.488895" lon="7.7662196">
        <ele>513.70294</ele>
        <time>2019-03-17T09:27:55Z</time>
      </trkpt>
      <trkpt lat="47.48886" lon="7.766067">
        <ele>512.8812</ele>
        <time>2019-03-17T09:27:56Z</time>
      </trkpt>
      <trkpt lat="47.488823" lon="7.7659097">
        <ele>512.3158</ele>
        <time>2019-03-17T09:27:57Z</time>
      </trkpt>
      <trkpt lat="47.48879" lon="7.765748">
        <ele>511.15317</ele>
        <time>2019-03-17T09:27:58Z</time>
      </trkpt>
      <trkpt lat="47.488766" lon="7.7655787">
        <ele>510.18875</ele>
        <time>2019-03-17T09:27:59Z</time>
      </trkpt>
      <trkpt lat="47.48872" lon="7.765405">
        <ele>509.2058</ele>
        <time>2019-03-17T09:28:00Z</time>
      </trkpt>
      <trkpt lat="47.48869" lon="7.765222">
        <ele>508.7302</ele>
        <time>2019-03-17T09:28:01Z</time>
      </trkpt>
      <trkpt lat="47.488667" lon="7.765032">
        <ele>507.4355</ele>
        <time>2019-03-17T09:28:02Z</time>
      </trkpt>
      <trkpt lat="47.488655" lon="7.764839">
        <ele>505.76556</ele>
        <time>2019-03-17T09:28:03Z</time>
      </trkpt>
      <trkpt lat="47.488644" lon="7.7646456">
        <ele>504.78</ele>
        <time>2019-03-17T09:28:04Z</time>
      </trkpt>
      <trkpt lat="47.488636" lon="7.7644506">
        <ele>502.6794</ele>
        <time>2019-03-17T09:28:05Z</time>
      </trkpt>
      <trkpt lat="47.488636" lon="7.764244">
        <ele>501.21558</ele>
        <time>2019-03-17T09:28:06Z</time>
      </trkpt>
      <trkpt lat="47.488632" lon="7.764027">
        <ele>500.3542</ele>
        <time>2019-03-17T09:28:07Z</time>
      </trkpt>
      <trkpt lat="47.488625" lon="7.763823">
        <ele>500.07675</ele>
        <time>2019-03-17T09:28:08Z</time>
      </trkpt>
      <trkpt lat="47.48862" lon="7.7636166">
        <ele>498.14526</ele>
        <time>2019-03-17T09:28:09Z</time>
      </trkpt>
      <trkpt lat="47.488617" lon="7.763409">
        <ele>496.1794</ele>
        <time>2019-03-17T09:28:10Z</time>
      </trkpt>
      <trkpt lat="47.4886" lon="7.7631955">
        <ele>495.06174</ele>
        <time>2019-03-17T09:28:11Z</time>
      </trkpt>
      <trkpt lat="47.488583" lon="7.7629747">
        <ele>493.26233</ele>
        <time>2019-03-17T09:28:12Z</time>
      </trkpt>
      <trkpt lat="47.488552" lon="7.76276">
        <ele>491.81174</ele>
        <time>2019-03-17T09:28:13Z</time>
      </trkpt>
      <trkpt lat="47.48851" lon="7.7625523">
        <ele>490.5302</ele>
        <time>2019-03-17T09:28:14Z</time>
      </trkpt>
      <trkpt lat="47.488457" lon="7.7623577">
        <ele>488.91843</ele>
        <time>2019-03-17T09:28:15Z</time>
      </trkpt>
      <trkpt lat="47.488388" lon="7.7621746">
        <ele>487.8113</ele>
        <time>2019-03-17T09:28:16Z</time>
      </trkpt>
      <trkpt lat="47.48831" lon="7.761998">
        <ele>487.25644</ele>
        <time>2019-03-17T09:28:17Z</time>
      </trkpt>
      <trkpt lat="47.48823" lon="7.761834">
        <ele>485.72394</ele>
        <time>2019-03-17T09:28:18Z</time>
      </trkpt>
      <trkpt lat="47.488144" lon="7.761672">
        <ele>484.97617</ele>
        <time>2019-03-17T09:28:19Z</time>
      </trkpt>
      <trkpt lat="47.48806" lon="7.7615137">
        <ele>483.53348</ele>
        <time>2019-03-17T09:28:20Z</time>
      </trkpt>
      <trkpt lat="47.487976" lon="7.7613587">
        <ele>481.5914</ele>
        <time>2019-03-17T09:28:21Z</time>
      </trkpt>
      <trkpt lat="47.48789" lon="7.7611995">
        <ele>480.5979</ele>
        <time>2019-03-17T09:28:22Z</time>
      </trkpt>
      <trkpt lat="47.487804" lon="7.7610397">
        <ele>479.63614</ele>
        <time>2019-03-17T09:28:23Z</time>
      </trkpt>
      <trkpt lat="47.48772" lon="7.7608795">
        <ele>479.05484</ele>
        <time>2019-03-17T09:28:24Z</time>
      </trkpt>
      <trkpt lat="47.487637" lon="7.7607203">
        <ele>477.78125</ele>
        <time>2019-03-17T09:28:25Z</time>
      </trkpt>
      <trkpt lat="47.487556" lon="7.7605624">
        <ele>477.44305</ele>
        <time>2019-03-17T09:28:26Z</time>
      </trkpt>
      <trkpt lat="47.487484" lon="7.76041">
        <ele>476.91986</ele>
        <time>2019-03-17T09:28:27Z</time>
      </trkpt>
      <trkpt lat="47.487408" lon="7.7602553">
        <ele>476.63715</ele>
        <time>2019-03-17T09:28:28Z</time>
      </trkpt>
      <trkpt lat="47.487335" lon="7.760114">
        <ele>475.51947</ele>
        <time>2019-03-17T09:28:29Z</time>
      </trkpt>
      <trkpt lat="47.487255" lon="7.7599587">
        <ele>474.6158</ele>
        <time>2019-03-17T09:28:30Z</time>
      </trkpt>
      <trkpt lat="47.48718" lon="7.7598042">
        <ele>474.18774</ele>
        <time>2019-03-17T09:28:31Z</time>
      </trkpt>
      <trkpt lat="47.4871" lon="7.759646">
        <ele>473.1282</ele>
        <time>2019-03-17T09:28:32Z</time>
      </trkpt>
      <trkpt lat="47.487007" lon="7.759482">
        <ele>472.6288</ele>
        <time>2019-03-17T09:28:33Z</time>
      </trkpt>
      <trkpt lat="47.486916" lon="7.7593236">
        <ele>471.39224</ele>
        <time>2019-03-17T09:28:34Z</time>
      </trkpt>
      <trkpt lat="47.486828" lon="7.7591653">
        <ele>471.1597</ele>
        <time>2019-03-17T09:28:35Z</time>
      </trkpt>
      <trkpt lat="47.486736" lon="7.759012">
        <ele>469.9786</ele>
        <time>2019-03-17T09:28:36Z</time>
      </trkpt>
      <trkpt lat="47.48663" lon="7.7588654">
        <ele>468.63898</ele>
        <time>2019-03-17T09:28:37Z</time>
      </trkpt>
      <trkpt lat="47.486526" lon="7.7587385">
        <ele>468.06827</ele>
        <time>2019-03-17T09:28:38Z</time>
      </trkpt>
      <trkpt lat="47.486412" lon="7.758617">
        <ele>467.06155</ele>
        <time>2019-03-17T09:28:39Z</time>
      </trkpt>
      <trkpt lat="47.4863" lon="7.7585044">
        <ele>465.82233</ele>
        <time>2019-03-17T09:28:40Z</time>
      </trkpt>
      <trkpt lat="47.486183" lon="7.758398">
        <ele>465.27008</ele>
        <time>2019-03-17T09:28:41Z</time>
      </trkpt>
      <trkpt lat="47.48606" lon="7.7582974">
        <ele>463.72437</ele>
        <time>2019-03-17T09:28:42Z</time>
      </trkpt>
      <trkpt lat="47.48593" lon="7.75822">
        <ele>463.0083</ele>
        <time>2019-03-17T09:28:43Z</time>
      </trkpt>
      <trkpt lat="47.485794" lon="7.7581573">
        <ele>461.31195</ele>
        <time>2019-03-17T09:28:44Z</time>
      </trkpt>
      <trkpt lat="47.48566" lon="7.758114">
        <ele>460.3581</ele>
        <time>2019-03-17T09:28:45Z</time>
      </trkpt>
      <trkpt lat="47.48553" lon="7.758093">
        <ele>459.7715</ele>
        <time>2019-03-17T09:28:46Z</time>
      </trkpt>
      <trkpt lat="47.4854" lon="7.758078">
        <ele>459.0158</ele>
        <time>2019-03-17T09:28:47Z</time>
      </trkpt>
      <trkpt lat="47.48527" lon="7.758062">
        <ele>458.276</ele>
        <time>2019-03-17T09:28:48Z</time>
      </trkpt>
      <trkpt lat="47.48514" lon="7.758021">
        <ele>458.11215</ele>
        <time>2019-03-17T09:28:49Z</time>
      </trkpt>
      <trkpt lat="47.485016" lon="7.757968">
        <ele>457.03677</ele>
        <time>2019-03-17T09:28:50Z</time>
      </trkpt>
      <trkpt lat="47.484894" lon="7.7579083">
        <ele>456.1199</ele>
        <time>2019-03-17T09:28:51Z</time>
      </trkpt>
      <trkpt lat="47.484776" lon="7.7578306">
        <ele>455.2321</ele>
        <time>2019-03-17T09:28:52Z</time>
      </trkpt>
      <trkpt lat="47.48467" lon="7.75774">
        <ele>455.43817</ele>
        <time>2019-03-17T09:28:53Z</time>
      </trkpt>
      <trkpt lat="47.48456" lon="7.7576327">
        <ele>454.64813</ele>
        <time>2019-03-17T09:28:54Z</time>
      </trkpt>
      <trkpt lat="47.48446" lon="7.7575216">
        <ele>453.84753</ele>
        <time>2019-03-17T09:28:55Z</time>
      </trkpt>
      <trkpt lat="47.484364" lon="7.7573943">
        <ele>453.41156</ele>
        <time>2019-03-17T09:28:56Z</time>
      </trkpt>
      <trkpt lat="47.48428" lon="7.757265">
        <ele>453.3085</ele>
        <time>2019-03-17T09:28:57Z</time>
      </trkpt>
      <trkpt lat="47.4842" lon="7.757133">
        <ele>453.13147</ele>
        <time>2019-03-17T09:28:59Z</time>
      </trkpt>
      <trkpt lat="47.484127" lon="7.757005">
        <ele>452.47885</ele>
        <time>2019-03-17T09:28:59Z</time>
      </trkpt>
      <trkpt lat="47.48405" lon="7.756886">
        <ele>452.0323</ele>
        <time>2019-03-17T09:29:00Z</time>
      </trkpt>
      <trkpt lat="47.48399" lon="7.756756">
        <ele>451.5329</ele>
        <time>2019-03-17T09:29:01Z</time>
      </trkpt>
      <trkpt lat="47.483936" lon="7.756619">
        <ele>452.11948</ele>
        <time>2019-03-17T09:29:02Z</time>
      </trkpt>
      <trkpt lat="47.483894" lon="7.756476">
        <ele>450.93576</ele>
        <time>2019-03-17T09:29:03Z</time>
      </trkpt>
      <trkpt lat="47.483856" lon="7.756324">
        <ele>451.1577</ele>
        <time>2019-03-17T09:29:04Z</time>
      </trkpt>
      <trkpt lat="47.48383" lon="7.75617">
        <ele>450.39673</ele>
        <time>2019-03-17T09:29:06Z</time>
      </trkpt>
      <trkpt lat="47.483818" lon="7.7560177">
        <ele>450.4998</ele>
        <time>2019-03-17T09:29:06Z</time>
      </trkpt>
      <trkpt lat="47.48381" lon="7.755864">
        <ele>449.67273</ele>
        <time>2019-03-17T09:29:08Z</time>
      </trkpt>
      <trkpt lat="47.483803" lon="7.755708">
        <ele>448.6079</ele>
        <time>2019-03-17T09:29:09Z</time>
      </trkpt>
      <trkpt lat="47.483807" lon="7.755545">
        <ele>447.49023</ele>
        <time>2019-03-17T09:29:10Z</time>
      </trkpt>
      <trkpt lat="47.483807" lon="7.755377">
        <ele>446.29593</ele>
        <time>2019-03-17T09:29:11Z</time>
      </trkpt>
      <trkpt lat="47.483818" lon="7.755211">
        <ele>445.97092</ele>
        <time>2019-03-17T09:29:12Z</time>
      </trkpt>
      <trkpt lat="47.483833" lon="7.755035">
        <ele>444.24286</ele>
        <time>2019-03-17T09:29:13Z</time>
      </trkpt>
      <trkpt lat="47.483856" lon="7.754862">
        <ele>442.8821</ele>
        <time>2019-03-17T09:29:14Z</time>
      </trkpt>
      <trkpt lat="47.48388" lon="7.7546887">
        <ele>441.627</ele>
        <time>2019-03-17T09:29:15Z</time>
      </trkpt>
      <trkpt lat="47.483913" lon="7.754513">
        <ele>440.85547</ele>
        <time>2019-03-17T09:29:16Z</time>
      </trkpt>
      <trkpt lat="47.483948" lon="7.754331">
        <ele>439.2701</ele>
        <time>2019-03-17T09:29:17Z</time>
      </trkpt>
      <trkpt lat="47.48398" lon="7.7541485">
        <ele>437.77194</ele>
        <time>2019-03-17T09:29:18Z</time>
      </trkpt>
      <trkpt lat="47.484013" lon="7.753968">
        <ele>436.1998</ele>
        <time>2019-03-17T09:29:19Z</time>
      </trkpt>
      <trkpt lat="47.484035" lon="7.753783">
        <ele>435.25912</ele>
        <time>2019-03-17T09:29:20Z</time>
      </trkpt>
      <trkpt lat="47.48407" lon="7.7536077">
        <ele>433.58392</ele>
        <time>2019-03-17T09:29:21Z</time>
      </trkpt>
      <trkpt lat="47.48411" lon="7.753417">
        <ele>432.39493</ele>
        <time>2019-03-17T09:29:22Z</time>
      </trkpt>
      <trkpt lat="47.484146" lon="7.7532372">
        <ele>431.03943</ele>
        <time>2019-03-17T09:29:23Z</time>
      </trkpt>
      <trkpt lat="47.48418" lon="7.7530723">
        <ele>429.92438</ele>
        <time>2019-03-17T09:29:24Z</time>
      </trkpt>
      <trkpt lat="47.48421" lon="7.7529035">
        <ele>429.01544</ele>
        <time>2019-03-17T09:29:25Z</time>
      </trkpt>
      <trkpt lat="47.48424" lon="7.7527266">
        <ele>427.55954</ele>
        <time>2019-03-17T09:29:26Z</time>
      </trkpt>
      <trkpt lat="47.48428" lon="7.7525396">
        <ele>426.23578</ele>
        <time>2019-03-17T09:29:27Z</time>
      </trkpt>
      <trkpt lat="47.484318" lon="7.752351">
        <ele>424.78253</ele>
        <time>2019-03-17T09:29:28Z</time>
      </trkpt>
      <trkpt lat="47.484352" lon="7.7521744">
        <ele>423.24738</ele>
        <time>2019-03-17T09:29:29Z</time>
      </trkpt>
      <trkpt lat="47.484383" lon="7.7520027">
        <ele>422.22217</ele>
        <time>2019-03-17T09:29:30Z</time>
      </trkpt>
      <trkpt lat="47.484413" lon="7.751831">
        <ele>420.93802</ele>
        <time>2019-03-17T09:29:31Z</time>
      </trkpt>
      <trkpt lat="47.484447" lon="7.7516594">
        <ele>419.06992</ele>
        <time>2019-03-17T09:29:32Z</time>
      </trkpt>
      <trkpt lat="47.48448" lon="7.7514825">
        <ele>417.61667</ele>
        <time>2019-03-17T09:29:33Z</time>
      </trkpt>
      <trkpt lat="47.484512" lon="7.751319">
        <ele>415.8305</ele>
        <time>2019-03-17T09:29:34Z</time>
      </trkpt>
      <trkpt lat="47.48454" lon="7.7511635">
        <ele>414.4248</ele>
        <time>2019-03-17T09:29:35Z</time>
      </trkpt>
      <trkpt lat="47.484573" lon="7.750998">
        <ele>413.27808</ele>
        <time>2019-03-17T09:29:36Z</time>
      </trkpt>
      <trkpt lat="47.484604" lon="7.7508287">
        <ele>412.24493</ele>
        <time>2019-03-17T09:29:37Z</time>
      </trkpt>
      <trkpt lat="47.484634" lon="7.7506757">
        <ele>411.32013</ele>
        <time>2019-03-17T09:29:38Z</time>
      </trkpt>
      <trkpt lat="47.48466" lon="7.75053">
        <ele>410.69656</ele>
        <time>2019-03-17T09:29:39Z</time>
      </trkpt>
      <trkpt lat="47.484688" lon="7.7503815">
        <ele>409.30673</ele>
        <time>2019-03-17T09:29:40Z</time>
      </trkpt>
      <trkpt lat="47.484715" lon="7.7502475">
        <ele>408.05164</ele>
        <time>2019-03-17T09:29:41Z</time>
      </trkpt>
      <trkpt lat="47.484734" lon="7.750107">
        <ele>406.4927</ele>
        <time>2019-03-17T09:29:42Z</time>
      </trkpt>
      <trkpt lat="47.484753" lon="7.7498426">
        <ele>404.36566</ele>
        <time>2019-03-17T09:29:44Z</time>
      </trkpt>
      <trkpt lat="47.484707" lon="7.749722">
        <ele>403.59677</ele>
        <time>2019-03-17T09:29:45Z</time>
      </trkpt>
      <trkpt lat="47.484646" lon="7.749611">
        <ele>402.6112</ele>
        <time>2019-03-17T09:29:46Z</time>
      </trkpt>
      <trkpt lat="47.48457" lon="7.7495294">
        <ele>401.80002</ele>
        <time>2019-03-17T09:29:47Z</time>
      </trkpt>
      <trkpt lat="47.484486" lon="7.749477">
        <ele>401.1844</ele>
        <time>2019-03-17T09:29:48Z</time>
      </trkpt>
      <trkpt lat="47.484394" lon="7.7494693">
        <ele>399.43784</ele>
        <time>2019-03-17T09:29:49Z</time>
      </trkpt>
      <trkpt lat="47.484303" lon="7.749503">
        <ele>398.76935</ele>
        <time>2019-03-17T09:29:50Z</time>
      </trkpt>
      <trkpt lat="47.48422" lon="7.7495685">
        <ele>398.43906</ele>
        <time>2019-03-17T09:29:51Z</time>
      </trkpt>
      <trkpt lat="47.48415" lon="7.749666">
        <ele>397.54333</ele>
        <time>2019-03-17T09:29:52Z</time>
      </trkpt>
      <trkpt lat="47.484077" lon="7.749786">
        <ele>396.5789</ele>
        <time>2019-03-17T09:29:53Z</time>
      </trkpt>
      <trkpt lat="47.48401" lon="7.7499127">
        <ele>395.86282</ele>
        <time>2019-03-17T09:29:54Z</time>
      </trkpt>
      <trkpt lat="47.48395" lon="7.750047">
        <ele>395.10187</ele>
        <time>2019-03-17T09:29:55Z</time>
      </trkpt>
      <trkpt lat="47.48389" lon="7.750174">
        <ele>394.19556</ele>
        <time>2019-03-17T09:29:56Z</time>
      </trkpt>
      <trkpt lat="47.483826" lon="7.750301">
        <ele>393.06995</ele>
        <time>2019-03-17T09:29:57Z</time>
      </trkpt>
      <trkpt lat="47.483757" lon="7.750398">
        <ele>391.72238</ele>
        <time>2019-03-17T09:29:58Z</time>
      </trkpt>
      <trkpt lat="47.48359" lon="7.7504625">
        <ele>390.37482</ele>
        <time>2019-03-17T09:30:00Z</time>
      </trkpt>
      <trkpt lat="47.4835" lon="7.7504945">
        <ele>389.30472</ele>
        <time>2019-03-17T09:30:01Z</time>
      </trkpt>
      <trkpt lat="47.483414" lon="7.750444">
        <ele>388.13947</ele>
        <time>2019-03-17T09:30:02Z</time>
      </trkpt>
      <trkpt lat="47.48333" lon="7.7503858">
        <ele>386.64395</ele>
        <time>2019-03-17T09:30:03Z</time>
      </trkpt>
      <trkpt lat="47.48326" lon="7.7502966">
        <ele>385.1352</ele>
        <time>2019-03-17T09:30:04Z</time>
      </trkpt>
      <trkpt lat="47.483208" lon="7.75017">
        <ele>384.17078</ele>
        <time>2019-03-17T09:30:05Z</time>
      </trkpt>
      <trkpt lat="47.48317" lon="7.7500315">
        <ele>382.93155</ele>
        <time>2019-03-17T09:30:06Z</time>
      </trkpt>
      <trkpt lat="47.483162" lon="7.749869">
        <ele>382.01468</ele>
        <time>2019-03-17T09:30:07Z</time>
      </trkpt>
      <trkpt lat="47.483185" lon="7.749702">
        <ele>381.23257</ele>
        <time>2019-03-17T09:30:08Z</time>
      </trkpt>
      <trkpt lat="47.48324" lon="7.749544">
        <ele>380.33948</ele>
        <time>2019-03-17T09:30:09Z</time>
      </trkpt>
      <trkpt lat="47.483307" lon="7.7493925">
        <ele>379.6604</ele>
        <time>2019-03-17T09:30:10Z</time>
      </trkpt>
      <trkpt lat="47.48337" lon="7.749235">
        <ele>378.66428</ele>
        <time>2019-03-17T09:30:11Z</time>
      </trkpt>
      <trkpt lat="47.48343" lon="7.7490945">
        <ele>378.11203</ele>
        <time>2019-03-17T09:30:12Z</time>
      </trkpt>
      <trkpt lat="47.483494" lon="7.74895">
        <ele>377.98785</ele>
        <time>2019-03-17T09:30:13Z</time>
      </trkpt>
      <trkpt lat="47.483547" lon="7.748805">
        <ele>377.4911</ele>
        <time>2019-03-17T09:30:14Z</time>
      </trkpt>
      <trkpt lat="47.4836" lon="7.7486677">
        <ele>376.3417</ele>
        <time>2019-03-17T09:30:15Z</time>
      </trkpt>
      <trkpt lat="47.48366" lon="7.7485337">
        <ele>376.3919</ele>
        <time>2019-03-17T09:30:16Z</time>
      </trkpt>
      <trkpt lat="47.483723" lon="7.748401">
        <ele>375.73398</ele>
        <time>2019-03-17T09:30:17Z</time>
      </trkpt>
      <trkpt lat="47.48378" lon="7.748272">
        <ele>375.2214</ele>
        <time>2019-03-17T09:30:18Z</time>
      </trkpt>
      <trkpt lat="47.48383" lon="7.748145">
        <ele>374.88846</ele>
        <time>2019-03-17T09:30:19Z</time>
      </trkpt>
      <trkpt lat="47.483887" lon="7.748024">
        <ele>374.53705</ele>
        <time>2019-03-17T09:30:20Z</time>
      </trkpt>
      <trkpt lat="47.483932" lon="7.7479">
        <ele>374.0218</ele>
        <time>2019-03-17T09:30:21Z</time>
      </trkpt>
      <trkpt lat="47.484024" lon="7.747676">
        <ele>373.32953</ele>
        <time>2019-03-17T09:30:23Z</time>
      </trkpt>
      <trkpt lat="47.484074" lon="7.747561">
        <ele>373.08115</ele>
        <time>2019-03-17T09:30:24Z</time>
      </trkpt>
      <trkpt lat="47.484165" lon="7.747352">
        <ele>372.61346</ele>
        <time>2019-03-17T09:30:26Z</time>
      </trkpt>
      <trkpt lat="47.48424" lon="7.7471457">
        <ele>371.6094</ele>
        <time>2019-03-17T09:30:28Z</time>
      </trkpt>
      <trkpt lat="47.48431" lon="7.7469344">
        <ele>370.8035</ele>
        <time>2019-03-17T09:30:30Z</time>
      </trkpt>
      <trkpt lat="47.48438" lon="7.746716">
        <ele>370.42566</ele>
        <time>2019-03-17T09:30:32Z</time>
      </trkpt>
      <trkpt lat="47.484425" lon="7.746494">
        <ele>369.53256</ele>
        <time>2019-03-17T09:30:34Z</time>
      </trkpt>
      <trkpt lat="47.484467" lon="7.746261">
        <ele>368.82443</ele>
        <time>2019-03-17T09:30:36Z</time>
      </trkpt>
      <trkpt lat="47.48451" lon="7.746018">
        <ele>367.36063</ele>
        <time>2019-03-17T09:30:38Z</time>
      </trkpt>
      <trkpt lat="47.484543" lon="7.745779">
        <ele>366.7899</ele>
        <time>2019-03-17T09:30:40Z</time>
      </trkpt>
      <trkpt lat="47.484585" lon="7.745542">
        <ele>366.64984</ele>
        <time>2019-03-17T09:30:42Z</time>
      </trkpt>
      <trkpt lat="47.484623" lon="7.745294">
        <ele>365.59558</ele>
        <time>2019-03-17T09:30:44Z</time>
      </trkpt>
      <trkpt lat="47.484653" lon="7.745168">
        <ele>365.37363</ele>
        <time>2019-03-17T09:30:45Z</time>
      </trkpt>
      <trkpt lat="47.484737" lon="7.7449436">
        <ele>364.46997</ele>
        <time>2019-03-17T09:30:47Z</time>
      </trkpt>
      <trkpt lat="47.484837" lon="7.7447524">
        <ele>363.81204</ele>
        <time>2019-03-17T09:30:49Z</time>
      </trkpt>
      <trkpt lat="47.484978" lon="7.7446146">
        <ele>362.73663</ele>
        <time>2019-03-17T09:30:51Z</time>
      </trkpt>
      <trkpt lat="47.485134" lon="7.744474">
        <ele>361.3336</ele>
        <time>2019-03-17T09:30:53Z</time>
      </trkpt>
      <trkpt lat="47.485218" lon="7.744404">
        <ele>360.5964</ele>
        <time>2019-03-17T09:30:54Z</time>
      </trkpt>
      <trkpt lat="47.485302" lon="7.7443275">
        <ele>359.30963</ele>
        <time>2019-03-17T09:30:55Z</time>
      </trkpt>
      <trkpt lat="47.485397" lon="7.744228">
        <ele>358.0149</ele>
        <time>2019-03-17T09:30:56Z</time>
      </trkpt>
      <trkpt lat="47.485485" lon="7.744117">
        <ele>356.96063</ele>
        <time>2019-03-17T09:30:57Z</time>
      </trkpt>
      <trkpt lat="47.485577" lon="7.7440023">
        <ele>355.82974</ele>
        <time>2019-03-17T09:30:58Z</time>
      </trkpt>
      <trkpt lat="47.48566" lon="7.7438693">
        <ele>354.47955</ele>
        <time>2019-03-17T09:30:59Z</time>
      </trkpt>
      <trkpt lat="47.48574" lon="7.743727">
        <ele>353.31958</ele>
        <time>2019-03-17T09:31:00Z</time>
      </trkpt>
      <trkpt lat="47.48581" lon="7.7435727">
        <ele>352.1015</ele>
        <time>2019-03-17T09:31:01Z</time>
      </trkpt>
      <trkpt lat="47.48587" lon="7.743407">
        <ele>350.50027</ele>
        <time>2019-03-17T09:31:02Z</time>
      </trkpt>
      <trkpt lat="47.48594" lon="7.743238">
        <ele>349.6521</ele>
        <time>2019-03-17T09:31:03Z</time>
      </trkpt>
      <trkpt lat="47.48601" lon="7.7430615">
        <ele>348.0958</ele>
        <time>2019-03-17T09:31:04Z</time>
      </trkpt>
      <trkpt lat="47.486065" lon="7.7428765">
        <ele>347.3454</ele>
        <time>2019-03-17T09:31:05Z</time>
      </trkpt>
      <trkpt lat="47.486137" lon="7.74268">
        <ele>346.56592</ele>
        <time>2019-03-17T09:31:06Z</time>
      </trkpt>
      <trkpt lat="47.486195" lon="7.742499">
        <ele>345.76266</ele>
        <time>2019-03-17T09:31:07Z</time>
      </trkpt>
      <trkpt lat="47.48625" lon="7.7423086">
        <ele>344.9383</ele>
        <time>2019-03-17T09:31:08Z</time>
      </trkpt>
      <trkpt lat="47.48631" lon="7.742135">
        <ele>344.58685</ele>
        <time>2019-03-17T09:31:09Z</time>
      </trkpt>
      <trkpt lat="47.486366" lon="7.741946">
        <ele>344.29092</ele>
        <time>2019-03-17T09:31:10Z</time>
      </trkpt>
      <trkpt lat="47.486416" lon="7.741774">
        <ele>343.70435</ele>
        <time>2019-03-17T09:31:11Z</time>
      </trkpt>
      <trkpt lat="47.486458" lon="7.7416005">
        <ele>343.31064</ele>
        <time>2019-03-17T09:31:12Z</time>
      </trkpt>
      <trkpt lat="47.486492" lon="7.7414274">
        <ele>343.25516</ele>
        <time>2019-03-17T09:31:13Z</time>
      </trkpt>
      <trkpt lat="47.48652" lon="7.7412615">
        <ele>342.8641</ele>
        <time>2019-03-17T09:31:14Z</time>
      </trkpt>
      <trkpt lat="47.486538" lon="7.741094">
        <ele>342.35944</ele>
        <time>2019-03-17T09:31:15Z</time>
      </trkpt>
      <trkpt lat="47.486557" lon="7.7407703">
        <ele>341.8574</ele>
        <time>2019-03-17T09:31:16Z</time>
      </trkpt>
      <trkpt lat="47.48657" lon="7.7406244">
        <ele>341.23383</ele>
        <time>2019-03-17T09:31:18Z</time>
      </trkpt>
      <trkpt lat="47.486576" lon="7.7404747">
        <ele>340.9775</ele>
        <time>2019-03-17T09:31:19Z</time>
      </trkpt>
      <trkpt lat="47.486588" lon="7.740327">
        <ele>340.94052</ele>
        <time>2019-03-17T09:31:20Z</time>
      </trkpt>
      <trkpt lat="47.48659" lon="7.740183">
        <ele>340.73178</ele>
        <time>2019-03-17T09:31:21Z</time>
      </trkpt>
      <trkpt lat="47.486603" lon="7.74004">
        <ele>340.8877</ele>
        <time>2019-03-17T09:31:22Z</time>
      </trkpt>
      <trkpt lat="47.48661" lon="7.739902">
        <ele>340.56003</ele>
        <time>2019-03-17T09:31:23Z</time>
      </trkpt>
      <trkpt lat="47.486614" lon="7.739766">
        <ele>340.50192</ele>
        <time>2019-03-17T09:31:24Z</time>
      </trkpt>
      <trkpt lat="47.48662" lon="7.7395096">
        <ele>340.14255</ele>
        <time>2019-03-17T09:31:26Z</time>
      </trkpt>
      <trkpt lat="47.486637" lon="7.7391424">
        <ele>340.2271</ele>
        <time>2019-03-17T09:31:28Z</time>
      </trkpt>
      <trkpt lat="47.48669" lon="7.738922">
        <ele>339.14377</ele>
        <time>2019-03-17T09:31:31Z</time>
      </trkpt>
      <trkpt lat="47.48674" lon="7.7387314">
        <ele>339.65375</ele>
        <time>2019-03-17T09:31:33Z</time>
      </trkpt>
      <trkpt lat="47.48677" lon="7.738566">
        <ele>340.33017</ele>
        <time>2019-03-17T09:31:35Z</time>
      </trkpt>
      <trkpt lat="47.48684" lon="7.7384133">
        <ele>339.7647</ele>
        <time>2019-03-17T09:31:38Z</time>
      </trkpt>
      <trkpt lat="47.48694" lon="7.7383857">
        <ele>339.00638</ele>
        <time>2019-03-17T09:31:40Z</time>
      </trkpt>
      <trkpt lat="47.487076" lon="7.738327">
        <ele>338.08157</ele>
        <time>2019-03-17T09:31:42Z</time>
      </trkpt>
      <trkpt lat="47.487255" lon="7.738243">
        <ele>338.2269</ele>
        <time>2019-03-17T09:31:44Z</time>
      </trkpt>
      <trkpt lat="47.487423" lon="7.7381005">
        <ele>338.41452</ele>
        <time>2019-03-17T09:31:47Z</time>
      </trkpt>
      <trkpt lat="47.487587" lon="7.737934">
        <ele>338.5572</ele>
        <time>2019-03-17T09:31:50Z</time>
      </trkpt>
      <trkpt lat="47.487705" lon="7.7378087">
        <ele>338.50436</ele>
        <time>2019-03-17T09:31:52Z</time>
      </trkpt>
      <trkpt lat="47.487797" lon="7.7376804">
        <ele>338.27182</ele>
        <time>2019-03-17T09:31:54Z</time>
      </trkpt>
      <trkpt lat="47.487904" lon="7.7375574">
        <ele>338.38544</ele>
        <time>2019-03-17T09:31:56Z</time>
      </trkpt>
      <trkpt lat="47.488007" lon="7.7374396">
        <ele>338.09744</ele>
        <time>2019-03-17T09:31:58Z</time>
      </trkpt>
      <trkpt lat="47.488083" lon="7.7373114">
        <ele>338.05518</ele>
        <time>2019-03-17T09:32:00Z</time>
      </trkpt>
      <trkpt lat="47.488167" lon="7.7371516">
        <ele>338.09744</ele>
        <time>2019-03-17T09:32:02Z</time>
      </trkpt>
      <trkpt lat="47.488235" lon="7.737003">
        <ele>338.1767</ele>
        <time>2019-03-17T09:32:04Z</time>
      </trkpt>
      <trkpt lat="47.48829" lon="7.7368445">
        <ele>337.88077</ele>
        <time>2019-03-17T09:32:06Z</time>
      </trkpt>
      <trkpt lat="47.48837" lon="7.7366786">
        <ele>337.96796</ele>
        <time>2019-03-17T09:32:08Z</time>
      </trkpt>
      <trkpt lat="47.488453" lon="7.7365084">
        <ele>337.81207</ele>
        <time>2019-03-17T09:32:10Z</time>
      </trkpt>
      <trkpt lat="47.48854" lon="7.736335">
        <ele>337.82263</ele>
        <time>2019-03-17T09:32:12Z</time>
      </trkpt>
      <trkpt lat="47.48861" lon="7.736164">
        <ele>337.7381</ele>
        <time>2019-03-17T09:32:14Z</time>
      </trkpt>
      <trkpt lat="47.488686" lon="7.7360134">
        <ele>337.69318</ele>
        <time>2019-03-17T09:32:16Z</time>
      </trkpt>
      <trkpt lat="47.488743" lon="7.735848">
        <ele>337.27835</ele>
        <time>2019-03-17T09:32:18Z</time>
      </trkpt>
      <trkpt lat="47.488808" lon="7.7356873">
        <ele>337.207</ele>
        <time>2019-03-17T09:32:20Z</time>
      </trkpt>
      <trkpt lat="47.48886" lon="7.7355223">
        <ele>337.20963</ele>
        <time>2019-03-17T09:32:22Z</time>
      </trkpt>
      <trkpt lat="47.488914" lon="7.735355">
        <ele>336.845</ele>
        <time>2019-03-17T09:32:24Z</time>
      </trkpt>
      <trkpt lat="47.488956" lon="7.7352233">
        <ele>337.0009</ele>
        <time>2019-03-17T09:32:26Z</time>
      </trkpt>
      <trkpt lat="47.48901" lon="7.7350626">
        <ele>336.6574</ele>
        <time>2019-03-17T09:32:29Z</time>
      </trkpt>
      <trkpt lat="47.488968" lon="7.734925">
        <ele>336.52792</ele>
        <time>2019-03-17T09:32:32Z</time>
      </trkpt>
      <trkpt lat="47.48887" lon="7.734827">
        <ele>336.3826</ele>
        <time>2019-03-17T09:32:34Z</time>
      </trkpt>
      <trkpt lat="47.488766" lon="7.734715">
        <ele>336.71555</ele>
        <time>2019-03-17T09:32:36Z</time>
      </trkpt>
      <trkpt lat="47.488655" lon="7.7346044">
        <ele>336.80008</ele>
        <time>2019-03-17T09:32:38Z</time>
      </trkpt>
      <trkpt lat="47.48857" lon="7.734518">
        <ele>337.77774</ele>
        <time>2019-03-17T09:32:40Z</time>
      </trkpt>
      <trkpt lat="47.48849" lon="7.734438">
        <ele>337.72488</ele>
        <time>2019-03-17T09:32:42Z</time>
      </trkpt>
      <trkpt lat="47.488407" lon="7.734363">
        <ele>338.19257</ele>
        <time>2019-03-17T09:32:44Z</time>
      </trkpt>
      <trkpt lat="47.488323" lon="7.734277">
        <ele>338.03668</ele>
        <time>2019-03-17T09:32:46Z</time>
      </trkpt>
      <trkpt lat="47.488224" lon="7.734187">
        <ele>336.9322</ele>
        <time>2019-03-17T09:32:48Z</time>
      </trkpt>
      <trkpt lat="47.488113" lon="7.734092">
        <ele>336.1263</ele>
        <time>2019-03-17T09:32:50Z</time>
      </trkpt>
      <trkpt lat="47.487976" lon="7.734006">
        <ele>335.8938</ele>
        <time>2019-03-17T09:32:52Z</time>
      </trkpt>
      <trkpt lat="47.48783" lon="7.733967">
        <ele>335.6639</ele>
        <time>2019-03-17T09:32:54Z</time>
      </trkpt>
      <trkpt lat="47.48769" lon="7.733969">
        <ele>335.33362</ele>
        <time>2019-03-17T09:32:56Z</time>
      </trkpt>
      <trkpt lat="47.48757" lon="7.733986">
        <ele>335.72205</ele>
        <time>2019-03-17T09:32:58Z</time>
      </trkpt>
      <trkpt lat="47.487446" lon="7.734009">
        <ele>335.6005</ele>
        <time>2019-03-17T09:33:00Z</time>
      </trkpt>
      <trkpt lat="47.487324" lon="7.7340293">
        <ele>335.87793</ele>
        <time>2019-03-17T09:33:02Z</time>
      </trkpt>
      <trkpt lat="47.4872" lon="7.734025">
        <ele>336.3958</ele>
        <time>2019-03-17T09:33:04Z</time>
      </trkpt>
      <trkpt lat="47.487103" lon="7.7339706">
        <ele>337.27835</ele>
        <time>2019-03-17T09:33:06Z</time>
      </trkpt>
      <trkpt lat="47.48702" lon="7.7338853">
        <ele>338.0261</ele>
        <time>2019-03-17T09:33:08Z</time>
      </trkpt>
      <trkpt lat="47.486935" lon="7.7337933">
        <ele>338.7897</ele>
        <time>2019-03-17T09:33:10Z</time>
      </trkpt>
      <trkpt lat="47.48686" lon="7.733692">
        <ele>339.19135</ele>
        <time>2019-03-17T09:33:12Z</time>
      </trkpt>
      <trkpt lat="47.486774" lon="7.7335873">
        <ele>339.42123</ele>
        <time>2019-03-17T09:33:14Z</time>
      </trkpt>
      <trkpt lat="47.4867" lon="7.7334795">
        <ele>339.71188</ele>
        <time>2019-03-17T09:33:16Z</time>
      </trkpt>
      <trkpt lat="47.48663" lon="7.7333746">
        <ele>340.31696</ele>
        <time>2019-03-17T09:33:18Z</time>
      </trkpt>
      <trkpt lat="47.486546" lon="7.7332726">
        <ele>340.71594</ele>
        <time>2019-03-17T09:33:20Z</time>
      </trkpt>
      <trkpt lat="47.486465" lon="7.733186">
        <ele>340.87183</ele>
        <time>2019-03-17T09:33:22Z</time>
      </trkpt>
      <trkpt lat="47.486393" lon="7.7330966">
        <ele>341.27875</ele>
        <time>2019-03-17T09:33:24Z</time>
      </trkpt>
      <trkpt lat="47.486305" lon="7.732964">
        <ele>342.44397</ele>
        <time>2019-03-17T09:33:27Z</time>
      </trkpt>
      <trkpt lat="47.486237" lon="7.7328696">
        <ele>342.90903</ele>
        <time>2019-03-17T09:33:29Z</time>
      </trkpt>
      <trkpt lat="47.486153" lon="7.7327523">
        <ele>343.49826</ele>
        <time>2019-03-17T09:33:32Z</time>
      </trkpt>
      <trkpt lat="47.48611" lon="7.7326303">
        <ele>344.25922</ele>
        <time>2019-03-17T09:33:40Z</time>
      </trkpt>
      <trkpt lat="47.486107" lon="7.732604">
        <ele>344.2328</ele>
        <time>2019-03-17T09:33:42Z</time>
      </trkpt>
    </trkseg>
    <trkseg>
      <trkpt lat="47.486107" lon="7.732604">
        <ele>344.2328</ele>
        <time>2019-03-17T09:33:42Z</time>
      </trkpt>
      <trkpt lat="47.486195" lon="7.7323365">
        <ele>345.19196</ele>
        <time>2019-03-17T09:33:52Z</time>
      </trkpt>
      <trkpt lat="47.486324" lon="7.732168">
        <ele>345.05453</ele>
        <time>2019-03-17T09:33:55Z</time>
      </trkpt>
      <trkpt lat="47.486412" lon="7.732033">
        <ele>345.5143</ele>
        <time>2019-03-17T09:33:57Z</time>
      </trkpt>
      <trkpt lat="47.486473" lon="7.7318935">
        <ele>344.89865</ele>
        <time>2019-03-17T09:33:59Z</time>
      </trkpt>
      <trkpt lat="47.486538" lon="7.7317567">
        <ele>344.9515</ele>
        <time>2019-03-17T09:34:01Z</time>
      </trkpt>
      <trkpt lat="47.486607" lon="7.731616">
        <ele>344.19052</ele>
        <time>2019-03-17T09:34:03Z</time>
      </trkpt>
      <trkpt lat="47.48669" lon="7.731475">
        <ele>344.43097</ele>
        <time>2019-03-17T09:34:05Z</time>
      </trkpt>
      <trkpt lat="47.48678" lon="7.7313366">
        <ele>344.12976</ele>
        <time>2019-03-17T09:34:07Z</time>
      </trkpt>
      <trkpt lat="47.48687" lon="7.7311893">
        <ele>344.46268</ele>
        <time>2019-03-17T09:34:09Z</time>
      </trkpt>
      <trkpt lat="47.48696" lon="7.731033">
        <ele>343.8576</ele>
        <time>2019-03-17T09:34:11Z</time>
      </trkpt>
      <trkpt lat="47.48703" lon="7.7308836">
        <ele>343.88666</ele>
        <time>2019-03-17T09:34:13Z</time>
      </trkpt>
      <trkpt lat="47.487106" lon="7.7307415">
        <ele>343.78625</ele>
        <time>2019-03-17T09:34:15Z</time>
      </trkpt>
      <trkpt lat="47.487167" lon="7.7306">
        <ele>343.0649</ele>
        <time>2019-03-17T09:34:17Z</time>
      </trkpt>
      <trkpt lat="47.48724" lon="7.730431">
        <ele>342.37527</ele>
        <time>2019-03-17T09:34:19Z</time>
      </trkpt>
      <trkpt lat="47.487293" lon="7.730318">
        <ele>341.96045</ele>
        <time>2019-03-17T09:34:21Z</time>
      </trkpt>
      <trkpt lat="47.487335" lon="7.730171">
        <ele>341.4373</ele>
        <time>2019-03-17T09:34:25Z</time>
      </trkpt>
      <trkpt lat="47.48735" lon="7.7301016">
        <ele>341.49277</ele>
        <time>2019-03-17T09:34:30Z</time>
      </trkpt>
    </trkseg>
    <trkseg>
      <trkpt lat="47.48735" lon="7.7301016">
        <ele>341.49277</ele>
        <time>2019-03-17T09:34:30Z</time>
      </trkpt>
      <trkpt lat="47.487183" lon="7.7303314">
        <ele>342.89316</ele>
        <time>2019-03-17T09:36:26Z</time>
      </trkpt>
      <trkpt lat="47.48712" lon="7.730457">
        <ele>343.1389</ele>
        <time>2019-03-17T09:36:29Z</time>
      </trkpt>
      <trkpt lat="47.487038" lon="7.7306066">
        <ele>343.87344</ele>
        <time>2019-03-17T09:36:32Z</time>
      </trkpt>
      <trkpt lat="47.48698" lon="7.730719">
        <ele>344.10333</ele>
        <time>2019-03-17T09:36:34Z</time>
      </trkpt>
      <trkpt lat="47.486916" lon="7.7308555">
        <ele>344.53403</ele>
        <time>2019-03-17T09:36:36Z</time>
      </trkpt>
      <trkpt lat="47.48685" lon="7.730972">
        <ele>344.60538</ele>
        <time>2019-03-17T09:36:38Z</time>
      </trkpt>
      <trkpt lat="47.48679" lon="7.731083">
        <ele>344.72427</ele>
        <time>2019-03-17T09:36:40Z</time>
      </trkpt>
      <trkpt lat="47.486717" lon="7.731189">
        <ele>344.8458</ele>
        <time>2019-03-17T09:36:42Z</time>
      </trkpt>
      <trkpt lat="47.48665" lon="7.731295">
        <ele>345.0889</ele>
        <time>2019-03-17T09:36:44Z</time>
      </trkpt>
      <trkpt lat="47.486576" lon="7.7314095">
        <ele>345.5883</ele>
        <time>2019-03-17T09:36:46Z</time>
      </trkpt>
      <trkpt lat="47.48651" lon="7.7315207">
        <ele>345.9318</ele>
        <time>2019-03-17T09:36:48Z</time>
      </trkpt>
      <trkpt lat="47.48645" lon="7.7316337">
        <ele>346.01898</ele>
        <time>2019-03-17T09:36:50Z</time>
      </trkpt>
      <trkpt lat="47.486378" lon="7.7317357">
        <ele>346.09033</ele>
        <time>2019-03-17T09:36:52Z</time>
      </trkpt>
      <trkpt lat="47.48633" lon="7.7318497">
        <ele>346.07712</ele>
        <time>2019-03-17T09:36:54Z</time>
      </trkpt>
      <trkpt lat="47.48625" lon="7.731945">
        <ele>345.94763</ele>
        <time>2019-03-17T09:36:56Z</time>
      </trkpt>
      <trkpt lat="47.48617" lon="7.7320404">
        <ele>346.0031</ele>
        <time>2019-03-17T09:36:58Z</time>
      </trkpt>
      <trkpt lat="47.486103" lon="7.732129">
        <ele>346.12732</ele>
        <time>2019-03-17T09:37:00Z</time>
      </trkpt>
      <trkpt lat="47.48603" lon="7.7322245">
        <ele>346.41797</ele>
        <time>2019-03-17T09:37:02Z</time>
      </trkpt>
      <trkpt lat="47.485962" lon="7.7323523">
        <ele>346.3836</ele>
        <time>2019-03-17T09:37:04Z</time>
      </trkpt>
      <trkpt lat="47.48587" lon="7.7324686">
        <ele>346.61084</ele>
        <time>2019-03-17T09:37:06Z</time>
      </trkpt>
      <trkpt lat="47.485756" lon="7.732543">
        <ele>346.2198</ele>
        <time>2019-03-17T09:37:08Z</time>
      </trkpt>
      <trkpt lat="47.485645" lon="7.732508">
        <ele>346.72446</ele>
        <time>2019-03-17T09:37:10Z</time>
      </trkpt>
      <trkpt lat="47.48555" lon="7.732374">
        <ele>347.92407</ele>
        <time>2019-03-17T09:37:13Z</time>
      </trkpt>
      <trkpt lat="47.485485" lon="7.7322593">
        <ele>348.8145</ele>
        <time>2019-03-17T09:37:15Z</time>
      </trkpt>
      <trkpt lat="47.485416" lon="7.732126">
        <ele>349.3641</ele>
        <time>2019-03-17T09:37:17Z</time>
      </trkpt>
      <trkpt lat="47.485367" lon="7.7320113">
        <ele>349.92426</ele>
        <time>2019-03-17T09:37:19Z</time>
      </trkpt>
      <trkpt lat="47.485336" lon="7.7318835">
        <ele>350.9336</ele>
        <time>2019-03-17T09:37:22Z</time>
      </trkpt>
      <trkpt lat="47.485332" lon="7.731745">
        <ele>351.2639</ele>
        <time>2019-03-17T09:37:24Z</time>
      </trkpt>
      <trkpt lat="47.48535" lon="7.7315593">
        <ele>352.02222</ele>
        <time>2019-03-17T09:37:27Z</time>
      </trkpt>
      <trkpt lat="47.485275" lon="7.731464">
        <ele>352.17813</ele>
        <time>2019-03-17T09:37:29Z</time>
      </trkpt>
      <trkpt lat="47.48516" lon="7.731312">
        <ele>351.071</ele>
        <time>2019-03-17T09:37:31Z</time>
      </trkpt>
      <trkpt lat="47.48508" lon="7.731197">
        <ele>350.34174</ele>
        <time>2019-03-17T09:37:33Z</time>
      </trkpt>
      <trkpt lat="47.485" lon="7.7310567">
        <ele>349.74988</ele>
        <time>2019-03-17T09:37:35Z</time>
      </trkpt>
      <trkpt lat="47.48459" lon="7.7304683">
        <ele>350.21228</ele>
        <time>2019-03-17T09:37:41Z</time>
      </trkpt>
      <trkpt lat="47.4846" lon="7.7303185">
        <ele>351.5387</ele>
        <time>2019-03-17T09:37:44Z</time>
      </trkpt>
      <trkpt lat="47.484646" lon="7.7301826">
        <ele>352.0011</ele>
        <time>2019-03-17T09:37:46Z</time>
      </trkpt>
      <trkpt lat="47.4847" lon="7.7300687">
        <ele>352.87833</ele>
        <time>2019-03-17T09:37:48Z</time>
      </trkpt>
      <trkpt lat="47.484753" lon="7.729889">
        <ele>354.12018</ele>
        <time>2019-03-17T09:37:51Z</time>
      </trkpt>
      <trkpt lat="47.484818" lon="7.7297225">
        <ele>354.84418</ele>
        <time>2019-03-17T09:37:54Z</time>
      </trkpt>
      <trkpt lat="47.48487" lon="7.729613">
        <ele>355.67386</ele>
        <time>2019-03-17T09:37:56Z</time>
      </trkpt>
      <trkpt lat="47.484917" lon="7.7294497">
        <ele>356.55637</ele>
        <time>2019-03-17T09:37:59Z</time>
      </trkpt>
      <trkpt lat="47.484936" lon="7.7292686">
        <ele>357.2645</ele>
        <time>2019-03-17T09:38:01Z</time>
      </trkpt>
      <trkpt lat="47.48492" lon="7.7291365">
        <ele>357.86957</ele>
        <time>2019-03-17T09:38:04Z</time>
      </trkpt>
      <trkpt lat="47.484894" lon="7.728961">
        <ele>358.94498</ele>
        <time>2019-03-17T09:38:07Z</time>
      </trkpt>
      <trkpt lat="47.484856" lon="7.7287974">
        <ele>359.71652</ele>
        <time>2019-03-17T09:38:10Z</time>
      </trkpt>
      <trkpt lat="47.484814" lon="7.7286425">
        <ele>360.2635</ele>
        <time>2019-03-17T09:38:13Z</time>
      </trkpt>
      <trkpt lat="47.48478" lon="7.7285">
        <ele>360.85535</ele>
        <time>2019-03-17T09:38:15Z</time>
      </trkpt>
      <trkpt lat="47.48474" lon="7.728324">
        <ele>362.3271</ele>
        <time>2019-03-17T09:38:19Z</time>
      </trkpt>
      <trkpt lat="47.48472" lon="7.7281938">
        <ele>363.44742</ele>
        <time>2019-03-17T09:38:23Z</time>
      </trkpt>
      <trkpt lat="47.4847" lon="7.728024">
        <ele>364.65228</ele>
        <time>2019-03-17T09:38:26Z</time>
      </trkpt>
      <trkpt lat="47.484676" lon="7.727853">
        <ele>365.5031</ele>
        <time>2019-03-17T09:38:31Z</time>
      </trkpt>
      <trkpt lat="47.484657" lon="7.7277184">
        <ele>366.3407</ele>
        <time>2019-03-17T09:38:34Z</time>
      </trkpt>
      <trkpt lat="47.484646" lon="7.7275796">
        <ele>367.1334</ele>
        <time>2019-03-17T09:38:37Z</time>
      </trkpt>
      <trkpt lat="47.48461" lon="7.727445">
        <ele>367.77017</ele>
        <time>2019-03-17T09:38:40Z</time>
      </trkpt>
      <trkpt lat="47.48458" lon="7.7273026">
        <ele>368.40433</ele>
        <time>2019-03-17T09:38:42Z</time>
      </trkpt>
      <trkpt lat="47.484543" lon="7.7271566">
        <ele>369.34232</ele>
        <time>2019-03-17T09:38:46Z</time>
      </trkpt>
      <trkpt lat="47.4845" lon="7.7269526">
        <ele>370.05045</ele>
        <time>2019-03-17T09:38:49Z</time>
      </trkpt>
      <trkpt lat="47.484463" lon="7.726802">
        <ele>370.68726</ele>
        <time>2019-03-17T09:38:53Z</time>
      </trkpt>
      <trkpt lat="47.484417" lon="7.7266035">
        <ele>372.11673</ele>
        <time>2019-03-17T09:38:56Z</time>
      </trkpt>
      <trkpt lat="47.484386" lon="7.7264557">
        <ele>372.7086</ele>
        <time>2019-03-17T09:39:00Z</time>
      </trkpt>
      <trkpt lat="47.48434" lon="7.7262683">
        <ele>373.56732</ele>
        <time>2019-03-17T09:39:03Z</time>
      </trkpt>
      <trkpt lat="47.484325" lon="7.7261357">
        <ele>374.1962</ele>
        <time>2019-03-17T09:39:07Z</time>
      </trkpt>
      <trkpt lat="47.4843" lon="7.7259803">
        <ele>375.78683</ele>
        <time>2019-03-17T09:39:10Z</time>
      </trkpt>
      <trkpt lat="47.48426" lon="7.725838">
        <ele>376.99963</ele>
        <time>2019-03-17T09:39:15Z</time>
      </trkpt>
      <trkpt lat="47.484203" lon="7.7256727">
        <ele>377.7289</ele>
        <time>2019-03-17T09:39:19Z</time>
      </trkpt>
      <trkpt lat="47.484146" lon="7.72555">
        <ele>379.46225</ele>
        <time>2019-03-17T09:39:24Z</time>
      </trkpt>
      <trkpt lat="47.484077" lon="7.725439">
        <ele>379.68683</ele>
        <time>2019-03-17T09:39:27Z</time>
      </trkpt>
      <trkpt lat="47.48402" lon="7.7252936">
        <ele>381.03174</ele>
        <time>2019-03-17T09:39:32Z</time>
      </trkpt>
      <trkpt lat="47.483925" lon="7.725108">
        <ele>381.3541</ele>
        <time>2019-03-17T09:39:35Z</time>
      </trkpt>
      <trkpt lat="47.483856" lon="7.7250123">
        <ele>381.76895</ele>
        <time>2019-03-17T09:39:37Z</time>
      </trkpt>
      <trkpt lat="47.483753" lon="7.7248635">
        <ele>382.21814</ele>
        <time>2019-03-17T09:39:40Z</time>
      </trkpt>
      <trkpt lat="47.483692" lon="7.7247615">
        <ele>382.55106</ele>
        <time>2019-03-17T09:39:42Z</time>
      </trkpt>
      <trkpt lat="47.483635" lon="7.7246585">
        <ele>383.0029</ele>
        <time>2019-03-17T09:39:44Z</time>
      </trkpt>
      <trkpt lat="47.48352" lon="7.724464">
        <ele>384.07828</ele>
        <time>2019-03-17T09:39:48Z</time>
      </trkpt>
      <trkpt lat="47.48343" lon="7.7243223">
        <ele>384.89212</ele>
        <time>2019-03-17T09:39:51Z</time>
      </trkpt>
      <trkpt lat="47.48331" lon="7.724145">
        <ele>385.91733</ele>
        <time>2019-03-17T09:39:55Z</time>
      </trkpt>
      <trkpt lat="47.483257" lon="7.7239995">
        <ele>387.06406</ele>
        <time>2019-03-17T09:39:58Z</time>
      </trkpt>
      <trkpt lat="47.48325" lon="7.7238464">
        <ele>387.87787</ele>
        <time>2019-03-17T09:40:02Z</time>
      </trkpt>
      <trkpt lat="47.483253" lon="7.723659">
        <ele>388.90045</ele>
        <time>2019-03-17T09:40:05Z</time>
      </trkpt>
      <trkpt lat="47.483253" lon="7.723494">
        <ele>389.7539</ele>
        <time>2019-03-17T09:40:10Z</time>
      </trkpt>
      <trkpt lat="47.48325" lon="7.723333">
        <ele>390.74475</ele>
        <time>2019-03-17T09:40:13Z</time>
      </trkpt>
      <trkpt lat="47.483234" lon="7.723127">
        <ele>391.89413</ele>
        <time>2019-03-17T09:40:18Z</time>
      </trkpt>
      <trkpt lat="47.48321" lon="7.7229247">
        <ele>393.48743</ele>
        <time>2019-03-17T09:40:23Z</time>
      </trkpt>
      <trkpt lat="47.483192" lon="7.7227645">
        <ele>394.85876</ele>
        <time>2019-03-17T09:40:28Z</time>
      </trkpt>
      <trkpt lat="47.48316" lon="7.722609">
        <ele>395.58804</ele>
        <time>2019-03-17T09:40:31Z</time>
      </trkpt>
      <trkpt lat="47.48311" lon="7.7224145">
        <ele>396.8299</ele>
        <time>2019-03-17T09:40:36Z</time>
      </trkpt>
      <trkpt lat="47.483063" lon="7.7222576">
        <ele>398.0744</ele>
        <time>2019-03-17T09:40:40Z</time>
      </trkpt>
      <trkpt lat="47.48301" lon="7.72211">
        <ele>399.1181</ele>
        <time>2019-03-17T09:40:44Z</time>
      </trkpt>
      <trkpt lat="47.48297" lon="7.721953">
        <ele>399.69678</ele>
        <time>2019-03-17T09:40:48Z</time>
      </trkpt>
      <trkpt lat="47.482944" lon="7.721758">
        <ele>401.02847</ele>
        <time>2019-03-17T09:40:53Z</time>
      </trkpt>
      <trkpt lat="47.48294" lon="7.7216043">
        <ele>402.13293</ele>
        <time>2019-03-17T09:40:57Z</time>
      </trkpt>
      <trkpt lat="47.482903" lon="7.721465">
        <ele>403.11853</ele>
        <time>2019-03-17T09:41:01Z</time>
      </trkpt>
      <trkpt lat="47.482883" lon="7.7213264">
        <ele>404.49515</ele>
        <time>2019-03-17T09:41:05Z</time>
      </trkpt>
      <trkpt lat="47.482876" lon="7.721187">
        <ele>405.5494</ele>
        <time>2019-03-17T09:41:09Z</time>
      </trkpt>
      <trkpt lat="47.48286" lon="7.721053">
        <ele>406.57462</ele>
        <time>2019-03-17T09:41:13Z</time>
      </trkpt>
      <trkpt lat="47.48282" lon="7.7208934">
        <ele>407.93274</ele>
        <time>2019-03-17T09:41:18Z</time>
      </trkpt>
      <trkpt lat="47.482838" lon="7.720758">
        <ele>409.32257</ele>
        <time>2019-03-17T09:41:22Z</time>
      </trkpt>
      <trkpt lat="47.48281" lon="7.7206035">
        <ele>411.16687</ele>
        <time>2019-03-17T09:41:27Z</time>
      </trkpt>
      <trkpt lat="47.48279" lon="7.7204432">
        <ele>412.78397</ele>
        <time>2019-03-17T09:41:32Z</time>
      </trkpt>
      <trkpt lat="47.482784" lon="7.7202954">
        <ele>414.20813</ele>
        <time>2019-03-17T09:41:37Z</time>
      </trkpt>
      <trkpt lat="47.48281" lon="7.720147">
        <ele>415.93353</ele>
        <time>2019-03-17T09:41:42Z</time>
      </trkpt>
      <trkpt lat="47.482815" lon="7.720013">
        <ele>417.57175</ele>
        <time>2019-03-17T09:41:47Z</time>
      </trkpt>
      <trkpt lat="47.48282" lon="7.719862">
        <ele>419.73312</ele>
        <time>2019-03-17T09:41:53Z</time>
      </trkpt>
      <trkpt lat="47.482826" lon="7.719716">
        <ele>421.03842</ele>
        <time>2019-03-17T09:41:58Z</time>
      </trkpt>
      <trkpt lat="47.48282" lon="7.7195745">
        <ele>423.00427</ele>
        <time>2019-03-17T09:42:03Z</time>
      </trkpt>
      <trkpt lat="47.482834" lon="7.7195263">
        <ele>423.65427</ele>
        <time>2019-03-17T09:42:10Z</time>
      </trkpt>
    </trkseg>
    <trkseg>
      <trkpt lat="47.482834" lon="7.7195263">
        <ele>423.65427</ele>
        <time>2019-03-17T09:42:10Z</time>
      </trkpt>
      <trkpt lat="47.482777" lon="7.7189307">
        <ele>430.75934</ele>
        <time>2019-03-17T09:43:30Z</time>
      </trkpt>
      <trkpt lat="47.482765" lon="7.7187963">
        <ele>432.17032</ele>
        <time>2019-03-17T09:43:37Z</time>
      </trkpt>
      <trkpt lat="47.48276" lon="7.7187986">
        <ele>432.12012</ele>
        <time>2019-03-17T09:43:41Z</time>
      </trkpt>
    </trkseg>
    <trkseg>
      <trkpt lat="47.48276" lon="7.7187986">
        <ele>432.12012</ele>
        <time>2019-03-17T09:43:41Z</time>
      </trkpt>
      <trkpt lat="47.48262" lon="7.7185926">
        <ele>434.75183</ele>
        <time>2019-03-17T09:45:22Z</time>
      </trkpt>
      <trkpt lat="47.482574" lon="7.718463">
        <ele>436.27377</ele>
        <time>2019-03-17T09:45:25Z</time>
      </trkpt>
      <trkpt lat="47.48253" lon="7.7183332">
        <ele>437.262</ele>
        <time>2019-03-17T09:45:28Z</time>
      </trkpt>
      <trkpt lat="47.482483" lon="7.7181726">
        <ele>439.4894</ele>
        <time>2019-03-17T09:45:32Z</time>
      </trkpt>
      <trkpt lat="47.48249" lon="7.718">
        <ele>440.62296</ele>
        <time>2019-03-17T09:45:36Z</time>
      </trkpt>
      <trkpt lat="47.4825" lon="7.7178664">
        <ele>442.44614</ele>
        <time>2019-03-17T09:45:39Z</time>
      </trkpt>
      <trkpt lat="47.48249" lon="7.7177315">
        <ele>443.1384</ele>
        <time>2019-03-17T09:45:42Z</time>
      </trkpt>
      <trkpt lat="47.482483" lon="7.7175913">
        <ele>444.20853</ele>
        <time>2019-03-17T09:45:45Z</time>
      </trkpt>
      <trkpt lat="47.48247" lon="7.717445">
        <ele>446.0766</ele>
        <time>2019-03-17T09:45:48Z</time>
      </trkpt>
      <trkpt lat="47.482456" lon="7.717297">
        <ele>446.84814</ele>
        <time>2019-03-17T09:45:51Z</time>
      </trkpt>
      <trkpt lat="47.482437" lon="7.717145">
        <ele>447.73596</ele>
        <time>2019-03-17T09:45:54Z</time>
      </trkpt>
      <trkpt lat="47.482407" lon="7.716981">
        <ele>449.32397</ele>
        <time>2019-03-17T09:45:57Z</time>
      </trkpt>
      <trkpt lat="47.48238" lon="7.716819">
        <ele>450.26724</ele>
        <time>2019-03-17T09:46:00Z</time>
      </trkpt>
      <trkpt lat="47.48235" lon="7.716659">
        <ele>450.86176</ele>
        <time>2019-03-17T09:46:03Z</time>
      </trkpt>
      <trkpt lat="47.48231" lon="7.7164974">
        <ele>452.0825</ele>
        <time>2019-03-17T09:46:06Z</time>
      </trkpt>
      <trkpt lat="47.48227" lon="7.716321">
        <ele>452.71136</ele>
        <time>2019-03-17T09:46:09Z</time>
      </trkpt>
      <trkpt lat="47.482235" lon="7.716143">
        <ele>453.93472</ele>
        <time>2019-03-17T09:46:12Z</time>
      </trkpt>
      <trkpt lat="47.4822" lon="7.7159624">
        <ele>454.46054</ele>
        <time>2019-03-17T09:46:15Z</time>
      </trkpt>
      <trkpt lat="47.482162" lon="7.7157803">
        <ele>455.30344</ele>
        <time>2019-03-17T09:46:18Z</time>
      </trkpt>
      <trkpt lat="47.482124" lon="7.715601">
        <ele>456.6087</ele>
        <time>2019-03-17T09:46:21Z</time>
      </trkpt>
      <trkpt lat="47.48208" lon="7.715434">
        <ele>457.4833</ele>
        <time>2019-03-17T09:46:24Z</time>
      </trkpt>
      <trkpt lat="47.482044" lon="7.7152696">
        <ele>458.08575</ele>
        <time>2019-03-17T09:46:27Z</time>
      </trkpt>
      <trkpt lat="47.48204" lon="7.7151003">
        <ele>458.75952</ele>
        <time>2019-03-17T09:46:30Z</time>
      </trkpt>
      <trkpt lat="47.482063" lon="7.714933">
        <ele>459.16113</ele>
        <time>2019-03-17T09:46:33Z</time>
      </trkpt>
      <trkpt lat="47.482132" lon="7.714783">
        <ele>459.76096</ele>
        <time>2019-03-17T09:46:36Z</time>
      </trkpt>
      <trkpt lat="47.48222" lon="7.714654">
        <ele>460.73593</ele>
        <time>2019-03-17T09:46:39Z</time>
      </trkpt>
      <trkpt lat="47.482307" lon="7.7145467">
        <ele>461.3965</ele>
        <time>2019-03-17T09:46:42Z</time>
      </trkpt>
      <trkpt lat="47.482376" lon="7.714445">
        <ele>463.06906</ele>
        <time>2019-03-17T09:46:45Z</time>
      </trkpt>
      <trkpt lat="47.482433" lon="7.714321">
        <ele>464.17883</ele>
        <time>2019-03-17T09:46:48Z</time>
      </trkpt>
      <trkpt lat="47.482468" lon="7.7141833">
        <ele>465.15912</ele>
        <time>2019-03-17T09:46:51Z</time>
      </trkpt>
      <trkpt lat="47.48249" lon="7.7140365">
        <ele>465.95444</ele>
        <time>2019-03-17T09:46:54Z</time>
      </trkpt>
      <trkpt lat="47.48248" lon="7.713876">
        <ele>466.74976</ele>
        <time>2019-03-17T09:46:57Z</time>
      </trkpt>
      <trkpt lat="47.48245" lon="7.7137184">
        <ele>467.41562</ele>
        <time>2019-03-17T09:47:00Z</time>
      </trkpt>
      <trkpt lat="47.482403" lon="7.7135634">
        <ele>468.49103</ele>
        <time>2019-03-17T09:47:03Z</time>
      </trkpt>
      <trkpt lat="47.48236" lon="7.7134075">
        <ele>469.3577</ele>
        <time>2019-03-17T09:47:06Z</time>
      </trkpt>
      <trkpt lat="47.482323" lon="7.713259">
        <ele>469.828</ele>
        <time>2019-03-17T09:47:09Z</time>
      </trkpt>
      <trkpt lat="47.48229" lon="7.713113">
        <ele>471.08572</ele>
        <time>2019-03-17T09:47:12Z</time>
      </trkpt>
      <trkpt lat="47.48226" lon="7.712955">
        <ele>471.9656</ele>
        <time>2019-03-17T09:47:15Z</time>
      </trkpt>
      <trkpt lat="47.48223" lon="7.7127953">
        <ele>472.01846</ele>
        <time>2019-03-17T09:47:18Z</time>
      </trkpt>
      <trkpt lat="47.482204" lon="7.712665">
        <ele>472.0634</ele>
        <time>2019-03-17T09:47:21Z</time>
      </trkpt>
      <trkpt lat="47.48218" lon="7.712632">
        <ele>472.26154</ele>
        <time>2019-03-17T09:47:27Z</time>
      </trkpt>
    </trkseg>
    <trkseg>
      <trkpt lat="47.48218" lon="7.712632">
        <ele>472.26154</ele>
        <time>2019-03-17T09:47:27Z</time>
      </trkpt>
      <trkpt lat="47.482063" lon="7.7122817">
        <ele>474.45462</ele>
        <time>2019-03-17T09:49:46Z</time>
      </trkpt>
      <trkpt lat="47.48201" lon="7.7121363">
        <ele>475.30807</ele>
        <time>2019-03-17T09:49:50Z</time>
      </trkpt>
      <trkpt lat="47.481987" lon="7.711969">
        <ele>475.8339</ele>
        <time>2019-03-17T09:49:52Z</time>
      </trkpt>
      <trkpt lat="47.48195" lon="7.7117987">
        <ele>476.45483</ele>
        <time>2019-03-17T09:49:56Z</time>
      </trkpt>
      <trkpt lat="47.48192" lon="7.711656">
        <ele>476.99387</ele>
        <time>2019-03-17T09:49:58Z</time>
      </trkpt>
      <trkpt lat="47.48188" lon="7.711495">
        <ele>477.54874</ele>
        <time>2019-03-17T09:50:01Z</time>
      </trkpt>
      <trkpt lat="47.48183" lon="7.711315">
        <ele>478.12738</ele>
        <time>2019-03-17T09:50:04Z</time>
      </trkpt>
      <trkpt lat="47.481766" lon="7.7111464">
        <ele>479.2847</ele>
        <time>2019-03-17T09:50:07Z</time>
      </trkpt>
      <trkpt lat="47.481716" lon="7.711024">
        <ele>479.4908</ele>
        <time>2019-03-17T09:50:09Z</time>
      </trkpt>
      <trkpt lat="47.481674" lon="7.710902">
        <ele>479.5278</ele>
        <time>2019-03-17T09:50:11Z</time>
      </trkpt>
      <trkpt lat="47.481647" lon="7.710761">
        <ele>479.93207</ele>
        <time>2019-03-17T09:50:13Z</time>
      </trkpt>
      <trkpt lat="47.481598" lon="7.710581">
        <ele>480.48428</ele>
        <time>2019-03-17T09:50:16Z</time>
      </trkpt>
      <trkpt lat="47.48154" lon="7.7104683">
        <ele>480.81723</ele>
        <time>2019-03-17T09:50:18Z</time>
      </trkpt>
      <trkpt lat="47.481476" lon="7.710334">
        <ele>481.22678</ele>
        <time>2019-03-17T09:50:21Z</time>
      </trkpt>
      <trkpt lat="47.48142" lon="7.7102118">
        <ele>481.52536</ele>
        <time>2019-03-17T09:50:24Z</time>
      </trkpt>
      <trkpt lat="47.481373" lon="7.7100945">
        <ele>481.44608</ele>
        <time>2019-03-17T09:50:27Z</time>
      </trkpt>
      <trkpt lat="47.481327" lon="7.709969">
        <ele>481.91376</ele>
        <time>2019-03-17T09:50:30Z</time>
      </trkpt>
      <trkpt lat="47.481285" lon="7.7098317">
        <ele>481.97983</ele>
        <time>2019-03-17T09:50:33Z</time>
      </trkpt>
      <trkpt lat="47.481236" lon="7.7096977">
        <ele>482.01416</ele>
        <time>2019-03-17T09:50:36Z</time>
      </trkpt>
      <trkpt lat="47.481186" lon="7.7095704">
        <ele>482.10138</ele>
        <time>2019-03-17T09:50:39Z</time>
      </trkpt>
      <trkpt lat="47.48115" lon="7.709433">
        <ele>482.57697</ele>
        <time>2019-03-17T09:50:42Z</time>
      </trkpt>
      <trkpt lat="47.481102" lon="7.709294">
        <ele>482.8042</ele>
        <time>2019-03-17T09:50:45Z</time>
      </trkpt>
      <trkpt lat="47.48105" lon="7.709143">
        <ele>483.2851</ele>
        <time>2019-03-17T09:50:48Z</time>
      </trkpt>
      <trkpt lat="47.481" lon="7.7089915">
        <ele>483.3459</ele>
        <time>2019-03-17T09:50:51Z</time>
      </trkpt>
      <trkpt lat="47.48095" lon="7.708855">
        <ele>484.01703</ele>
        <time>2019-03-17T09:50:54Z</time>
      </trkpt>
      <trkpt lat="47.480885" lon="7.7087517">
        <ele>484.29446</ele>
        <time>2019-03-17T09:50:58Z</time>
      </trkpt>
      <trkpt lat="47.480827" lon="7.7085986">
        <ele>485.01315</ele>
        <time>2019-03-17T09:51:02Z</time>
      </trkpt>
      <trkpt lat="47.480778" lon="7.7084537">
        <ele>485.40158</ele>
        <time>2019-03-17T09:51:05Z</time>
      </trkpt>
      <trkpt lat="47.48073" lon="7.708306">
        <ele>485.8851</ele>
        <time>2019-03-17T09:51:08Z</time>
      </trkpt>
      <trkpt lat="47.480682" lon="7.7081604">
        <ele>486.79935</ele>
        <time>2019-03-17T09:51:11Z</time>
      </trkpt>
      <trkpt lat="47.480633" lon="7.708017">
        <ele>487.7109</ele>
        <time>2019-03-17T09:51:14Z</time>
      </trkpt>
      <trkpt lat="47.48058" lon="7.7078733">
        <ele>488.42697</ele>
        <time>2019-03-17T09:51:17Z</time>
      </trkpt>
      <trkpt lat="47.480534" lon="7.707732">
        <ele>489.28836</ele>
        <time>2019-03-17T09:51:20Z</time>
      </trkpt>
      <trkpt lat="47.48049" lon="7.7075925">
        <ele>490.3109</ele>
        <time>2019-03-17T09:51:23Z</time>
      </trkpt>
      <trkpt lat="47.48045" lon="7.7074523">
        <ele>491.11417</ele>
        <time>2019-03-17T09:51:26Z</time>
      </trkpt>
      <trkpt lat="47.480404" lon="7.7073107">
        <ele>491.88306</ele>
        <time>2019-03-17T09:51:29Z</time>
      </trkpt>
      <trkpt lat="47.480362" lon="7.7071695">
        <ele>492.7365</ele>
        <time>2019-03-17T09:51:32Z</time>
      </trkpt>
      <trkpt lat="47.480316" lon="7.7070274">
        <ele>492.97168</ele>
        <time>2019-03-17T09:51:35Z</time>
      </trkpt>
      <trkpt lat="47.480293" lon="7.7068815">
        <ele>493.67188</ele>
        <time>2019-03-17T09:51:38Z</time>
      </trkpt>
      <trkpt lat="47.48026" lon="7.7067327">
        <ele>494.44608</ele>
        <time>2019-03-17T09:51:41Z</time>
      </trkpt>
      <trkpt lat="47.48022" lon="7.7065783">
        <ele>494.73938</ele>
        <time>2019-03-17T09:51:44Z</time>
      </trkpt>
      <trkpt lat="47.480206" lon="7.706432">
        <ele>494.88205</ele>
        <time>2019-03-17T09:51:47Z</time>
      </trkpt>
      <trkpt lat="47.480175" lon="7.70629">
        <ele>495.14893</ele>
        <time>2019-03-17T09:51:50Z</time>
      </trkpt>
      <trkpt lat="47.48013" lon="7.7061477">
        <ele>495.07492</ele>
        <time>2019-03-17T09:51:53Z</time>
      </trkpt>
      <trkpt lat="47.48009" lon="7.7060122">
        <ele>495.23346</ele>
        <time>2019-03-17T09:51:56Z</time>
      </trkpt>
      <trkpt lat="47.48009" lon="7.7058644">
        <ele>495.4105</ele>
        <time>2019-03-17T09:51:59Z</time>
      </trkpt>
      <trkpt lat="47.48008" lon="7.7057157">
        <ele>495.82007</ele>
        <time>2019-03-17T09:52:02Z</time>
      </trkpt>
      <trkpt lat="47.48005" lon="7.7055535">
        <ele>496.09222</ele>
        <time>2019-03-17T09:52:05Z</time>
      </trkpt>
      <trkpt lat="47.480015" lon="7.7053747">
        <ele>496.01028</ele>
        <time>2019-03-17T09:52:08Z</time>
      </trkpt>
      <trkpt lat="47.479984" lon="7.7051945">
        <ele>496.40665</ele>
        <time>2019-03-17T09:52:11Z</time>
      </trkpt>
      <trkpt lat="47.47996" lon="7.7050147">
        <ele>497.05664</ele>
        <time>2019-03-17T09:52:14Z</time>
      </trkpt>
      <trkpt lat="47.479946" lon="7.7048473">
        <ele>497.48734</ele>
        <time>2019-03-17T09:52:17Z</time>
      </trkpt>
      <trkpt lat="47.47991" lon="7.7046876">
        <ele>497.89688</ele>
        <time>2019-03-17T09:52:20Z</time>
      </trkpt>
      <trkpt lat="47.47987" lon="7.7045264">
        <ele>498.4095</ele>
        <time>2019-03-17T09:52:23Z</time>
      </trkpt>
      <trkpt lat="47.479877" lon="7.704358">
        <ele>498.87717</ele>
        <time>2019-03-17T09:52:26Z</time>
      </trkpt>
      <trkpt lat="47.479855" lon="7.704189">
        <ele>499.46112</ele>
        <time>2019-03-17T09:52:28Z</time>
      </trkpt>
      <trkpt lat="47.47985" lon="7.704011">
        <ele>499.6725</ele>
        <time>2019-03-17T09:52:32Z</time>
      </trkpt>
      <trkpt lat="47.479828" lon="7.70384">
        <ele>500.31192</ele>
        <time>2019-03-17T09:52:35Z</time>
      </trkpt>
      <trkpt lat="47.479797" lon="7.7036753">
        <ele>500.83508</ele>
        <time>2019-03-17T09:52:38Z</time>
      </trkpt>
      <trkpt lat="47.47979" lon="7.7035036">
        <ele>501.18124</ele>
        <time>2019-03-17T09:52:41Z</time>
      </trkpt>
      <trkpt lat="47.47976" lon="7.703324">
        <ele>501.51416</ele>
        <time>2019-03-17T09:52:43Z</time>
      </trkpt>
      <trkpt lat="47.479767" lon="7.703147">
        <ele>501.97656</ele>
        <time>2019-03-17T09:52:47Z</time>
      </trkpt>
      <trkpt lat="47.479763" lon="7.702982">
        <ele>502.0347</ele>
        <time>2019-03-17T09:52:49Z</time>
      </trkpt>
      <trkpt lat="47.479733" lon="7.7028117">
        <ele>502.32797</ele>
        <time>2019-03-17T09:52:53Z</time>
      </trkpt>
      <trkpt lat="47.4797" lon="7.7026443">
        <ele>502.65033</ele>
        <time>2019-03-17T09:52:56Z</time>
      </trkpt>
      <trkpt lat="47.47967" lon="7.702475">
        <ele>502.9542</ele>
        <time>2019-03-17T09:52:59Z</time>
      </trkpt>
      <trkpt lat="47.47967" lon="7.702311">
        <ele>503.17615</ele>
        <time>2019-03-17T09:53:02Z</time>
      </trkpt>
      <trkpt lat="47.479652" lon="7.702152">
        <ele>502.8855</ele>
        <time>2019-03-17T09:53:05Z</time>
      </trkpt>
      <trkpt lat="47.479607" lon="7.701998">
        <ele>502.48917</ele>
        <time>2019-03-17T09:53:07Z</time>
      </trkpt>
      <trkpt lat="47.47957" lon="7.7018433">
        <ele>502.31476</ele>
        <time>2019-03-17T09:53:11Z</time>
      </trkpt>
      <trkpt lat="47.479527" lon="7.701622">
        <ele>502.254</ele>
        <time>2019-03-17T09:53:14Z</time>
      </trkpt>
      <trkpt lat="47.479507" lon="7.7014556">
        <ele>502.6662</ele>
        <time>2019-03-17T09:53:18Z</time>
      </trkpt>
      <trkpt lat="47.479507" lon="7.7012815">
        <ele>502.39404</ele>
        <time>2019-03-17T09:53:21Z</time>
      </trkpt>
      <trkpt lat="47.479523" lon="7.7011485">
        <ele>502.92776</ele>
        <time>2019-03-17T09:53:23Z</time>
      </trkpt>
      <trkpt lat="47.479576" lon="7.7009726">
        <ele>502.72696</ele>
        <time>2019-03-17T09:53:26Z</time>
      </trkpt>
      <trkpt lat="47.479656" lon="7.7008233">
        <ele>502.88284</ele>
        <time>2019-03-17T09:53:28Z</time>
      </trkpt>
      <trkpt lat="47.479733" lon="7.7006636">
        <ele>502.8855</ele>
        <time>2019-03-17T09:53:32Z</time>
      </trkpt>
      <trkpt lat="47.479763" lon="7.700483">
        <ele>503.805</ele>
        <time>2019-03-17T09:53:34Z</time>
      </trkpt>
      <trkpt lat="47.479774" lon="7.700336">
        <ele>504.27005</ele>
        <time>2019-03-17T09:53:37Z</time>
      </trkpt>
      <trkpt lat="47.479786" lon="7.700164">
        <ele>504.3229</ele>
        <time>2019-03-17T09:53:42Z</time>
      </trkpt>
      <trkpt lat="47.479794" lon="7.6999917">
        <ele>504.1485</ele>
        <time>2019-03-17T09:53:46Z</time>
      </trkpt>
      <trkpt lat="47.47981" lon="7.699815">
        <ele>504.15643</ele>
        <time>2019-03-17T09:53:50Z</time>
      </trkpt>
      <trkpt lat="47.479824" lon="7.699665">
        <ele>504.53427</ele>
        <time>2019-03-17T09:53:53Z</time>
      </trkpt>
      <trkpt lat="47.479847" lon="7.699453">
        <ele>503.8499</ele>
        <time>2019-03-17T09:53:57Z</time>
      </trkpt>
      <trkpt lat="47.479866" lon="7.69931">
        <ele>503.70197</ele>
        <time>2019-03-17T09:54:00Z</time>
      </trkpt>
      <trkpt lat="47.479877" lon="7.69917">
        <ele>503.68875</ele>
        <time>2019-03-17T09:54:03Z</time>
      </trkpt>
      <trkpt lat="47.479893" lon="7.6989827">
        <ele>504.1115</ele>
        <time>2019-03-17T09:54:07Z</time>
      </trkpt>
      <trkpt lat="47.479908" lon="7.6988516">
        <ele>503.8499</ele>
        <time>2019-03-17T09:54:11Z</time>
      </trkpt>
      <trkpt lat="47.479923" lon="7.698671">
        <ele>503.57248</ele>
        <time>2019-03-17T09:54:14Z</time>
      </trkpt>
      <trkpt lat="47.479946" lon="7.6984525">
        <ele>503.74423</ele>
        <time>2019-03-17T09:54:18Z</time>
      </trkpt>
      <trkpt lat="47.479977" lon="7.6982245">
        <ele>503.11273</ele>
        <time>2019-03-17T09:54:22Z</time>
      </trkpt>
      <trkpt lat="47.479992" lon="7.698063">
        <ele>503.32413</ele>
        <time>2019-03-17T09:54:25Z</time>
      </trkpt>
      <trkpt lat="47.48001" lon="7.697904">
        <ele>503.60156</ele>
        <time>2019-03-17T09:54:28Z</time>
      </trkpt>
      <trkpt lat="47.480038" lon="7.6977463">
        <ele>503.56985</ele>
        <time>2019-03-17T09:54:31Z</time>
      </trkpt>
      <trkpt lat="47.48004" lon="7.697599">
        <ele>503.8499</ele>
        <time>2019-03-17T09:54:34Z</time>
      </trkpt>
      <trkpt lat="47.480038" lon="7.6974473">
        <ele>504.2304</ele>
        <time>2019-03-17T09:54:37Z</time>
      </trkpt>
      <trkpt lat="47.48003" lon="7.6972938">
        <ele>504.15643</ele>
        <time>2019-03-17T09:54:40Z</time>
      </trkpt>
      <trkpt lat="47.480022" lon="7.697155">
        <ele>503.9662</ele>
        <time>2019-03-17T09:54:43Z</time>
      </trkpt>
      <trkpt lat="47.48001" lon="7.6970215">
        <ele>503.98203</ele>
        <time>2019-03-17T09:54:47Z</time>
      </trkpt>
      <trkpt lat="47.480007" lon="7.696877">
        <ele>505.03366</ele>
        <time>2019-03-17T09:54:54Z</time>
      </trkpt>
      <trkpt lat="47.47999" lon="7.696746">
        <ele>505.10764</ele>
        <time>2019-03-17T09:54:59Z</time>
      </trkpt>
      <trkpt lat="47.47997" lon="7.6965876">
        <ele>505.76294</ele>
        <time>2019-03-17T09:55:04Z</time>
      </trkpt>
      <trkpt lat="47.479946" lon="7.69645">
        <ele>505.70746</ele>
        <time>2019-03-17T09:55:08Z</time>
      </trkpt>
      <trkpt lat="47.479923" lon="7.696279">
        <ele>506.5556</ele>
        <time>2019-03-17T09:55:12Z</time>
      </trkpt>
      <trkpt lat="47.479877" lon="7.6961236">
        <ele>506.8357</ele>
        <time>2019-03-17T09:55:16Z</time>
      </trkpt>
      <trkpt lat="47.479824" lon="7.695974">
        <ele>507.32715</ele>
        <time>2019-03-17T09:55:20Z</time>
      </trkpt>
      <trkpt lat="47.47977" lon="7.6958237">
        <ele>507.34302</ele>
        <time>2019-03-17T09:55:24Z</time>
      </trkpt>
      <trkpt lat="47.47972" lon="7.69567">
        <ele>508.0485</ele>
        <time>2019-03-17T09:55:28Z</time>
      </trkpt>
      <trkpt lat="47.47968" lon="7.6955276">
        <ele>508.50296</ele>
        <time>2019-03-17T09:55:32Z</time>
      </trkpt>
      <trkpt lat="47.479668" lon="7.6953692">
        <ele>508.8729</ele>
        <time>2019-03-17T09:55:36Z</time>
      </trkpt>
      <trkpt lat="47.479656" lon="7.695203">
        <ele>508.97858</ele>
        <time>2019-03-17T09:55:40Z</time>
      </trkpt>
      <trkpt lat="47.47965" lon="7.695039">
        <ele>509.4991</ele>
        <time>2019-03-17T09:55:44Z</time>
      </trkpt>
      <trkpt lat="47.47963" lon="7.6948743">
        <ele>509.64444</ele>
        <time>2019-03-17T09:55:48Z</time>
      </trkpt>
      <trkpt lat="47.47961" lon="7.694702">
        <ele>510.0302</ele>
        <time>2019-03-17T09:55:52Z</time>
      </trkpt>
      <trkpt lat="47.479603" lon="7.6945333">
        <ele>510.36578</ele>
        <time>2019-03-17T09:55:56Z</time>
      </trkpt>
      <trkpt lat="47.479576" lon="7.694375">
        <ele>510.9312</ele>
        <time>2019-03-17T09:56:00Z</time>
      </trkpt>
      <trkpt lat="47.47955" lon="7.6942396">
        <ele>511.15582</ele>
        <time>2019-03-17T09:56:03Z</time>
      </trkpt>
      <trkpt lat="47.479523" lon="7.69409">
        <ele>510.97614</ele>
        <time>2019-03-17T09:56:06Z</time>
      </trkpt>
      <trkpt lat="47.479496" lon="7.693931">
        <ele>511.82697</ele>
        <time>2019-03-17T09:56:09Z</time>
      </trkpt>
      <trkpt lat="47.479485" lon="7.6937675">
        <ele>511.98285</ele>
        <time>2019-03-17T09:56:12Z</time>
      </trkpt>
      <trkpt lat="47.47946" lon="7.6936116">
        <ele>512.04626</ele>
        <time>2019-03-17T09:56:15Z</time>
      </trkpt>
      <trkpt lat="47.479443" lon="7.6934648">
        <ele>512.617</ele>
        <time>2019-03-17T09:56:18Z</time>
      </trkpt>
      <trkpt lat="47.479424" lon="7.6933284">
        <ele>512.77026</ele>
        <time>2019-03-17T09:56:21Z</time>
      </trkpt>
      <trkpt lat="47.479397" lon="7.6931987">
        <ele>513.1586</ele>
        <time>2019-03-17T09:56:24Z</time>
      </trkpt>
      <trkpt lat="47.479366" lon="7.693071">
        <ele>513.36475</ele>
        <time>2019-03-17T09:56:27Z</time>
      </trkpt>
      <trkpt lat="47.47933" lon="7.6929345">
        <ele>513.33307</ele>
        <time>2019-03-17T09:56:30Z</time>
      </trkpt>
      <trkpt lat="47.479305" lon="7.6927743">
        <ele>513.58405</ele>
        <time>2019-03-17T09:56:33Z</time>
      </trkpt>
      <trkpt lat="47.479286" lon="7.692622">
        <ele>513.5973</ele>
        <time>2019-03-17T09:56:36Z</time>
      </trkpt>
      <trkpt lat="47.479267" lon="7.6924763">
        <ele>513.91437</ele>
        <time>2019-03-17T09:56:39Z</time>
      </trkpt>
      <trkpt lat="47.479256" lon="7.692328">
        <ele>514.0967</ele>
        <time>2019-03-17T09:56:42Z</time>
      </trkpt>
      <trkpt lat="47.479263" lon="7.69218">
        <ele>514.168</ele>
        <time>2019-03-17T09:56:45Z</time>
      </trkpt>
      <trkpt lat="47.47926" lon="7.692035">
        <ele>514.12573</ele>
        <time>2019-03-17T09:56:48Z</time>
      </trkpt>
      <trkpt lat="47.479225" lon="7.6918855">
        <ele>514.3609</ele>
        <time>2019-03-17T09:56:52Z</time>
      </trkpt>
      <trkpt lat="47.479206" lon="7.6917033">
        <ele>514.49036</ele>
        <time>2019-03-17T09:56:56Z</time>
      </trkpt>
      <trkpt lat="47.479187" lon="7.691533">
        <ele>515.0479</ele>
        <time>2019-03-17T09:56:59Z</time>
      </trkpt>
      <trkpt lat="47.479137" lon="7.691364">
        <ele>514.84705</ele>
        <time>2019-03-17T09:57:02Z</time>
      </trkpt>
      <trkpt lat="47.47908" lon="7.6911798">
        <ele>514.77045</ele>
        <time>2019-03-17T09:57:05Z</time>
      </trkpt>
      <trkpt lat="47.479057" lon="7.6910453">
        <ele>514.8418</ele>
        <time>2019-03-17T09:57:07Z</time>
      </trkpt>
      <trkpt lat="47.479034" lon="7.6909137">
        <ele>514.52997</ele>
        <time>2019-03-17T09:57:09Z</time>
      </trkpt>
      <trkpt lat="47.47904" lon="7.690776">
        <ele>514.5828</ele>
        <time>2019-03-17T09:57:11Z</time>
      </trkpt>
      <trkpt lat="47.479046" lon="7.690633">
        <ele>514.77576</ele>
        <time>2019-03-17T09:57:13Z</time>
      </trkpt>
      <trkpt lat="47.479053" lon="7.6904936">
        <ele>514.0729</ele>
        <time>2019-03-17T09:57:15Z</time>
      </trkpt>
      <trkpt lat="47.479084" lon="7.6903224">
        <ele>513.96454</ele>
        <time>2019-03-17T09:57:17Z</time>
      </trkpt>
      <trkpt lat="47.479046" lon="7.6901717">
        <ele>513.7743</ele>
        <time>2019-03-17T09:57:19Z</time>
      </trkpt>
      <trkpt lat="47.479046" lon="7.69001">
        <ele>513.40704</ele>
        <time>2019-03-17T09:57:21Z</time>
      </trkpt>
      <trkpt lat="47.47904" lon="7.689865">
        <ele>513.18774</ele>
        <time>2019-03-17T09:57:23Z</time>
      </trkpt>
      <trkpt lat="47.479057" lon="7.6896563">
        <ele>513.03973</ele>
        <time>2019-03-17T09:57:26Z</time>
      </trkpt>
      <trkpt lat="47.47899" lon="7.689487">
        <ele>512.82043</ele>
        <time>2019-03-17T09:57:28Z</time>
      </trkpt>
      <trkpt lat="47.478996" lon="7.6893086">
        <ele>512.543</ele>
        <time>2019-03-17T09:57:30Z</time>
      </trkpt>
      <trkpt lat="47.478985" lon="7.689154">
        <ele>512.9103</ele>
        <time>2019-03-17T09:57:32Z</time>
      </trkpt>
      <trkpt lat="47.47897" lon="7.688994">
        <ele>512.60114</ele>
        <time>2019-03-17T09:57:34Z</time>
      </trkpt>
      <trkpt lat="47.47893" lon="7.6888037">
        <ele>513.02655</ele>
        <time>2019-03-17T09:57:37Z</time>
      </trkpt>
      <trkpt lat="47.478855" lon="7.6886344">
        <ele>513.7928</ele>
        <time>2019-03-17T09:57:40Z</time>
      </trkpt>
      <trkpt lat="47.4788" lon="7.6885114">
        <ele>514.5987</ele>
        <time>2019-03-17T09:57:42Z</time>
      </trkpt>
      <trkpt lat="47.47874" lon="7.688407">
        <ele>515.0479</ele>
        <time>2019-03-17T09:57:44Z</time>
      </trkpt>
      <trkpt lat="47.47871" lon="7.6882796">
        <ele>515.3544</ele>
        <time>2019-03-17T09:57:46Z</time>
      </trkpt>
      <trkpt lat="47.47867" lon="7.6881576">
        <ele>515.8828</ele>
        <time>2019-03-17T09:57:48Z</time>
      </trkpt>
      <trkpt lat="47.47862" lon="7.6879935">
        <ele>516.48267</ele>
        <time>2019-03-17T09:57:51Z</time>
      </trkpt>
      <trkpt lat="47.47858" lon="7.6878276">
        <ele>517.13</ele>
        <time>2019-03-17T09:57:54Z</time>
      </trkpt>
      <trkpt lat="47.478554" lon="7.6876497">
        <ele>517.9465</ele>
        <time>2019-03-17T09:57:57Z</time>
      </trkpt>
      <trkpt lat="47.47849" lon="7.687487">
        <ele>518.51984</ele>
        <time>2019-03-17T09:58:00Z</time>
      </trkpt>
      <trkpt lat="47.478447" lon="7.6873174">
        <ele>518.7127</ele>
        <time>2019-03-17T09:58:03Z</time>
      </trkpt>
      <trkpt lat="47.47842" lon="7.6871567">
        <ele>519.72205</ele>
        <time>2019-03-17T09:58:06Z</time>
      </trkpt>
      <trkpt lat="47.47841" lon="7.686987">
        <ele>519.94403</ele>
        <time>2019-03-17T09:58:09Z</time>
      </trkpt>
      <trkpt lat="47.478386" lon="7.6868243">
        <ele>520.4725</ele>
        <time>2019-03-17T09:58:12Z</time>
      </trkpt>
      <trkpt lat="47.478363" lon="7.6866646">
        <ele>520.7182</ele>
        <time>2019-03-17T09:58:15Z</time>
      </trkpt>
      <trkpt lat="47.478344" lon="7.6865063">
        <ele>521.19116</ele>
        <time>2019-03-17T09:58:18Z</time>
      </trkpt>
      <trkpt lat="47.478313" lon="7.686349">
        <ele>521.77246</ele>
        <time>2019-03-17T09:58:21Z</time>
      </trkpt>
      <trkpt lat="47.47829" lon="7.6861825">
        <ele>521.93365</ele>
        <time>2019-03-17T09:58:24Z</time>
      </trkpt>
      <trkpt lat="47.478283" lon="7.6860175">
        <ele>521.52673</ele>
        <time>2019-03-17T09:58:27Z</time>
      </trkpt>
      <trkpt lat="47.47829" lon="7.6858516">
        <ele>521.244</ele>
        <time>2019-03-17T09:58:30Z</time>
      </trkpt>
      <trkpt lat="47.4782" lon="7.6857266">
        <ele>520.18976</ele>
        <time>2019-03-17T09:58:33Z</time>
      </trkpt>
      <trkpt lat="47.478" lon="7.685713">
        <ele>519.04565</ele>
        <time>2019-03-17T09:58:35Z</time>
      </trkpt>
      <trkpt lat="47.477867" lon="7.6857376">
        <ele>518.84216</ele>
        <time>2019-03-17T09:58:37Z</time>
      </trkpt>
      <trkpt lat="47.47773" lon="7.6857605">
        <ele>517.81433</ele>
        <time>2019-03-17T09:58:39Z</time>
      </trkpt>
      <trkpt lat="47.477592" lon="7.6857824">
        <ele>516.81555</ele>
        <time>2019-03-17T09:58:41Z</time>
      </trkpt>
      <trkpt lat="47.477455" lon="7.685869">
        <ele>516.2686</ele>
        <time>2019-03-17T09:58:43Z</time>
      </trkpt>
      <trkpt lat="47.47741" lon="7.6859384">
        <ele>515.9119</ele>
        <time>2019-03-17T09:58:44Z</time>
      </trkpt>
      <trkpt lat="47.477325" lon="7.686091">
        <ele>515.867</ele>
        <time>2019-03-17T09:58:46Z</time>
      </trkpt>
      <trkpt lat="47.47725" lon="7.6862206">
        <ele>516.35583</ele>
        <time>2019-03-17T09:58:48Z</time>
      </trkpt>
      <trkpt lat="47.477173" lon="7.6863217">
        <ele>515.81415</ele>
        <time>2019-03-17T09:58:50Z</time>
      </trkpt>
      <trkpt lat="47.47711" lon="7.6863937">
        <ele>515.4442</ele>
        <time>2019-03-17T09:58:57Z</time>
      </trkpt>
    </trkseg>
    <trkseg>
      <trkpt lat="47.47711" lon="7.6863937">
        <ele>515.4442</ele>
        <time>2019-03-17T09:58:57Z</time>
      </trkpt>
      <trkpt lat="47.477013" lon="7.686701">
        <ele>515.143</ele>
        <time>2019-03-17T10:01:53Z</time>
      </trkpt>
      <trkpt lat="47.476974" lon="7.6868715">
        <ele>514.60925</ele>
        <time>2019-03-17T10:01:56Z</time>
      </trkpt>
      <trkpt lat="47.47693" lon="7.687049">
        <ele>513.67126</ele>
        <time>2019-03-17T10:01:59Z</time>
      </trkpt>
      <trkpt lat="47.476875" lon="7.6872244">
        <ele>513.4387</ele>
        <time>2019-03-17T10:02:02Z</time>
      </trkpt>
      <trkpt lat="47.476826" lon="7.6873374">
        <ele>512.8944</ele>
        <time>2019-03-17T10:02:04Z</time>
      </trkpt>
      <trkpt lat="47.476772" lon="7.6874747">
        <ele>512.4373</ele>
        <time>2019-03-17T10:02:06Z</time>
      </trkpt>
      <trkpt lat="47.476727" lon="7.6876125">
        <ele>512.43994</ele>
        <time>2019-03-17T10:02:08Z</time>
      </trkpt>
      <trkpt lat="47.47669" lon="7.687754">
        <ele>512.36597</ele>
        <time>2019-03-17T10:02:10Z</time>
      </trkpt>
      <trkpt lat="47.476646" lon="7.6878934">
        <ele>512.691</ele>
        <time>2019-03-17T10:02:12Z</time>
      </trkpt>
      <trkpt lat="47.47661" lon="7.6880326">
        <ele>512.9684</ele>
        <time>2019-03-17T10:02:14Z</time>
      </trkpt>
      <trkpt lat="47.476574" lon="7.688168">
        <ele>512.82306</ele>
        <time>2019-03-17T10:02:16Z</time>
      </trkpt>
      <trkpt lat="47.476536" lon="7.6882977">
        <ele>513.06885</ele>
        <time>2019-03-17T10:02:18Z</time>
      </trkpt>
      <trkpt lat="47.476498" lon="7.688436">
        <ele>513.193</ele>
        <time>2019-03-17T10:02:20Z</time>
      </trkpt>
      <trkpt lat="47.47646" lon="7.6885705">
        <ele>512.9129</ele>
        <time>2019-03-17T10:02:22Z</time>
      </trkpt>
      <trkpt lat="47.47642" lon="7.6887097">
        <ele>512.8944</ele>
        <time>2019-03-17T10:02:24Z</time>
      </trkpt>
      <trkpt lat="47.476387" lon="7.688857">
        <ele>513.03973</ele>
        <time>2019-03-17T10:02:26Z</time>
      </trkpt>
      <trkpt lat="47.476345" lon="7.6889987">
        <ele>513.1428</ele>
        <time>2019-03-17T10:02:28Z</time>
      </trkpt>
      <trkpt lat="47.47631" lon="7.689138">
        <ele>512.8944</ele>
        <time>2019-03-17T10:02:30Z</time>
      </trkpt>
      <trkpt lat="47.476273" lon="7.6892657">
        <ele>513.2617</ele>
        <time>2019-03-17T10:02:32Z</time>
      </trkpt>
      <trkpt lat="47.47624" lon="7.6893992">
        <ele>513.8166</ele>
        <time>2019-03-17T10:02:34Z</time>
      </trkpt>
      <trkpt lat="47.476196" lon="7.689523">
        <ele>513.91437</ele>
        <time>2019-03-17T10:02:36Z</time>
      </trkpt>
      <trkpt lat="47.47615" lon="7.6897044">
        <ele>513.68445</ele>
        <time>2019-03-17T10:02:39Z</time>
      </trkpt>
      <trkpt lat="47.47611" lon="7.689878">
        <ele>513.193</ele>
        <time>2019-03-17T10:02:42Z</time>
      </trkpt>
      <trkpt lat="47.476055" lon="7.69005">
        <ele>512.8786</ele>
        <time>2019-03-17T10:02:45Z</time>
      </trkpt>
      <trkpt lat="47.476" lon="7.6901703">
        <ele>512.68304</ele>
        <time>2019-03-17T10:02:47Z</time>
      </trkpt>
      <trkpt lat="47.47594" lon="7.690278">
        <ele>512.7359</ele>
        <time>2019-03-17T10:02:49Z</time>
      </trkpt>
      <trkpt lat="47.47584" lon="7.690403">
        <ele>512.691</ele>
        <time>2019-03-17T10:02:52Z</time>
      </trkpt>
      <trkpt lat="47.475742" lon="7.6905174">
        <ele>512.469</ele>
        <time>2019-03-17T10:02:55Z</time>
      </trkpt>
      <trkpt lat="47.47565" lon="7.690596">
        <ele>511.73975</ele>
        <time>2019-03-17T10:02:59Z</time>
      </trkpt>
      <trkpt lat="47.475662" lon="7.690617">
        <ele>512.04626</ele>
        <time>2019-03-17T10:03:04Z</time>
      </trkpt>
    </trkseg>
    <trkseg>
      <trkpt lat="47.47551" lon="7.690737">
        <ele>511.3672</ele>
        <time>2019-03-17T10:03:25Z</time>
      </trkpt>
      <trkpt lat="47.4754" lon="7.6908073">
        <ele>511.33286</ele>
        <time>2019-03-17T10:03:28Z</time>
      </trkpt>
      <trkpt lat="47.47529" lon="7.6908445">
        <ele>509.90866</ele>
        <time>2019-03-17T10:03:30Z</time>
      </trkpt>
      <trkpt lat="47.475185" lon="7.690893">
        <ele>509.67877</ele>
        <time>2019-03-17T10:03:32Z</time>
      </trkpt>
      <trkpt lat="47.475086" lon="7.690953">
        <ele>509.04727</ele>
        <time>2019-03-17T10:03:34Z</time>
      </trkpt>
      <trkpt lat="47.474983" lon="7.691005">
        <ele>508.9416</ele>
        <time>2019-03-17T10:03:37Z</time>
      </trkpt>
      <trkpt lat="47.474888" lon="7.69107">
        <ele>508.95743</ele>
        <time>2019-03-17T10:03:38Z</time>
      </trkpt>
      <trkpt lat="47.474796" lon="7.691116">
        <ele>509.13184</ele>
        <time>2019-03-17T10:03:40Z</time>
      </trkpt>
      <trkpt lat="47.4747" lon="7.6912374">
        <ele>510.4371</ele>
        <time>2019-03-17T10:03:43Z</time>
      </trkpt>
      <trkpt lat="47.474625" lon="7.6913486">
        <ele>510.72775</ele>
        <time>2019-03-17T10:03:47Z</time>
      </trkpt>
      <trkpt lat="47.474567" lon="7.6914682">
        <ele>511.18225</ele>
        <time>2019-03-17T10:03:50Z</time>
      </trkpt>
      <trkpt lat="47.47453" lon="7.6916065">
        <ele>511.84015</ele>
        <time>2019-03-17T10:03:53Z</time>
      </trkpt>
      <trkpt lat="47.474483" lon="7.691735">
        <ele>512.4109</ele>
        <time>2019-03-17T10:03:56Z</time>
      </trkpt>
      <trkpt lat="47.47444" lon="7.691856">
        <ele>512.7333</ele>
        <time>2019-03-17T10:03:59Z</time>
      </trkpt>
      <trkpt lat="47.47439" lon="7.6920047">
        <ele>513.6554</ele>
        <time>2019-03-17T10:04:03Z</time>
      </trkpt>
      <trkpt lat="47.47433" lon="7.692147">
        <ele>514.6172</ele>
        <time>2019-03-17T10:04:07Z</time>
      </trkpt>
      <trkpt lat="47.474262" lon="7.692293">
        <ele>515.0056</ele>
        <time>2019-03-17T10:04:11Z</time>
      </trkpt>
      <trkpt lat="47.474205" lon="7.6923957">
        <ele>515.53143</ele>
        <time>2019-03-17T10:04:14Z</time>
      </trkpt>
      <trkpt lat="47.474136" lon="7.6925325">
        <ele>516.0414</ele>
        <time>2019-03-17T10:04:18Z</time>
      </trkpt>
      <trkpt lat="47.474068" lon="7.6926246">
        <ele>516.118</ele>
        <time>2019-03-17T10:04:21Z</time>
      </trkpt>
      <trkpt lat="47.47399" lon="7.692713">
        <ele>516.5408</ele>
        <time>2019-03-17T10:04:24Z</time>
      </trkpt>
      <trkpt lat="47.47391" lon="7.6927953">
        <ele>516.53284</ele>
        <time>2019-03-17T10:04:27Z</time>
      </trkpt>
      <trkpt lat="47.47383" lon="7.692877">
        <ele>516.70197</ele>
        <time>2019-03-17T10:04:30Z</time>
      </trkpt>
      <trkpt lat="47.473736" lon="7.692965">
        <ele>516.44037</ele>
        <time>2019-03-17T10:04:33Z</time>
      </trkpt>
      <trkpt lat="47.473644" lon="7.693051">
        <ele>516.53284</ele>
        <time>2019-03-17T10:04:36Z</time>
      </trkpt>
      <trkpt lat="47.473545" lon="7.6931267">
        <ele>516.2792</ele>
        <time>2019-03-17T10:04:39Z</time>
      </trkpt>
      <trkpt lat="47.473442" lon="7.693183">
        <ele>516.2501</ele>
        <time>2019-03-17T10:04:42Z</time>
      </trkpt>
      <trkpt lat="47.47333" lon="7.693222">
        <ele>515.7243</ele>
        <time>2019-03-17T10:04:45Z</time>
      </trkpt>
      <trkpt lat="47.47324" lon="7.6932383">
        <ele>515.6371</ele>
        <time>2019-03-17T10:04:47Z</time>
      </trkpt>
      <trkpt lat="47.473145" lon="7.6932435">
        <ele>515.37286</ele>
        <time>2019-03-17T10:04:49Z</time>
      </trkpt>
      <trkpt lat="47.473038" lon="7.6932454">
        <ele>515.79565</ele>
        <time>2019-03-17T10:04:51Z</time>
      </trkpt>
      <trkpt lat="47.472923" lon="7.693257">
        <ele>515.6371</ele>
        <time>2019-03-17T10:04:54Z</time>
      </trkpt>
      <trkpt lat="47.472813" lon="7.6932664">
        <ele>516.01495</ele>
        <time>2019-03-17T10:04:57Z</time>
      </trkpt>
      <trkpt lat="47.472713" lon="7.6932716">
        <ele>516.7469</ele>
        <time>2019-03-17T10:05:00Z</time>
      </trkpt>
      <trkpt lat="47.47261" lon="7.6932473">
        <ele>517.0111</ele>
        <time>2019-03-17T10:05:04Z</time>
      </trkpt>
      <trkpt lat="47.47251" lon="7.693228">
        <ele>517.25946</ele>
        <time>2019-03-17T10:05:08Z</time>
      </trkpt>
      <trkpt lat="47.47241" lon="7.6932435">
        <ele>517.2885</ele>
        <time>2019-03-17T10:05:12Z</time>
      </trkpt>
      <trkpt lat="47.47231" lon="7.693241">
        <ele>517.4074</ele>
        <time>2019-03-17T10:05:15Z</time>
      </trkpt>
      <trkpt lat="47.47219" lon="7.6932054">
        <ele>517.8698</ele>
        <time>2019-03-17T10:05:19Z</time>
      </trkpt>
      <trkpt lat="47.47208" lon="7.693154">
        <ele>518.8184</ele>
        <time>2019-03-17T10:05:23Z</time>
      </trkpt>
      <trkpt lat="47.471966" lon="7.6931334">
        <ele>518.4141</ele>
        <time>2019-03-17T10:05:28Z</time>
      </trkpt>
      <trkpt lat="47.471855" lon="7.6931167">
        <ele>517.53424</ele>
        <time>2019-03-17T10:05:32Z</time>
      </trkpt>
      <trkpt lat="47.471737" lon="7.6930566">
        <ele>516.7178</ele>
        <time>2019-03-17T10:05:35Z</time>
      </trkpt>
      <trkpt lat="47.47162" lon="7.692965">
        <ele>515.70844</ele>
        <time>2019-03-17T10:05:38Z</time>
      </trkpt>
      <trkpt lat="47.47151" lon="7.6928573">
        <ele>514.9686</ele>
        <time>2019-03-17T10:05:41Z</time>
      </trkpt>
      <trkpt lat="47.471394" lon="7.6928005">
        <ele>513.8615</ele>
        <time>2019-03-17T10:05:44Z</time>
      </trkpt>
      <trkpt lat="47.471294" lon="7.6928735">
        <ele>513.45197</ele>
        <time>2019-03-17T10:05:46Z</time>
      </trkpt>
      <trkpt lat="47.471188" lon="7.692969">
        <ele>513.193</ele>
        <time>2019-03-17T10:05:48Z</time>
      </trkpt>
      <trkpt lat="47.471054" lon="7.693057">
        <ele>512.543</ele>
        <time>2019-03-17T10:05:50Z</time>
      </trkpt>
      <trkpt lat="47.470936" lon="7.6931243">
        <ele>513.38855</ele>
        <time>2019-03-17T10:05:52Z</time>
      </trkpt>
      <trkpt lat="47.47081" lon="7.693148">
        <ele>514.8735</ele>
        <time>2019-03-17T10:05:55Z</time>
      </trkpt>
      <trkpt lat="47.470695" lon="7.69316">
        <ele>515.0479</ele>
        <time>2019-03-17T10:05:58Z</time>
      </trkpt>
      <trkpt lat="47.47058" lon="7.6931405">
        <ele>514.93427</ele>
        <time>2019-03-17T10:06:01Z</time>
      </trkpt>
      <trkpt lat="47.47046" lon="7.693129">
        <ele>514.93164</ele>
        <time>2019-03-17T10:06:04Z</time>
      </trkpt>
      <trkpt lat="47.470337" lon="7.693118">
        <ele>514.7995</ele>
        <time>2019-03-17T10:06:07Z</time>
      </trkpt>
      <trkpt lat="47.470226" lon="7.693105">
        <ele>515.0928</ele>
        <time>2019-03-17T10:06:10Z</time>
      </trkpt>
      <trkpt lat="47.47011" lon="7.6930923">
        <ele>514.77045</ele>
        <time>2019-03-17T10:06:13Z</time>
      </trkpt>
      <trkpt lat="47.469994" lon="7.6930475">
        <ele>514.0385</ele>
        <time>2019-03-17T10:06:16Z</time>
      </trkpt>
      <trkpt lat="47.469868" lon="7.6929836">
        <ele>513.7558</ele>
        <time>2019-03-17T10:06:19Z</time>
      </trkpt>
      <trkpt lat="47.469772" lon="7.692906">
        <ele>513.3938</ele>
        <time>2019-03-17T10:06:25Z</time>
      </trkpt>
      <trkpt lat="47.469692" lon="7.6928325">
        <ele>514.05176</ele>
        <time>2019-03-17T10:06:29Z</time>
      </trkpt>
      <trkpt lat="47.4696" lon="7.6927586">
        <ele>514.1997</ele>
        <time>2019-03-17T10:06:32Z</time>
      </trkpt>
      <trkpt lat="47.469505" lon="7.6926723">
        <ele>513.54443</ele>
        <time>2019-03-17T10:06:35Z</time>
      </trkpt>
      <trkpt lat="47.469414" lon="7.6925783">
        <ele>512.617</ele>
        <time>2019-03-17T10:06:38Z</time>
      </trkpt>
      <trkpt lat="47.46933" lon="7.6924806">
        <ele>512.8363</ele>
        <time>2019-03-17T10:06:40Z</time>
      </trkpt>
      <trkpt lat="47.46925" lon="7.6923785">
        <ele>512.9288</ele>
        <time>2019-03-17T10:06:44Z</time>
      </trkpt>
      <trkpt lat="47.469147" lon="7.6922355">
        <ele>512.82306</ele>
        <time>2019-03-17T10:06:47Z</time>
      </trkpt>
      <trkpt lat="47.469078" lon="7.6921105">
        <ele>512.82043</ele>
        <time>2019-03-17T10:06:51Z</time>
      </trkpt>
      <trkpt lat="47.469006" lon="7.691999">
        <ele>512.93933</ele>
        <time>2019-03-17T10:06:54Z</time>
      </trkpt>
      <trkpt lat="47.468925" lon="7.6918764">
        <ele>512.9235</ele>
        <time>2019-03-17T10:06:56Z</time>
      </trkpt>
      <trkpt lat="47.468853" lon="7.691734">
        <ele>513.7003</ele>
        <time>2019-03-17T10:07:00Z</time>
      </trkpt>
      <trkpt lat="47.46876" lon="7.6915283">
        <ele>513.96454</ele>
        <time>2019-03-17T10:07:03Z</time>
      </trkpt>
      <trkpt lat="47.468697" lon="7.6913686">
        <ele>514.56433</ele>
        <time>2019-03-17T10:07:07Z</time>
      </trkpt>
      <trkpt lat="47.46863" lon="7.6912236">
        <ele>515.37024</ele>
        <time>2019-03-17T10:07:10Z</time>
      </trkpt>
      <trkpt lat="47.46858" lon="7.69105">
        <ele>515.75867</ele>
        <time>2019-03-17T10:07:15Z</time>
      </trkpt>
      <trkpt lat="47.468506" lon="7.6909165">
        <ele>516.4456</ele>
        <time>2019-03-17T10:07:19Z</time>
      </trkpt>
      <trkpt lat="47.468456" lon="7.690782">
        <ele>517.09827</ele>
        <time>2019-03-17T10:07:23Z</time>
      </trkpt>
      <trkpt lat="47.468422" lon="7.69059">
        <ele>517.9914</ele>
        <time>2019-03-17T10:07:26Z</time>
      </trkpt>
      <trkpt lat="47.468388" lon="7.690441">
        <ele>518.95844</ele>
        <time>2019-03-17T10:07:30Z</time>
      </trkpt>
      <trkpt lat="47.468346" lon="7.690275">
        <ele>519.4869</ele>
        <time>2019-03-17T10:07:33Z</time>
      </trkpt>
      <trkpt lat="47.468307" lon="7.6901107">
        <ele>519.3812</ele>
        <time>2019-03-17T10:07:35Z</time>
      </trkpt>
      <trkpt lat="47.46827" lon="7.6899476">
        <ele>520.3932</ele>
        <time>2019-03-17T10:07:39Z</time>
      </trkpt>
      <trkpt lat="47.468227" lon="7.6897225">
        <ele>521.34973</ele>
        <time>2019-03-17T10:07:42Z</time>
      </trkpt>
      <trkpt lat="47.468178" lon="7.689503">
        <ele>522.1424</ele>
        <time>2019-03-17T10:07:46Z</time>
      </trkpt>
      <trkpt lat="47.468147" lon="7.6893406">
        <ele>523.09094</ele>
        <time>2019-03-17T10:07:50Z</time>
      </trkpt>
      <trkpt lat="47.468105" lon="7.689128">
        <ele>523.2495</ele>
        <time>2019-03-17T10:07:53Z</time>
      </trkpt>
      <trkpt lat="47.46807" lon="7.6889653">
        <ele>524.39624</ele>
        <time>2019-03-17T10:07:56Z</time>
      </trkpt>
      <trkpt lat="47.468044" lon="7.688754">
        <ele>526.0292</ele>
        <time>2019-03-17T10:08:00Z</time>
      </trkpt>
      <trkpt lat="47.46803" lon="7.6886053">
        <ele>526.6105</ele>
        <time>2019-03-17T10:08:03Z</time>
      </trkpt>
      <trkpt lat="47.468006" lon="7.6884084">
        <ele>526.6528</ele>
        <time>2019-03-17T10:08:07Z</time>
      </trkpt>
      <trkpt lat="47.468002" lon="7.6882567">
        <ele>527.50885</ele>
        <time>2019-03-17T10:08:11Z</time>
      </trkpt>
      <trkpt lat="47.468" lon="7.688053">
        <ele>528.04785</ele>
        <time>2019-03-17T10:08:14Z</time>
      </trkpt>
      <trkpt lat="47.46799" lon="7.6878858">
        <ele>528.7217</ele>
        <time>2019-03-17T10:08:18Z</time>
      </trkpt>
      <trkpt lat="47.46799" lon="7.6876974">
        <ele>528.64764</ele>
        <time>2019-03-17T10:08:21Z</time>
      </trkpt>
      <trkpt lat="47.467987" lon="7.6875153">
        <ele>528.25134</ele>
        <time>2019-03-17T10:08:23Z</time>
      </trkpt>
      <trkpt lat="47.46798" lon="7.687333">
        <ele>530.09564</ele>
        <time>2019-03-17T10:08:27Z</time>
      </trkpt>
      <trkpt lat="47.467976" lon="7.687101">
        <ele>530.6003</ele>
        <time>2019-03-17T10:08:30Z</time>
      </trkpt>
      <trkpt lat="47.46797" lon="7.686956">
        <ele>531.5093</ele>
        <time>2019-03-17T10:08:34Z</time>
      </trkpt>
      <trkpt lat="47.46796" lon="7.6867833">
        <ele>533.50946</ele>
        <time>2019-03-17T10:08:38Z</time>
      </trkpt>
      <trkpt lat="47.467945" lon="7.686616">
        <ele>534.0168</ele>
        <time>2019-03-17T10:08:41Z</time>
      </trkpt>
      <trkpt lat="47.46793" lon="7.686398">
        <ele>535.2798</ele>
        <time>2019-03-17T10:08:46Z</time>
      </trkpt>
      <trkpt lat="47.4679" lon="7.686213">
        <ele>536.0857</ele>
        <time>2019-03-17T10:08:50Z</time>
      </trkpt>
      <trkpt lat="47.467865" lon="7.686058">
        <ele>536.4318</ele>
        <time>2019-03-17T10:08:53Z</time>
      </trkpt>
      <trkpt lat="47.467823" lon="7.685904">
        <ele>537.05536</ele>
        <time>2019-03-17T10:08:57Z</time>
      </trkpt>
      <trkpt lat="47.467773" lon="7.685698">
        <ele>537.8956</ele>
        <time>2019-03-17T10:09:00Z</time>
      </trkpt>
      <trkpt lat="47.467728" lon="7.685497">
        <ele>538.15454</ele>
        <time>2019-03-17T10:09:04Z</time>
      </trkpt>
      <trkpt lat="47.46768" lon="7.68535">
        <ele>538.4928</ele>
        <time>2019-03-17T10:09:08Z</time>
      </trkpt>
      <trkpt lat="47.467598" lon="7.685169">
        <ele>539.444</ele>
        <time>2019-03-17T10:09:11Z</time>
      </trkpt>
      <trkpt lat="47.467518" lon="7.685053">
        <ele>540.0966</ele>
        <time>2019-03-17T10:09:14Z</time>
      </trkpt>
      <trkpt lat="47.467392" lon="7.684929">
        <ele>540.92365</ele>
        <time>2019-03-17T10:09:18Z</time>
      </trkpt>
      <trkpt lat="47.467293" lon="7.684851">
        <ele>541.5182</ele>
        <time>2019-03-17T10:09:21Z</time>
      </trkpt>
      <trkpt lat="47.467163" lon="7.6847672">
        <ele>542.7759</ele>
        <time>2019-03-17T10:09:25Z</time>
      </trkpt>
      <trkpt lat="47.467068" lon="7.68472">
        <ele>543.19336</ele>
        <time>2019-03-17T10:09:28Z</time>
      </trkpt>
      <trkpt lat="47.466972" lon="7.6846857">
        <ele>543.0613</ele>
        <time>2019-03-17T10:09:31Z</time>
      </trkpt>
      <trkpt lat="47.466885" lon="7.684644">
        <ele>542.8631</ele>
        <time>2019-03-17T10:09:34Z</time>
      </trkpt>
      <trkpt lat="47.466805" lon="7.684569">
        <ele>542.89746</ele>
        <time>2019-03-17T10:09:37Z</time>
      </trkpt>
      <trkpt lat="47.46671" lon="7.684485">
        <ele>542.81024</ele>
        <time>2019-03-17T10:09:40Z</time>
      </trkpt>
      <trkpt lat="47.46658" lon="7.684368">
        <ele>541.8062</ele>
        <time>2019-03-17T10:09:43Z</time>
      </trkpt>
      <trkpt lat="47.466488" lon="7.6842713">
        <ele>541.2777</ele>
        <time>2019-03-17T10:09:45Z</time>
      </trkpt>
      <trkpt lat="47.466393" lon="7.6841526">
        <ele>541.06635</ele>
        <time>2019-03-17T10:09:47Z</time>
      </trkpt>
      <trkpt lat="47.466293" lon="7.6840267">
        <ele>540.66473</ele>
        <time>2019-03-17T10:09:49Z</time>
      </trkpt>
      <trkpt lat="47.46618" lon="7.6839423">
        <ele>540.50354</ele>
        <time>2019-03-17T10:09:51Z</time>
      </trkpt>
      <trkpt lat="47.466084" lon="7.6838923">
        <ele>540.8999</ele>
        <time>2019-03-17T10:09:53Z</time>
      </trkpt>
      <trkpt lat="47.465992" lon="7.683861">
        <ele>541.53406</ele>
        <time>2019-03-17T10:09:55Z</time>
      </trkpt>
      <trkpt lat="47.465874" lon="7.6838317">
        <ele>542.1629</ele>
        <time>2019-03-17T10:09:58Z</time>
      </trkpt>
      <trkpt lat="47.465748" lon="7.683802">
        <ele>542.8631</ele>
        <time>2019-03-17T10:10:01Z</time>
      </trkpt>
      <trkpt lat="47.465637" lon="7.683771">
        <ele>543.6901</ele>
        <time>2019-03-17T10:10:04Z</time>
      </trkpt>
      <trkpt lat="47.465534" lon="7.683753">
        <ele>544.93994</ele>
        <time>2019-03-17T10:10:07Z</time>
      </trkpt>
      <trkpt lat="47.46544" lon="7.68374">
        <ele>545.25964</ele>
        <time>2019-03-17T10:10:10Z</time>
      </trkpt>
      <trkpt lat="47.465397" lon="7.683722">
        <ele>545.072</ele>
        <time>2019-03-17T10:10:18Z</time>
      </trkpt>
    </trkseg>
    <trkseg>
      <trkpt lat="47.465397" lon="7.683722">
        <ele>545.072</ele>
        <time>2019-03-17T10:10:18Z</time>
      </trkpt>
      <trkpt lat="47.46512" lon="7.6836">
        <ele>544.1499</ele>
        <time>2019-03-17T10:24:07Z</time>
      </trkpt>
      <trkpt lat="47.465004" lon="7.683637">
        <ele>544.3084</ele>
        <time>2019-03-17T10:24:09Z</time>
      </trkpt>
      <trkpt lat="47.464897" lon="7.6836915">
        <ele>544.5436</ele>
        <time>2019-03-17T10:24:11Z</time>
      </trkpt>
      <trkpt lat="47.464794" lon="7.683733">
        <ele>544.6889</ele>
        <time>2019-03-17T10:24:13Z</time>
      </trkpt>
      <trkpt lat="47.464684" lon="7.6837997">
        <ele>543.8672</ele>
        <time>2019-03-17T10:24:15Z</time>
      </trkpt>
      <trkpt lat="47.46457" lon="7.683868">
        <ele>543.4999</ele>
        <time>2019-03-17T10:24:17Z</time>
      </trkpt>
      <trkpt lat="47.46445" lon="7.6839495">
        <ele>542.22894</ele>
        <time>2019-03-17T10:24:19Z</time>
      </trkpt>
      <trkpt lat="47.464333" lon="7.6840444">
        <ele>541.9462</ele>
        <time>2019-03-17T10:24:21Z</time>
      </trkpt>
      <trkpt lat="47.464207" lon="7.684153">
        <ele>541.04785</ele>
        <time>2019-03-17T10:24:23Z</time>
      </trkpt>
      <trkpt lat="47.46408" lon="7.6842613">
        <ele>541.1351</ele>
        <time>2019-03-17T10:24:25Z</time>
      </trkpt>
      <trkpt lat="47.463974" lon="7.6843405">
        <ele>541.3121</ele>
        <time>2019-03-17T10:24:27Z</time>
      </trkpt>
      <trkpt lat="47.46387" lon="7.6844053">
        <ele>541.48914</ele>
        <time>2019-03-17T10:24:29Z</time>
      </trkpt>
      <trkpt lat="47.46377" lon="7.6844645">
        <ele>541.75336</ele>
        <time>2019-03-17T10:24:31Z</time>
      </trkpt>
      <trkpt lat="47.463634" lon="7.6845036">
        <ele>541.91187</ele>
        <time>2019-03-17T10:24:34Z</time>
      </trkpt>
      <trkpt lat="47.463547" lon="7.6845336">
        <ele>542.29767</ele>
        <time>2019-03-17T10:24:36Z</time>
      </trkpt>
      <trkpt lat="47.463425" lon="7.684575">
        <ele>542.7389</ele>
        <time>2019-03-17T10:24:39Z</time>
      </trkpt>
      <trkpt lat="47.463337" lon="7.6846113">
        <ele>542.7389</ele>
        <time>2019-03-17T10:24:41Z</time>
      </trkpt>
      <trkpt lat="47.46325" lon="7.6846538">
        <ele>543.0216</ele>
        <time>2019-03-17T10:24:43Z</time>
      </trkpt>
      <trkpt lat="47.463123" lon="7.6847153">
        <ele>542.7046</ele>
        <time>2019-03-17T10:24:46Z</time>
      </trkpt>
      <trkpt lat="47.463" lon="7.684769">
        <ele>543.29376</ele>
        <time>2019-03-17T10:24:49Z</time>
      </trkpt>
      <trkpt lat="47.462887" lon="7.684844">
        <ele>542.5619</ele>
        <time>2019-03-17T10:24:52Z</time>
      </trkpt>
      <trkpt lat="47.462807" lon="7.6849113">
        <ele>542.8393</ele>
        <time>2019-03-17T10:24:54Z</time>
      </trkpt>
      <trkpt lat="47.4627" lon="7.6850343">
        <ele>542.5619</ele>
        <time>2019-03-17T10:24:57Z</time>
      </trkpt>
      <trkpt lat="47.46261" lon="7.685124">
        <ele>541.9647</ele>
        <time>2019-03-17T10:24:59Z</time>
      </trkpt>
      <trkpt lat="47.46253" lon="7.6852274">
        <ele>542.3267</ele>
        <time>2019-03-17T10:25:01Z</time>
      </trkpt>
      <trkpt lat="47.462467" lon="7.685365">
        <ele>541.91455</ele>
        <time>2019-03-17T10:25:03Z</time>
      </trkpt>
      <trkpt lat="47.462414" lon="7.6854973">
        <ele>541.6635</ele>
        <time>2019-03-17T10:25:05Z</time>
      </trkpt>
      <trkpt lat="47.462357" lon="7.6856203">
        <ele>541.7983</ele>
        <time>2019-03-17T10:25:07Z</time>
      </trkpt>
      <trkpt lat="47.462315" lon="7.6857653">
        <ele>541.7983</ele>
        <time>2019-03-17T10:25:09Z</time>
      </trkpt>
      <trkpt lat="47.462273" lon="7.685915">
        <ele>541.48914</ele>
        <time>2019-03-17T10:25:11Z</time>
      </trkpt>
      <trkpt lat="47.46222" lon="7.686054">
        <ele>540.7123</ele>
        <time>2019-03-17T10:25:13Z</time>
      </trkpt>
      <trkpt lat="47.462185" lon="7.686201">
        <ele>540.2552</ele>
        <time>2019-03-17T10:25:15Z</time>
      </trkpt>
      <trkpt lat="47.46214" lon="7.6863456">
        <ele>540.2208</ele>
        <time>2019-03-17T10:25:17Z</time>
      </trkpt>
      <trkpt lat="47.4621" lon="7.6865053">
        <ele>539.9751</ele>
        <time>2019-03-17T10:25:19Z</time>
      </trkpt>
      <trkpt lat="47.462067" lon="7.686671">
        <ele>538.65393</ele>
        <time>2019-03-17T10:25:21Z</time>
      </trkpt>
      <trkpt lat="47.46203" lon="7.6868167">
        <ele>537.87714</ele>
        <time>2019-03-17T10:25:23Z</time>
      </trkpt>
      <trkpt lat="47.461998" lon="7.6869936">
        <ele>536.6432</ele>
        <time>2019-03-17T10:25:26Z</time>
      </trkpt>
      <trkpt lat="47.46198" lon="7.6871448">
        <ele>535.7633</ele>
        <time>2019-03-17T10:25:31Z</time>
      </trkpt>
      <trkpt lat="47.461983" lon="7.687325">
        <ele>534.3021</ele>
        <time>2019-03-17T10:25:35Z</time>
      </trkpt>
      <trkpt lat="47.461975" lon="7.687486">
        <ele>533.6204</ele>
        <time>2019-03-17T10:25:38Z</time>
      </trkpt>
      <trkpt lat="47.46199" lon="7.6876507">
        <ele>532.8436</ele>
        <time>2019-03-17T10:25:41Z</time>
      </trkpt>
      <trkpt lat="47.462013" lon="7.6878047">
        <ele>531.78406</ele>
        <time>2019-03-17T10:25:44Z</time>
      </trkpt>
      <trkpt lat="47.46197" lon="7.687942">
        <ele>529.5275</ele>
        <time>2019-03-17T10:25:48Z</time>
      </trkpt>
      <trkpt lat="47.461864" lon="7.6880083">
        <ele>528.8617</ele>
        <time>2019-03-17T10:25:51Z</time>
      </trkpt>
      <trkpt lat="47.461697" lon="7.6880703">
        <ele>527.92896</ele>
        <time>2019-03-17T10:25:53Z</time>
      </trkpt>
      <trkpt lat="47.46161" lon="7.6881213">
        <ele>525.7887</ele>
        <time>2019-03-17T10:25:56Z</time>
      </trkpt>
      <trkpt lat="47.461506" lon="7.68825">
        <ele>523.7806</ele>
        <time>2019-03-17T10:25:59Z</time>
      </trkpt>
      <trkpt lat="47.461464" lon="7.688388">
        <ele>523.0619</ele>
        <time>2019-03-17T10:26:01Z</time>
      </trkpt>
      <trkpt lat="47.461414" lon="7.688515">
        <ele>522.6074</ele>
        <time>2019-03-17T10:26:03Z</time>
      </trkpt>
      <trkpt lat="47.461353" lon="7.6886697">
        <ele>522.37225</ele>
        <time>2019-03-17T10:26:06Z</time>
      </trkpt>
      <trkpt lat="47.4613" lon="7.6887975">
        <ele>521.4633</ele>
        <time>2019-03-17T10:26:10Z</time>
      </trkpt>
      <trkpt lat="47.461254" lon="7.688945">
        <ele>521.0115</ele>
        <time>2019-03-17T10:26:15Z</time>
      </trkpt>
      <trkpt lat="47.46121" lon="7.689073">
        <ele>520.3826</ele>
        <time>2019-03-17T10:26:18Z</time>
      </trkpt>
      <trkpt lat="47.46126" lon="7.6889467">
        <ele>520.77106</ele>
        <time>2019-03-17T10:26:29Z</time>
      </trkpt>
      <trkpt lat="47.461273" lon="7.6888022">
        <ele>521.6985</ele>
        <time>2019-03-17T10:26:33Z</time>
      </trkpt>
      <trkpt lat="47.46117" lon="7.688689">
        <ele>523.408</ele>
        <time>2019-03-17T10:26:36Z</time>
      </trkpt>
      <trkpt lat="47.461037" lon="7.688592">
        <ele>520.66534</ele>
        <time>2019-03-17T10:26:40Z</time>
      </trkpt>
      <trkpt lat="47.46092" lon="7.6885085">
        <ele>520.8794</ele>
        <time>2019-03-17T10:26:44Z</time>
      </trkpt>
      <trkpt lat="47.460827" lon="7.688454">
        <ele>522.49115</ele>
        <time>2019-03-17T10:26:48Z</time>
      </trkpt>
      <trkpt lat="47.46073" lon="7.68832">
        <ele>523.49524</ele>
        <time>2019-03-17T10:26:54Z</time>
      </trkpt>
      <trkpt lat="47.46066" lon="7.6881604">
        <ele>524.9089</ele>
        <time>2019-03-17T10:27:00Z</time>
      </trkpt>
      <trkpt lat="47.46058" lon="7.6880193">
        <ele>526.2881</ele>
        <time>2019-03-17T10:27:06Z</time>
      </trkpt>
      <trkpt lat="47.460518" lon="7.687899">
        <ele>527.7836</ele>
        <time>2019-03-17T10:27:11Z</time>
      </trkpt>
      <trkpt lat="47.460457" lon="7.6877694">
        <ele>528.9859</ele>
        <time>2019-03-17T10:27:16Z</time>
      </trkpt>
      <trkpt lat="47.460396" lon="7.6876087">
        <ele>531.1552</ele>
        <time>2019-03-17T10:27:22Z</time>
      </trkpt>
      <trkpt lat="47.46034" lon="7.6874733">
        <ele>534.14886</ele>
        <time>2019-03-17T10:27:27Z</time>
      </trkpt>
      <trkpt lat="47.46029" lon="7.6873136">
        <ele>533.2109</ele>
        <time>2019-03-17T10:27:32Z</time>
      </trkpt>
      <trkpt lat="47.460274" lon="7.6871767">
        <ele>534.09076</ele>
        <time>2019-03-17T10:27:36Z</time>
      </trkpt>
      <trkpt lat="47.46024" lon="7.6870437">
        <ele>536.00903</ele>
        <time>2019-03-17T10:27:40Z</time>
      </trkpt>
      <trkpt lat="47.460197" lon="7.6869164">
        <ele>536.7489</ele>
        <time>2019-03-17T10:27:44Z</time>
      </trkpt>
      <trkpt lat="47.46013" lon="7.6868258">
        <ele>538.08325</ele>
        <time>2019-03-17T10:27:48Z</time>
      </trkpt>
      <trkpt lat="47.460102" lon="7.6868057">
        <ele>537.6288</ele>
        <time>2019-03-17T10:27:55Z</time>
      </trkpt>
    </trkseg>
    <trkseg>
      <trkpt lat="47.460102" lon="7.6868057">
        <ele>537.6288</ele>
        <time>2019-03-17T10:27:55Z</time>
      </trkpt>
      <trkpt lat="47.45994" lon="7.686657">
        <ele>539.7558</ele>
        <time>2019-03-17T10:28:33Z</time>
      </trkpt>
      <trkpt lat="47.45985" lon="7.6865783">
        <ele>540.16797</ele>
        <time>2019-03-17T10:28:37Z</time>
      </trkpt>
      <trkpt lat="47.459766" lon="7.686503">
        <ele>540.0491</ele>
        <time>2019-03-17T10:28:41Z</time>
      </trkpt>
      <trkpt lat="47.45968" lon="7.686424">
        <ele>540.59076</ele>
        <time>2019-03-17T10:28:45Z</time>
      </trkpt>
      <trkpt lat="47.459595" lon="7.686344">
        <ele>541.2381</ele>
        <time>2019-03-17T10:28:49Z</time>
      </trkpt>
      <trkpt lat="47.45952" lon="7.686256">
        <ele>541.00555</ele>
        <time>2019-03-17T10:28:53Z</time>
      </trkpt>
      <trkpt lat="47.45943" lon="7.686181">
        <ele>541.1218</ele>
        <time>2019-03-17T10:28:57Z</time>
      </trkpt>
      <trkpt lat="47.459347" lon="7.686111">
        <ele>541.04785</ele>
        <time>2019-03-17T10:29:03Z</time>
      </trkpt>
      <trkpt lat="47.459354" lon="7.6861196">
        <ele>541.357</ele>
        <time>2019-03-17T10:29:06Z</time>
      </trkpt>
    </trkseg>
    <trkseg>
      <trkpt lat="47.459354" lon="7.6861196">
        <ele>541.357</ele>
        <time>2019-03-17T10:29:06Z</time>
      </trkpt>
      <trkpt lat="47.45944" lon="7.6862144">
        <ele>541.25397</ele>
        <time>2019-03-17T10:29:34Z</time>
      </trkpt>
      <trkpt lat="47.45952" lon="7.6862917">
        <ele>540.98975</ele>
        <time>2019-03-17T10:29:39Z</time>
      </trkpt>
      <trkpt lat="47.4596" lon="7.686373">
        <ele>540.4613</ele>
        <time>2019-03-17T10:29:43Z</time>
      </trkpt>
      <trkpt lat="47.459682" lon="7.6864552">
        <ele>540.37933</ele>
        <time>2019-03-17T10:29:47Z</time>
      </trkpt>
      <trkpt lat="47.45977" lon="7.6865315">
        <ele>540.05963</ele>
        <time>2019-03-17T10:29:51Z</time>
      </trkpt>
      <trkpt lat="47.45985" lon="7.686595">
        <ele>539.30133</ele>
        <time>2019-03-17T10:29:55Z</time>
      </trkpt>
      <trkpt lat="47.459938" lon="7.6866703">
        <ele>538.82837</ele>
        <time>2019-03-17T10:30:00Z</time>
      </trkpt>
      <trkpt lat="47.460026" lon="7.6867404">
        <ele>538.2471</ele>
        <time>2019-03-17T10:30:05Z</time>
      </trkpt>
      <trkpt lat="47.460117" lon="7.6868343">
        <ele>537.37775</ele>
        <time>2019-03-17T10:30:10Z</time>
      </trkpt>
      <trkpt lat="47.46019" lon="7.686955">
        <ele>536.6088</ele>
        <time>2019-03-17T10:30:14Z</time>
      </trkpt>
      <trkpt lat="47.460224" lon="7.687095">
        <ele>534.8834</ele>
        <time>2019-03-17T10:30:17Z</time>
      </trkpt>
      <trkpt lat="47.46023" lon="7.687233">
        <ele>533.9507</ele>
        <time>2019-03-17T10:30:20Z</time>
      </trkpt>
      <trkpt lat="47.46025" lon="7.6873646">
        <ele>532.36536</ele>
        <time>2019-03-17T10:30:23Z</time>
      </trkpt>
      <trkpt lat="47.460293" lon="7.6875277">
        <ele>530.9755</ele>
        <time>2019-03-17T10:30:27Z</time>
      </trkpt>
      <trkpt lat="47.46038" lon="7.6876607">
        <ele>529.1312</ele>
        <time>2019-03-17T10:30:31Z</time>
      </trkpt>
      <trkpt lat="47.460457" lon="7.687813">
        <ele>527.36615</ele>
        <time>2019-03-17T10:30:34Z</time>
      </trkpt>
      <trkpt lat="47.460537" lon="7.6879635">
        <ele>526.2432</ele>
        <time>2019-03-17T10:30:37Z</time>
      </trkpt>
      <trkpt lat="47.46064" lon="7.6881495">
        <ele>524.4544</ele>
        <time>2019-03-17T10:30:40Z</time>
      </trkpt>
      <trkpt lat="47.460697" lon="7.688266">
        <ele>523.35516</ele>
        <time>2019-03-17T10:30:42Z</time>
      </trkpt>
      <trkpt lat="47.460754" lon="7.688373">
        <ele>523.19403</ele>
        <time>2019-03-17T10:30:44Z</time>
      </trkpt>
      <trkpt lat="47.460857" lon="7.688485">
        <ele>521.50824</ele>
        <time>2019-03-17T10:30:47Z</time>
      </trkpt>
      <trkpt lat="47.460938" lon="7.6885543">
        <ele>521.28894</ele>
        <time>2019-03-17T10:30:49Z</time>
      </trkpt>
      <trkpt lat="47.461033" lon="7.688619">
        <ele>521.21497</ele>
        <time>2019-03-17T10:30:51Z</time>
      </trkpt>
      <trkpt lat="47.461124" lon="7.6886983">
        <ele>521.0538</ele>
        <time>2019-03-17T10:30:53Z</time>
      </trkpt>
      <trkpt lat="47.461224" lon="7.688746">
        <ele>521.61395</ele>
        <time>2019-03-17T10:30:56Z</time>
      </trkpt>
      <trkpt lat="47.46129" lon="7.688845">
        <ele>520.594</ele>
        <time>2019-03-17T10:31:01Z</time>
      </trkpt>
      <trkpt lat="47.461227" lon="7.6890035">
        <ele>522.0367</ele>
        <time>2019-03-17T10:31:05Z</time>
      </trkpt>
      <trkpt lat="47.461147" lon="7.6892114">
        <ele>521.43427</ele>
        <time>2019-03-17T10:31:09Z</time>
      </trkpt>
      <trkpt lat="47.461063" lon="7.6894145">
        <ele>521.7434</ele>
        <time>2019-03-17T10:31:13Z</time>
      </trkpt>
      <trkpt lat="47.461" lon="7.6895995">
        <ele>521.4739</ele>
        <time>2019-03-17T10:31:17Z</time>
      </trkpt>
      <trkpt lat="47.46095" lon="7.689717">
        <ele>520.9824</ele>
        <time>2019-03-17T10:31:22Z</time>
      </trkpt>
      <trkpt lat="47.46096" lon="7.689683">
        <ele>521.0987</ele>
        <time>2019-03-17T10:31:27Z</time>
      </trkpt>
    </trkseg>
    <trkseg>
      <trkpt lat="47.46096" lon="7.689683">
        <ele>521.0987</ele>
        <time>2019-03-17T10:31:27Z</time>
      </trkpt>
      <trkpt lat="47.460903" lon="7.6899934">
        <ele>520.66534</ele>
        <time>2019-03-17T10:31:53Z</time>
      </trkpt>
      <trkpt lat="47.46081" lon="7.6901298">
        <ele>520.35095</ele>
        <time>2019-03-17T10:31:56Z</time>
      </trkpt>
      <trkpt lat="47.460735" lon="7.6902885">
        <ele>519.58997</ele>
        <time>2019-03-17T10:31:58Z</time>
      </trkpt>
      <trkpt lat="47.46067" lon="7.69042">
        <ele>519.2808</ele>
        <time>2019-03-17T10:32:00Z</time>
      </trkpt>
      <trkpt lat="47.46062" lon="7.690554">
        <ele>518.95844</ele>
        <time>2019-03-17T10:32:02Z</time>
      </trkpt>
      <trkpt lat="47.460545" lon="7.690671">
        <ele>519.00336</ele>
        <time>2019-03-17T10:32:05Z</time>
      </trkpt>
      <trkpt lat="47.46044" lon="7.6906385">
        <ele>519.1698</ele>
        <time>2019-03-17T10:32:08Z</time>
      </trkpt>
      <trkpt lat="47.460358" lon="7.6905427">
        <ele>519.4156</ele>
        <time>2019-03-17T10:32:11Z</time>
      </trkpt>
      <trkpt lat="47.46029" lon="7.6904206">
        <ele>519.6771</ele>
        <time>2019-03-17T10:32:14Z</time>
      </trkpt>
      <trkpt lat="47.46022" lon="7.690297">
        <ele>519.6481</ele>
        <time>2019-03-17T10:32:17Z</time>
      </trkpt>
      <trkpt lat="47.46017" lon="7.6901608">
        <ele>519.6428</ele>
        <time>2019-03-17T10:32:20Z</time>
      </trkpt>
      <trkpt lat="47.46016" lon="7.690005">
        <ele>519.8806</ele>
        <time>2019-03-17T10:32:24Z</time>
      </trkpt>
      <trkpt lat="47.46008" lon="7.689911">
        <ele>519.94135</ele>
        <time>2019-03-17T10:32:28Z</time>
      </trkpt>
      <trkpt lat="47.459976" lon="7.689844">
        <ele>520.18976</ele>
        <time>2019-03-17T10:32:31Z</time>
      </trkpt>
      <trkpt lat="47.459858" lon="7.689766">
        <ele>519.62695</ele>
        <time>2019-03-17T10:32:34Z</time>
      </trkpt>
      <trkpt lat="47.45973" lon="7.6896853">
        <ele>519.7802</ele>
        <time>2019-03-17T10:32:37Z</time>
      </trkpt>
      <trkpt lat="47.459625" lon="7.6895986">
        <ele>519.0166</ele>
        <time>2019-03-17T10:32:40Z</time>
      </trkpt>
      <trkpt lat="47.45952" lon="7.6895175">
        <ele>519.7326</ele>
        <time>2019-03-17T10:32:43Z</time>
      </trkpt>
      <trkpt lat="47.45941" lon="7.6894345">
        <ele>519.7802</ele>
        <time>2019-03-17T10:32:46Z</time>
      </trkpt>
      <trkpt lat="47.459335" lon="7.6893473">
        <ele>520.40906</ele>
        <time>2019-03-17T10:32:49Z</time>
      </trkpt>
      <trkpt lat="47.45925" lon="7.6892476">
        <ele>521.88873</ele>
        <time>2019-03-17T10:32:53Z</time>
      </trkpt>
      <trkpt lat="47.459206" lon="7.689098">
        <ele>522.6814</ele>
        <time>2019-03-17T10:32:57Z</time>
      </trkpt>
      <trkpt lat="47.459156" lon="7.688953">
        <ele>523.408</ele>
        <time>2019-03-17T10:33:01Z</time>
      </trkpt>
      <trkpt lat="47.45911" lon="7.6887994">
        <ele>524.62085</ele>
        <time>2019-03-17T10:33:05Z</time>
      </trkpt>
      <trkpt lat="47.459057" lon="7.6886506">
        <ele>524.2483</ele>
        <time>2019-03-17T10:33:09Z</time>
      </trkpt>
      <trkpt lat="47.459007" lon="7.6884966">
        <ele>524.1901</ele>
        <time>2019-03-17T10:33:13Z</time>
      </trkpt>
      <trkpt lat="47.458942" lon="7.6883564">
        <ele>524.23505</ele>
        <time>2019-03-17T10:33:17Z</time>
      </trkpt>
      <trkpt lat="47.4589" lon="7.6882153">
        <ele>523.61945</ele>
        <time>2019-03-17T10:33:21Z</time>
      </trkpt>
      <trkpt lat="47.458855" lon="7.688067">
        <ele>523.6934</ele>
        <time>2019-03-17T10:33:25Z</time>
      </trkpt>
      <trkpt lat="47.45881" lon="7.68793">
        <ele>523.30237</ele>
        <time>2019-03-17T10:33:28Z</time>
      </trkpt>
      <trkpt lat="47.45875" lon="7.687798">
        <ele>522.9509</ele>
        <time>2019-03-17T10:33:31Z</time>
      </trkpt>
      <trkpt lat="47.458687" lon="7.687663">
        <ele>523.4424</ele>
        <time>2019-03-17T10:33:34Z</time>
      </trkpt>
      <trkpt lat="47.458607" lon="7.6875086">
        <ele>523.05664</ele>
        <time>2019-03-17T10:33:37Z</time>
      </trkpt>
      <trkpt lat="47.458538" lon="7.687388">
        <ele>522.6682</ele>
        <time>2019-03-17T10:33:39Z</time>
      </trkpt>
      <trkpt lat="47.458485" lon="7.687276">
        <ele>521.73016</ele>
        <time>2019-03-17T10:33:41Z</time>
      </trkpt>
      <trkpt lat="47.45842" lon="7.687157">
        <ele>521.1859</ele>
        <time>2019-03-17T10:33:43Z</time>
      </trkpt>
      <trkpt lat="47.458355" lon="7.6870174">
        <ele>521.1568</ele>
        <time>2019-03-17T10:33:45Z</time>
      </trkpt>
      <trkpt lat="47.458286" lon="7.6868997">
        <ele>521.3629</ele>
        <time>2019-03-17T10:33:47Z</time>
      </trkpt>
      <trkpt lat="47.458218" lon="7.6867886">
        <ele>521.03265</ele>
        <time>2019-03-17T10:33:49Z</time>
      </trkpt>
      <trkpt lat="47.458126" lon="7.686666">
        <ele>521.3761</ele>
        <time>2019-03-17T10:33:52Z</time>
      </trkpt>
      <trkpt lat="47.458035" lon="7.6865363">
        <ele>522.4066</ele>
        <time>2019-03-17T10:33:56Z</time>
      </trkpt>
      <trkpt lat="47.45796" lon="7.686422">
        <ele>523.07513</ele>
        <time>2019-03-17T10:33:59Z</time>
      </trkpt>
      <trkpt lat="47.457863" lon="7.686308">
        <ele>523.6485</ele>
        <time>2019-03-17T10:34:02Z</time>
      </trkpt>
      <trkpt lat="47.457787" lon="7.6862006">
        <ele>524.0052</ele>
        <time>2019-03-17T10:34:05Z</time>
      </trkpt>
      <trkpt lat="47.45771" lon="7.686092">
        <ele>523.61945</ele>
        <time>2019-03-17T10:34:08Z</time>
      </trkpt>
      <trkpt lat="47.457615" lon="7.6859694">
        <ele>522.6814</ele>
        <time>2019-03-17T10:34:11Z</time>
      </trkpt>
      <trkpt lat="47.457535" lon="7.685873">
        <ele>522.6233</ele>
        <time>2019-03-17T10:34:13Z</time>
      </trkpt>
      <trkpt lat="47.457455" lon="7.6857796">
        <ele>522.59424</ele>
        <time>2019-03-17T10:34:15Z</time>
      </trkpt>
      <trkpt lat="47.45737" lon="7.685678">
        <ele>522.0182</ele>
        <time>2019-03-17T10:34:17Z</time>
      </trkpt>
      <trkpt lat="47.457287" lon="7.68558">
        <ele>521.931</ele>
        <time>2019-03-17T10:34:19Z</time>
      </trkpt>
      <trkpt lat="47.457203" lon="7.685479">
        <ele>521.20966</ele>
        <time>2019-03-17T10:34:21Z</time>
      </trkpt>
      <trkpt lat="47.457123" lon="7.685398">
        <ele>521.4739</ele>
        <time>2019-03-17T10:34:23Z</time>
      </trkpt>
      <trkpt lat="47.457047" lon="7.6853194">
        <ele>521.1859</ele>
        <time>2019-03-17T10:34:25Z</time>
      </trkpt>
      <trkpt lat="47.456963" lon="7.6852303">
        <ele>521.2731</ele>
        <time>2019-03-17T10:34:27Z</time>
      </trkpt>
      <trkpt lat="47.456856" lon="7.685119">
        <ele>521.91254</ele>
        <time>2019-03-17T10:34:30Z</time>
      </trkpt>
      <trkpt lat="47.45675" lon="7.685026">
        <ele>522.3591</ele>
        <time>2019-03-17T10:34:33Z</time>
      </trkpt>
      <trkpt lat="47.45664" lon="7.6849465">
        <ele>523.3684</ele>
        <time>2019-03-17T10:34:36Z</time>
      </trkpt>
      <trkpt lat="47.456535" lon="7.684853">
        <ele>523.1623</ele>
        <time>2019-03-17T10:34:39Z</time>
      </trkpt>
      <trkpt lat="47.456436" lon="7.6847625">
        <ele>524.10297</ele>
        <time>2019-03-17T10:34:42Z</time>
      </trkpt>
      <trkpt lat="47.45634" lon="7.684671">
        <ele>522.59424</ele>
        <time>2019-03-17T10:34:45Z</time>
      </trkpt>
      <trkpt lat="47.456238" lon="7.684554">
        <ele>523.05664</ele>
        <time>2019-03-17T10:34:48Z</time>
      </trkpt>
      <trkpt lat="47.456135" lon="7.684437">
        <ele>523.5322</ele>
        <time>2019-03-17T10:34:51Z</time>
      </trkpt>
      <trkpt lat="47.45604" lon="7.6843295">
        <ele>523.5454</ele>
        <time>2019-03-17T10:34:54Z</time>
      </trkpt>
      <trkpt lat="47.45595" lon="7.684216">
        <ele>523.65375</ele>
        <time>2019-03-17T10:34:57Z</time>
      </trkpt>
      <trkpt lat="47.45587" lon="7.6840997">
        <ele>523.65375</ele>
        <time>2019-03-17T10:35:00Z</time>
      </trkpt>
      <trkpt lat="47.45579" lon="7.6839848">
        <ele>524.2509</ele>
        <time>2019-03-17T10:35:03Z</time>
      </trkpt>
      <trkpt lat="47.45572" lon="7.683884">
        <ele>524.8851</ele>
        <time>2019-03-17T10:35:06Z</time>
      </trkpt>
      <trkpt lat="47.455658" lon="7.6837807">
        <ele>526.5576</ele>
        <time>2019-03-17T10:35:09Z</time>
      </trkpt>
      <trkpt lat="47.45561" lon="7.6836696">
        <ele>526.77167</ele>
        <time>2019-03-17T10:35:12Z</time>
      </trkpt>
      <trkpt lat="47.455547" lon="7.6835175">
        <ele>526.8588</ele>
        <time>2019-03-17T10:35:16Z</time>
      </trkpt>
      <trkpt lat="47.4555" lon="7.683397">
        <ele>527.9739</ele>
        <time>2019-03-17T10:35:19Z</time>
      </trkpt>
      <trkpt lat="47.455452" lon="7.6832714">
        <ele>528.80884</ele>
        <time>2019-03-17T10:35:22Z</time>
      </trkpt>
      <trkpt lat="47.455406" lon="7.683151">
        <ele>529.39545</ele>
        <time>2019-03-17T10:35:25Z</time>
      </trkpt>
      <trkpt lat="47.455345" lon="7.6830106">
        <ele>530.4814</ele>
        <time>2019-03-17T10:35:29Z</time>
      </trkpt>
      <trkpt lat="47.45529" lon="7.6828723">
        <ele>533.0523</ele>
        <time>2019-03-17T10:35:33Z</time>
      </trkpt>
      <trkpt lat="47.455242" lon="7.682733">
        <ele>532.5926</ele>
        <time>2019-03-17T10:35:37Z</time>
      </trkpt>
      <trkpt lat="47.455204" lon="7.682583">
        <ele>533.1528</ele>
        <time>2019-03-17T10:35:41Z</time>
      </trkpt>
      <trkpt lat="47.455166" lon="7.682417">
        <ele>533.87146</ele>
        <time>2019-03-17T10:35:45Z</time>
      </trkpt>
      <trkpt lat="47.455147" lon="7.6822753">
        <ele>533.7975</ele>
        <time>2019-03-17T10:35:48Z</time>
      </trkpt>
      <trkpt lat="47.45512" lon="7.682137">
        <ele>534.26776</ele>
        <time>2019-03-17T10:35:51Z</time>
      </trkpt>
      <trkpt lat="47.455082" lon="7.682007">
        <ele>536.13324</ele>
        <time>2019-03-17T10:35:54Z</time>
      </trkpt>
      <trkpt lat="47.455032" lon="7.6818867">
        <ele>536.79114</ele>
        <time>2019-03-17T10:35:57Z</time>
      </trkpt>
      <trkpt lat="47.45496" lon="7.6817336">
        <ele>537.29584</ele>
        <time>2019-03-17T10:36:00Z</time>
      </trkpt>
      <trkpt lat="47.4549" lon="7.681623">
        <ele>537.5706</ele>
        <time>2019-03-17T10:36:04Z</time>
      </trkpt>
      <trkpt lat="47.45486" lon="7.681542">
        <ele>537.21655</ele>
        <time>2019-03-17T10:36:11Z</time>
      </trkpt>
    </trkseg>
    <trkseg>
      <trkpt lat="47.45486" lon="7.681542">
        <ele>537.21655</ele>
        <time>2019-03-17T10:36:11Z</time>
      </trkpt>
      <trkpt lat="47.454693" lon="7.68125">
        <ele>536.8651</ele>
        <time>2019-03-17T10:37:43Z</time>
      </trkpt>
      <trkpt lat="47.45463" lon="7.681123">
        <ele>535.9562</ele>
        <time>2019-03-17T10:37:46Z</time>
      </trkpt>
      <trkpt lat="47.454567" lon="7.6809845">
        <ele>535.8082</ele>
        <time>2019-03-17T10:37:49Z</time>
      </trkpt>
      <trkpt lat="47.45449" lon="7.6808233">
        <ele>535.1027</ele>
        <time>2019-03-17T10:37:52Z</time>
      </trkpt>
      <trkpt lat="47.454422" lon="7.680671">
        <ele>534.67206</ele>
        <time>2019-03-17T10:37:55Z</time>
      </trkpt>
      <trkpt lat="47.454346" lon="7.680487">
        <ele>534.04584</ele>
        <time>2019-03-17T10:37:59Z</time>
      </trkpt>
      <trkpt lat="47.45429" lon="7.6803637">
        <ele>533.8979</ele>
        <time>2019-03-17T10:38:02Z</time>
      </trkpt>
      <trkpt lat="47.45423" lon="7.680238">
        <ele>533.07874</ele>
        <time>2019-03-17T10:38:05Z</time>
      </trkpt>
      <trkpt lat="47.454166" lon="7.6801105">
        <ele>532.53973</ele>
        <time>2019-03-17T10:38:08Z</time>
      </trkpt>
      <trkpt lat="47.454105" lon="7.6799784">
        <ele>529.19727</ele>
        <time>2019-03-17T10:38:11Z</time>
      </trkpt>
      <trkpt lat="47.454037" lon="7.6798496">
        <ele>527.5247</ele>
        <time>2019-03-17T10:38:14Z</time>
      </trkpt>
      <trkpt lat="47.454025" lon="7.679823">
        <ele>526.6792</ele>
        <time>2019-03-17T10:38:20Z</time>
      </trkpt>
    </trkseg>
    <trkseg>
      <trkpt lat="47.454025" lon="7.679823">
        <ele>526.6792</ele>
        <time>2019-03-17T10:38:20Z</time>
      </trkpt>
      <trkpt lat="47.453884" lon="7.679521">
        <ele>527.38464</ele>
        <time>2019-03-17T10:39:03Z</time>
      </trkpt>
      <trkpt lat="47.453808" lon="7.6794043">
        <ele>527.02</ele>
        <time>2019-03-17T10:39:06Z</time>
      </trkpt>
      <trkpt lat="47.45372" lon="7.6792784">
        <ele>526.8007</ele>
        <time>2019-03-17T10:39:09Z</time>
      </trkpt>
      <trkpt lat="47.45363" lon="7.6791925">
        <ele>525.8918</ele>
        <time>2019-03-17T10:39:11Z</time>
      </trkpt>
      <trkpt lat="47.453518" lon="7.67911">
        <ele>524.0871</ele>
        <time>2019-03-17T10:39:13Z</time>
      </trkpt>
      <trkpt lat="47.453415" lon="7.6790466">
        <ele>522.4462</ele>
        <time>2019-03-17T10:39:15Z</time>
      </trkpt>
      <trkpt lat="47.453316" lon="7.6789804">
        <ele>521.4395</ele>
        <time>2019-03-17T10:39:17Z</time>
      </trkpt>
      <trkpt lat="47.45322" lon="7.678913">
        <ele>520.4196</ele>
        <time>2019-03-17T10:39:19Z</time>
      </trkpt>
      <trkpt lat="47.45312" lon="7.6788516">
        <ele>519.294</ele>
        <time>2019-03-17T10:39:21Z</time>
      </trkpt>
      <trkpt lat="47.453037" lon="7.6787815">
        <ele>518.13403</ele>
        <time>2019-03-17T10:39:23Z</time>
      </trkpt>
      <trkpt lat="47.452953" lon="7.6787233">
        <ele>517.1115</ele>
        <time>2019-03-17T10:39:25Z</time>
      </trkpt>
      <trkpt lat="47.452866" lon="7.6786704">
        <ele>516.7627</ele>
        <time>2019-03-17T10:39:27Z</time>
      </trkpt>
      <trkpt lat="47.452755" lon="7.67859">
        <ele>515.1985</ele>
        <time>2019-03-17T10:39:30Z</time>
      </trkpt>
      <trkpt lat="47.452663" lon="7.678524">
        <ele>514.0385</ele>
        <time>2019-03-17T10:39:33Z</time>
      </trkpt>
      <trkpt lat="47.45258" lon="7.678456">
        <ele>513.30396</ele>
        <time>2019-03-17T10:39:36Z</time>
      </trkpt>
      <trkpt lat="47.452496" lon="7.6783843">
        <ele>512.36597</ele>
        <time>2019-03-17T10:39:39Z</time>
      </trkpt>
      <trkpt lat="47.45241" lon="7.6783137">
        <ele>511.01578</ele>
        <time>2019-03-17T10:39:42Z</time>
      </trkpt>
      <trkpt lat="47.452316" lon="7.678209">
        <ele>510.0672</ele>
        <time>2019-03-17T10:39:46Z</time>
      </trkpt>
      <trkpt lat="47.452244" lon="7.6781225">
        <ele>508.51883</ele>
        <time>2019-03-17T10:39:49Z</time>
      </trkpt>
      <trkpt lat="47.452175" lon="7.6780195">
        <ele>506.92288</ele>
        <time>2019-03-17T10:39:52Z</time>
      </trkpt>
      <trkpt lat="47.452087" lon="7.677892">
        <ele>505.9743</ele>
        <time>2019-03-17T10:39:55Z</time>
      </trkpt>
      <trkpt lat="47.451996" lon="7.677775">
        <ele>504.63995</ele>
        <time>2019-03-17T10:39:58Z</time>
      </trkpt>
      <trkpt lat="47.45191" lon="7.677659">
        <ele>504.20135</ele>
        <time>2019-03-17T10:40:01Z</time>
      </trkpt>
      <trkpt lat="47.451824" lon="7.677555">
        <ele>503.7284</ele>
        <time>2019-03-17T10:40:04Z</time>
      </trkpt>
      <trkpt lat="47.451756" lon="7.677443">
        <ele>502.0796</ele>
        <time>2019-03-17T10:40:07Z</time>
      </trkpt>
      <trkpt lat="47.4517" lon="7.677326">
        <ele>502.81152</ele>
        <time>2019-03-17T10:40:10Z</time>
      </trkpt>
      <trkpt lat="47.45164" lon="7.6772137">
        <ele>501.26843</ele>
        <time>2019-03-17T10:40:13Z</time>
      </trkpt>
      <trkpt lat="47.45158" lon="7.677099">
        <ele>500.60257</ele>
        <time>2019-03-17T10:40:16Z</time>
      </trkpt>
      <trkpt lat="47.45152" lon="7.6769853">
        <ele>499.17047</ele>
        <time>2019-03-17T10:40:19Z</time>
      </trkpt>
      <trkpt lat="47.451458" lon="7.67687">
        <ele>498.61823</ele>
        <time>2019-03-17T10:40:22Z</time>
      </trkpt>
      <trkpt lat="47.451385" lon="7.6767335">
        <ele>497.10684</ele>
        <time>2019-03-17T10:40:25Z</time>
      </trkpt>
      <trkpt lat="47.451305" lon="7.6765947">
        <ele>496.4357</ele>
        <time>2019-03-17T10:40:28Z</time>
      </trkpt>
      <trkpt lat="47.45122" lon="7.676469">
        <ele>494.8292</ele>
        <time>2019-03-17T10:40:31Z</time>
      </trkpt>
      <trkpt lat="47.451138" lon="7.676331">
        <ele>493.34952</ele>
        <time>2019-03-17T10:40:34Z</time>
      </trkpt>
      <trkpt lat="47.451057" lon="7.6761885">
        <ele>492.2847</ele>
        <time>2019-03-17T10:40:37Z</time>
      </trkpt>
      <trkpt lat="47.45098" lon="7.676036">
        <ele>491.81436</ele>
        <time>2019-03-17T10:40:40Z</time>
      </trkpt>
      <trkpt lat="47.450897" lon="7.6759043">
        <ele>490.9107</ele>
        <time>2019-03-17T10:40:43Z</time>
      </trkpt>
      <trkpt lat="47.450825" lon="7.675778">
        <ele>489.36234</ele>
        <time>2019-03-17T10:40:46Z</time>
      </trkpt>
      <trkpt lat="47.45076" lon="7.6756454">
        <ele>488.7097</ele>
        <time>2019-03-17T10:40:49Z</time>
      </trkpt>
      <trkpt lat="47.4507" lon="7.675507">
        <ele>487.9593</ele>
        <time>2019-03-17T10:40:52Z</time>
      </trkpt>
      <trkpt lat="47.45064" lon="7.6753473">
        <ele>485.82697</ele>
        <time>2019-03-17T10:40:55Z</time>
      </trkpt>
      <trkpt lat="47.45059" lon="7.675186">
        <ele>484.4345</ele>
        <time>2019-03-17T10:40:58Z</time>
      </trkpt>
      <trkpt lat="47.450516" lon="7.6749635">
        <ele>482.86234</ele>
        <time>2019-03-17T10:41:02Z</time>
      </trkpt>
      <trkpt lat="47.45046" lon="7.674801">
        <ele>480.70096</ele>
        <time>2019-03-17T10:41:05Z</time>
      </trkpt>
      <trkpt lat="47.4504" lon="7.674635">
        <ele>479.4168</ele>
        <time>2019-03-17T10:41:08Z</time>
      </trkpt>
      <trkpt lat="47.450348" lon="7.674473">
        <ele>478.45502</ele>
        <time>2019-03-17T10:41:11Z</time>
      </trkpt>
      <trkpt lat="47.450294" lon="7.674291">
        <ele>477.8103</ele>
        <time>2019-03-17T10:41:14Z</time>
      </trkpt>
      <trkpt lat="47.45025" lon="7.6741347">
        <ele>476.39404</ele>
        <time>2019-03-17T10:41:16Z</time>
      </trkpt>
      <trkpt lat="47.450207" lon="7.6739473">
        <ele>475.16803</ele>
        <time>2019-03-17T10:41:18Z</time>
      </trkpt>
      <trkpt lat="47.450157" lon="7.6737275">
        <ele>473.6963</ele>
        <time>2019-03-17T10:41:20Z</time>
      </trkpt>
      <trkpt lat="47.450115" lon="7.673494">
        <ele>473.31845</ele>
        <time>2019-03-17T10:41:22Z</time>
      </trkpt>
      <trkpt lat="47.45007" lon="7.673286">
        <ele>473.24448</ele>
        <time>2019-03-17T10:41:24Z</time>
      </trkpt>
      <trkpt lat="47.45002" lon="7.6730957">
        <ele>473.47964</ele>
        <time>2019-03-17T10:41:26Z</time>
      </trkpt>
      <trkpt lat="47.449974" lon="7.672923">
        <ele>473.71478</ele>
        <time>2019-03-17T10:41:28Z</time>
      </trkpt>
      <trkpt lat="47.449932" lon="7.672765">
        <ele>471.71988</ele>
        <time>2019-03-17T10:41:30Z</time>
      </trkpt>
      <trkpt lat="47.4499" lon="7.672607">
        <ele>471.1597</ele>
        <time>2019-03-17T10:41:32Z</time>
      </trkpt>
      <trkpt lat="47.449875" lon="7.6724353">
        <ele>470.3723</ele>
        <time>2019-03-17T10:41:34Z</time>
      </trkpt>
      <trkpt lat="47.44984" lon="7.672278">
        <ele>470.40668</ele>
        <time>2019-03-17T10:41:36Z</time>
      </trkpt>
      <trkpt lat="47.449768" lon="7.672176">
        <ele>469.1648</ele>
        <time>2019-03-17T10:41:39Z</time>
      </trkpt>
      <trkpt lat="47.449673" lon="7.6721144">
        <ele>469.17535</ele>
        <time>2019-03-17T10:41:42Z</time>
      </trkpt>
      <trkpt lat="47.449635" lon="7.6719694">
        <ele>468.76846</ele>
        <time>2019-03-17T10:41:45Z</time>
      </trkpt>
      <trkpt lat="47.449604" lon="7.6718435">
        <ele>469.3577</ele>
        <time>2019-03-17T10:41:48Z</time>
      </trkpt>
      <trkpt lat="47.449554" lon="7.671719">
        <ele>468.8134</ele>
        <time>2019-03-17T10:41:52Z</time>
      </trkpt>
      <trkpt lat="47.44946" lon="7.671702">
        <ele>467.61642</ele>
        <time>2019-03-17T10:41:56Z</time>
      </trkpt>
      <trkpt lat="47.44934" lon="7.6717987">
        <ele>467.1884</ele>
        <time>2019-03-17T10:41:59Z</time>
      </trkpt>
      <trkpt lat="47.449245" lon="7.671859">
        <ele>467.46582</ele>
        <time>2019-03-17T10:42:01Z</time>
      </trkpt>
      <trkpt lat="47.449142" lon="7.6719155">
        <ele>467.45523</ele>
        <time>2019-03-17T10:42:03Z</time>
      </trkpt>
      <trkpt lat="47.449036" lon="7.671961">
        <ele>467.58737</ele>
        <time>2019-03-17T10:42:05Z</time>
      </trkpt>
      <trkpt lat="47.448944" lon="7.6719933">
        <ele>466.66785</ele>
        <time>2019-03-17T10:42:07Z</time>
      </trkpt>
      <trkpt lat="47.448853" lon="7.672046">
        <ele>466.8898</ele>
        <time>2019-03-17T10:42:10Z</time>
      </trkpt>
      <trkpt lat="47.44877" lon="7.671975">
        <ele>466.79996</ele>
        <time>2019-03-17T10:42:16Z</time>
      </trkpt>
      <trkpt lat="47.448727" lon="7.671813">
        <ele>468.59406</ele>
        <time>2019-03-17T10:42:20Z</time>
      </trkpt>
      <trkpt lat="47.448696" lon="7.67168">
        <ele>467.88065</ele>
        <time>2019-03-17T10:42:23Z</time>
      </trkpt>
      <trkpt lat="47.448635" lon="7.6715646">
        <ele>466.9083</ele>
        <time>2019-03-17T10:42:26Z</time>
      </trkpt>
      <trkpt lat="47.44854" lon="7.6715775">
        <ele>467.19366</ele>
        <time>2019-03-17T10:42:29Z</time>
      </trkpt>
      <trkpt lat="47.44847" lon="7.6716843">
        <ele>467.76175</ele>
        <time>2019-03-17T10:42:32Z</time>
      </trkpt>
      <trkpt lat="47.448444" lon="7.6718163">
        <ele>468.23737</ele>
        <time>2019-03-17T10:42:35Z</time>
      </trkpt>
      <trkpt lat="47.44839" lon="7.6719294">
        <ele>468.67596</ele>
        <time>2019-03-17T10:42:38Z</time>
      </trkpt>
      <trkpt lat="47.44831" lon="7.672033">
        <ele>469.3788</ele>
        <time>2019-03-17T10:42:41Z</time>
      </trkpt>
      <trkpt lat="47.44821" lon="7.6721354">
        <ele>469.9337</ele>
        <time>2019-03-17T10:42:44Z</time>
      </trkpt>
      <trkpt lat="47.4481" lon="7.67222">
        <ele>471.1016</ele>
        <time>2019-03-17T10:42:47Z</time>
      </trkpt>
      <trkpt lat="47.447987" lon="7.6723065">
        <ele>471.45038</ele>
        <time>2019-03-17T10:42:50Z</time>
      </trkpt>
      <trkpt lat="47.447884" lon="7.6723976">
        <ele>472.01846</ele>
        <time>2019-03-17T10:42:53Z</time>
      </trkpt>
      <trkpt lat="47.447784" lon="7.6724796">
        <ele>472.87454</ele>
        <time>2019-03-17T10:42:57Z</time>
      </trkpt>
      <trkpt lat="47.44769" lon="7.6725707">
        <ele>472.96173</ele>
        <time>2019-03-17T10:43:01Z</time>
      </trkpt>
      <trkpt lat="47.4476" lon="7.672658">
        <ele>474.73206</ele>
        <time>2019-03-17T10:43:05Z</time>
      </trkpt>
      <trkpt lat="47.44751" lon="7.6727433">
        <ele>476.0453</ele>
        <time>2019-03-17T10:43:09Z</time>
      </trkpt>
      <trkpt lat="47.447426" lon="7.672802">
        <ele>476.65564</ele>
        <time>2019-03-17T10:43:12Z</time>
      </trkpt>
      <trkpt lat="47.44734" lon="7.6728697">
        <ele>477.49588</ele>
        <time>2019-03-17T10:43:15Z</time>
      </trkpt>
      <trkpt lat="47.447258" lon="7.6729455">
        <ele>478.76154</ele>
        <time>2019-03-17T10:43:18Z</time>
      </trkpt>
      <trkpt lat="47.447178" lon="7.6730275">
        <ele>479.9664</ele>
        <time>2019-03-17T10:43:21Z</time>
      </trkpt>
      <trkpt lat="47.447083" lon="7.673141">
        <ele>481.44608</ele>
        <time>2019-03-17T10:43:25Z</time>
      </trkpt>
      <trkpt lat="47.447018" lon="7.673247">
        <ele>481.91113</ele>
        <time>2019-03-17T10:43:28Z</time>
      </trkpt>
      <trkpt lat="47.446953" lon="7.673357">
        <ele>482.87555</ele>
        <time>2019-03-17T10:43:31Z</time>
      </trkpt>
      <trkpt lat="47.44689" lon="7.673471">
        <ele>483.30096</ele>
        <time>2019-03-17T10:43:34Z</time>
      </trkpt>
      <trkpt lat="47.446835" lon="7.6735826">
        <ele>483.73166</ele>
        <time>2019-03-17T10:43:37Z</time>
      </trkpt>
      <trkpt lat="47.446774" lon="7.6736865">
        <ele>483.95624</ele>
        <time>2019-03-17T10:43:40Z</time>
      </trkpt>
      <trkpt lat="47.44671" lon="7.6737957">
        <ele>484.26538</ele>
        <time>2019-03-17T10:43:43Z</time>
      </trkpt>
      <trkpt lat="47.44663" lon="7.673944">
        <ele>484.23898</ele>
        <time>2019-03-17T10:43:46Z</time>
      </trkpt>
      <trkpt lat="47.446552" lon="7.674083">
        <ele>484.4398</ele>
        <time>2019-03-17T10:43:49Z</time>
      </trkpt>
      <trkpt lat="47.44649" lon="7.674231">
        <ele>484.08835</ele>
        <time>2019-03-17T10:43:52Z</time>
      </trkpt>
      <trkpt lat="47.44643" lon="7.674388">
        <ele>484.3975</ele>
        <time>2019-03-17T10:43:55Z</time>
      </trkpt>
      <trkpt lat="47.446373" lon="7.674551">
        <ele>484.65643</ele>
        <time>2019-03-17T10:43:58Z</time>
      </trkpt>
      <trkpt lat="47.44629" lon="7.6747637">
        <ele>485.46762</ele>
        <time>2019-03-17T10:44:02Z</time>
      </trkpt>
      <trkpt lat="47.44622" lon="7.6749144">
        <ele>485.70807</ele>
        <time>2019-03-17T10:44:05Z</time>
      </trkpt>
      <trkpt lat="47.446156" lon="7.6750593">
        <ele>486.54303</ele>
        <time>2019-03-17T10:44:08Z</time>
      </trkpt>
      <trkpt lat="47.446095" lon="7.6751814">
        <ele>487.62372</ele>
        <time>2019-03-17T10:44:11Z</time>
      </trkpt>
      <trkpt lat="47.446037" lon="7.675297">
        <ele>487.63693</ele>
        <time>2019-03-17T10:44:14Z</time>
      </trkpt>
      <trkpt lat="47.44598" lon="7.6754107">
        <ele>487.81396</ele>
        <time>2019-03-17T10:44:17Z</time>
      </trkpt>
      <trkpt lat="47.445908" lon="7.675563">
        <ele>487.8721</ele>
        <time>2019-03-17T10:44:21Z</time>
      </trkpt>
      <trkpt lat="47.44585" lon="7.675676">
        <ele>488.2526</ele>
        <time>2019-03-17T10:44:24Z</time>
      </trkpt>
      <trkpt lat="47.44579" lon="7.6757865">
        <ele>488.41113</ele>
        <time>2019-03-17T10:44:27Z</time>
      </trkpt>
      <trkpt lat="47.44571" lon="7.6758833">
        <ele>489.14304</ele>
        <time>2019-03-17T10:44:30Z</time>
      </trkpt>
      <trkpt lat="47.445625" lon="7.675982">
        <ele>489.30685</ele>
        <time>2019-03-17T10:44:33Z</time>
      </trkpt>
      <trkpt lat="47.445538" lon="7.676073">
        <ele>489.97272</ele>
        <time>2019-03-17T10:44:36Z</time>
      </trkpt>
      <trkpt lat="47.445454" lon="7.6761727">
        <ele>490.06253</ele>
        <time>2019-03-17T10:44:39Z</time>
      </trkpt>
      <trkpt lat="47.44539" lon="7.6762805">
        <ele>490.63327</ele>
        <time>2019-03-17T10:44:42Z</time>
      </trkpt>
      <trkpt lat="47.44533" lon="7.6763926">
        <ele>491.49728</ele>
        <time>2019-03-17T10:44:45Z</time>
      </trkpt>
      <trkpt lat="47.445293" lon="7.6765566">
        <ele>492.34018</ele>
        <time>2019-03-17T10:44:49Z</time>
      </trkpt>
      <trkpt lat="47.445248" lon="7.676672">
        <ele>492.74182</ele>
        <time>2019-03-17T10:44:52Z</time>
      </trkpt>
      <trkpt lat="47.445183" lon="7.67682">
        <ele>493.1461</ele>
        <time>2019-03-17T10:44:56Z</time>
      </trkpt>
      <trkpt lat="47.445084" lon="7.676913">
        <ele>493.3363</ele>
        <time>2019-03-17T10:45:00Z</time>
      </trkpt>
      <trkpt lat="47.444977" lon="7.676951">
        <ele>494.02332</ele>
        <time>2019-03-17T10:45:04Z</time>
      </trkpt>
      <trkpt lat="47.444866" lon="7.6769505">
        <ele>494.30075</ele>
        <time>2019-03-17T10:45:08Z</time>
      </trkpt>
      <trkpt lat="47.444733" lon="7.676933">
        <ele>494.16336</ele>
        <time>2019-03-17T10:45:12Z</time>
      </trkpt>
      <trkpt lat="47.444607" lon="7.676903">
        <ele>494.1105</ele>
        <time>2019-03-17T10:45:15Z</time>
      </trkpt>
      <trkpt lat="47.44451" lon="7.6768684">
        <ele>493.8172</ele>
        <time>2019-03-17T10:45:17Z</time>
      </trkpt>
      <trkpt lat="47.444412" lon="7.6768417">
        <ele>493.62695</ele>
        <time>2019-03-17T10:45:19Z</time>
      </trkpt>
      <trkpt lat="47.44432" lon="7.676847">
        <ele>493.97046</ele>
        <time>2019-03-17T10:45:21Z</time>
      </trkpt>
      <trkpt lat="47.444233" lon="7.676887">
        <ele>493.61905</ele>
        <time>2019-03-17T10:45:23Z</time>
      </trkpt>
      <trkpt lat="47.444126" lon="7.6770167">
        <ele>493.8172</ele>
        <time>2019-03-17T10:45:26Z</time>
      </trkpt>
      <trkpt lat="47.444084" lon="7.6771464">
        <ele>493.7591</ele>
        <time>2019-03-17T10:45:27Z</time>
      </trkpt>
      <trkpt lat="47.44407" lon="7.6772823">
        <ele>494.47513</ele>
        <time>2019-03-17T10:45:29Z</time>
      </trkpt>
      <trkpt lat="47.44404" lon="7.677465">
        <ele>495.26517</ele>
        <time>2019-03-17T10:45:33Z</time>
      </trkpt>
      <trkpt lat="47.44402" lon="7.6776433">
        <ele>495.88348</ele>
        <time>2019-03-17T10:45:36Z</time>
      </trkpt>
      <trkpt lat="47.44397" lon="7.6777954">
        <ele>496.24545</ele>
        <time>2019-03-17T10:45:39Z</time>
      </trkpt>
      <trkpt lat="47.443916" lon="7.6779428">
        <ele>496.58368</ele>
        <time>2019-03-17T10:45:42Z</time>
      </trkpt>
      <trkpt lat="47.443848" lon="7.6781316">
        <ele>497.0778</ele>
        <time>2019-03-17T10:45:45Z</time>
      </trkpt>
      <trkpt lat="47.443794" lon="7.6782618">
        <ele>498.0924</ele>
        <time>2019-03-17T10:45:49Z</time>
      </trkpt>
      <trkpt lat="47.443756" lon="7.678385">
        <ele>498.39362</ele>
        <time>2019-03-17T10:45:52Z</time>
      </trkpt>
      <trkpt lat="47.44371" lon="7.6785226">
        <ele>497.38428</ele>
        <time>2019-03-17T10:45:57Z</time>
      </trkpt>
      <trkpt lat="47.443665" lon="7.678647">
        <ele>496.5361</ele>
        <time>2019-03-17T10:45:59Z</time>
      </trkpt>
      <trkpt lat="47.44361" lon="7.6787815">
        <ele>494.5782</ele>
        <time>2019-03-17T10:46:03Z</time>
      </trkpt>
      <trkpt lat="47.443542" lon="7.6789427">
        <ele>493.3654</ele>
        <time>2019-03-17T10:46:06Z</time>
      </trkpt>
      <trkpt lat="47.443478" lon="7.679039">
        <ele>491.3784</ele>
        <time>2019-03-17T10:46:12Z</time>
      </trkpt>
      <trkpt lat="47.4434" lon="7.679112">
        <ele>490.64648</ele>
        <time>2019-03-17T10:46:17Z</time>
      </trkpt>
      <trkpt lat="47.44332" lon="7.6791897">
        <ele>489.52087</ele>
        <time>2019-03-17T10:46:21Z</time>
      </trkpt>
      <trkpt lat="47.44324" lon="7.679274">
        <ele>487.53653</ele>
        <time>2019-03-17T10:46:26Z</time>
      </trkpt>
      <trkpt lat="47.443153" lon="7.6793866">
        <ele>485.37515</ele>
        <time>2019-03-17T10:46:31Z</time>
      </trkpt>
      <trkpt lat="47.44309" lon="7.679487">
        <ele>483.9087</ele>
        <time>2019-03-17T10:46:34Z</time>
      </trkpt>
      <trkpt lat="47.443016" lon="7.6796756">
        <ele>482.1542</ele>
        <time>2019-03-17T10:46:38Z</time>
      </trkpt>
      <trkpt lat="47.442963" lon="7.6798325">
        <ele>481.21356</ele>
        <time>2019-03-17T10:46:40Z</time>
      </trkpt>
      <trkpt lat="47.442913" lon="7.679975">
        <ele>480.49222</ele>
        <time>2019-03-17T10:46:43Z</time>
      </trkpt>
      <trkpt lat="47.442852" lon="7.680146">
        <ele>479.03635</ele>
        <time>2019-03-17T10:46:45Z</time>
      </trkpt>
      <trkpt lat="47.44277" lon="7.6803436">
        <ele>477.86316</ele>
        <time>2019-03-17T10:46:47Z</time>
      </trkpt>
      <trkpt lat="47.44272" lon="7.6804614">
        <ele>477.54874</ele>
        <time>2019-03-17T10:46:51Z</time>
      </trkpt>
      <trkpt lat="47.442684" lon="7.6805205">
        <ele>477.2713</ele>
        <time>2019-03-17T10:46:58Z</time>
      </trkpt>
    </trkseg>
    <trkseg>
      <trkpt lat="47.442684" lon="7.6805205">
        <ele>477.2713</ele>
        <time>2019-03-17T10:46:58Z</time>
      </trkpt>
      <trkpt lat="47.44259" lon="7.6807594">
        <ele>477.4034</ele>
        <time>2019-03-17T10:47:09Z</time>
      </trkpt>
      <trkpt lat="47.44252" lon="7.6809487">
        <ele>477.94244</ele>
        <time>2019-03-17T10:47:14Z</time>
      </trkpt>
      <trkpt lat="47.44247" lon="7.6810856">
        <ele>478.23572</ele>
        <time>2019-03-17T10:47:18Z</time>
      </trkpt>
      <trkpt lat="47.442467" lon="7.6812315">
        <ele>478.3652</ele>
        <time>2019-03-17T10:47:23Z</time>
      </trkpt>
      <trkpt lat="47.442516" lon="7.681247">
        <ele>478.29385</ele>
        <time>2019-03-17T10:47:30Z</time>
      </trkpt>
    </trkseg>
    <trkseg>
      <trkpt lat="47.442516" lon="7.681247">
        <ele>478.29385</ele>
        <time>2019-03-17T10:47:30Z</time>
      </trkpt>
      <trkpt lat="47.442593" lon="7.681675">
        <ele>474.54446</ele>
        <time>2019-03-17T10:48:48Z</time>
      </trkpt>
      <trkpt lat="47.442497" lon="7.681719">
        <ele>473.85483</ele>
        <time>2019-03-17T10:48:51Z</time>
      </trkpt>
      <trkpt lat="47.442413" lon="7.681783">
        <ele>472.83755</ele>
        <time>2019-03-17T10:48:54Z</time>
      </trkpt>
      <trkpt lat="47.442303" lon="7.681866">
        <ele>471.37903</ele>
        <time>2019-03-17T10:48:57Z</time>
      </trkpt>
      <trkpt lat="47.442196" lon="7.681926">
        <ele>470.3723</ele>
        <time>2019-03-17T10:49:00Z</time>
      </trkpt>
      <trkpt lat="47.442085" lon="7.681976">
        <ele>469.3577</ele>
        <time>2019-03-17T10:49:03Z</time>
      </trkpt>
      <trkpt lat="47.44197" lon="7.6819983">
        <ele>468.19772</ele>
        <time>2019-03-17T10:49:06Z</time>
      </trkpt>
      <trkpt lat="47.44186" lon="7.6819963">
        <ele>467.36276</ele>
        <time>2019-03-17T10:49:09Z</time>
      </trkpt>
      <trkpt lat="47.441765" lon="7.681948">
        <ele>465.26215</ele>
        <time>2019-03-17T10:49:14Z</time>
      </trkpt>
      <trkpt lat="47.44177" lon="7.6819525">
        <ele>465.31235</ele>
        <time>2019-03-17T10:49:20Z</time>
      </trkpt>
    </trkseg>
    <trkseg>
      <trkpt lat="47.44177" lon="7.6819525">
        <ele>465.31235</ele>
        <time>2019-03-17T10:49:20Z</time>
      </trkpt>
      <trkpt lat="47.441566" lon="7.681913">
        <ele>463.3386</ele>
        <time>2019-03-17T10:51:46Z</time>
      </trkpt>
      <trkpt lat="47.44147" lon="7.6819234">
        <ele>461.74792</ele>
        <time>2019-03-17T10:51:49Z</time>
      </trkpt>
      <trkpt lat="47.441387" lon="7.681995">
        <ele>462.76257</ele>
        <time>2019-03-17T10:51:52Z</time>
      </trkpt>
      <trkpt lat="47.441326" lon="7.682097">
        <ele>464.16034</ele>
        <time>2019-03-17T10:51:55Z</time>
      </trkpt>
      <trkpt lat="47.44127" lon="7.682219">
        <ele>464.74426</ele>
        <time>2019-03-17T10:51:59Z</time>
      </trkpt>
      <trkpt lat="47.441185" lon="7.6822743">
        <ele>466.34814</ele>
        <time>2019-03-17T10:52:03Z</time>
      </trkpt>
      <trkpt lat="47.441082" lon="7.6822987">
        <ele>465.17496</ele>
        <time>2019-03-17T10:52:07Z</time>
      </trkpt>
      <trkpt lat="47.440994" lon="7.682332">
        <ele>466.73126</ele>
        <time>2019-03-17T10:52:10Z</time>
      </trkpt>
      <trkpt lat="47.4409" lon="7.6823754">
        <ele>465.90952</ele>
        <time>2019-03-17T10:52:13Z</time>
      </trkpt>
      <trkpt lat="47.44081" lon="7.6824384">
        <ele>465.86725</ele>
        <time>2019-03-17T10:52:16Z</time>
      </trkpt>
      <trkpt lat="47.44073" lon="7.682516">
        <ele>466.0152</ele>
        <time>2019-03-17T10:52:19Z</time>
      </trkpt>
      <trkpt lat="47.44066" lon="7.6826553">
        <ele>464.16034</ele>
        <time>2019-03-17T10:52:23Z</time>
      </trkpt>
      <trkpt lat="47.440617" lon="7.682806">
        <ele>464.86053</ele>
        <time>2019-03-17T10:52:26Z</time>
      </trkpt>
      <trkpt lat="47.44056" lon="7.6829796">
        <ele>465.35727</ele>
        <time>2019-03-17T10:52:29Z</time>
      </trkpt>
      <trkpt lat="47.440525" lon="7.6831775">
        <ele>466.40625</ele>
        <time>2019-03-17T10:52:32Z</time>
      </trkpt>
      <trkpt lat="47.440536" lon="7.683316">
        <ele>466.6388</ele>
        <time>2019-03-17T10:52:34Z</time>
      </trkpt>
      <trkpt lat="47.440598" lon="7.6834803">
        <ele>467.20422</ele>
        <time>2019-03-17T10:52:37Z</time>
      </trkpt>
      <trkpt lat="47.440685" lon="7.6835876">
        <ele>466.72598</ele>
        <time>2019-03-17T10:52:40Z</time>
      </trkpt>
      <trkpt lat="47.44075" lon="7.683704">
        <ele>468.0524</ele>
        <time>2019-03-17T10:52:43Z</time>
      </trkpt>
      <trkpt lat="47.440765" lon="7.6838546">
        <ele>468.93756</ele>
        <time>2019-03-17T10:52:46Z</time>
      </trkpt>
      <trkpt lat="47.440758" lon="7.6839924">
        <ele>469.7144</ele>
        <time>2019-03-17T10:52:49Z</time>
      </trkpt>
      <trkpt lat="47.440735" lon="7.684154">
        <ele>471.4213</ele>
        <time>2019-03-17T10:52:53Z</time>
      </trkpt>
      <trkpt lat="47.440727" lon="7.6843147">
        <ele>472.9459</ele>
        <time>2019-03-17T10:52:57Z</time>
      </trkpt>
      <trkpt lat="47.44071" lon="7.6844697">
        <ele>475.42963</ele>
        <time>2019-03-17T10:53:02Z</time>
      </trkpt>
      <trkpt lat="47.440693" lon="7.684629">
        <ele>478.08777</ele>
        <time>2019-03-17T10:53:07Z</time>
      </trkpt>
      <trkpt lat="47.440643" lon="7.684768">
        <ele>477.2343</ele>
        <time>2019-03-17T10:53:11Z</time>
      </trkpt>
      <trkpt lat="47.44059" lon="7.6848783">
        <ele>479.25565</ele>
        <time>2019-03-17T10:53:14Z</time>
      </trkpt>
      <trkpt lat="47.44054" lon="7.684994">
        <ele>479.02313</ele>
        <time>2019-03-17T10:53:17Z</time>
      </trkpt>
      <trkpt lat="47.44049" lon="7.685126">
        <ele>479.68634</ele>
        <time>2019-03-17T10:53:20Z</time>
      </trkpt>
      <trkpt lat="47.440437" lon="7.685279">
        <ele>480.0166</ele>
        <time>2019-03-17T10:53:23Z</time>
      </trkpt>
      <trkpt lat="47.440376" lon="7.6854424">
        <ele>479.78146</ele>
        <time>2019-03-17T10:53:26Z</time>
      </trkpt>
      <trkpt lat="47.44033" lon="7.685558">
        <ele>479.68106</ele>
        <time>2019-03-17T10:53:28Z</time>
      </trkpt>
      <trkpt lat="47.44026" lon="7.6857257">
        <ele>480.71945</ele>
        <time>2019-03-17T10:53:31Z</time>
      </trkpt>
      <trkpt lat="47.440193" lon="7.685893">
        <ele>481.32983</ele>
        <time>2019-03-17T10:53:34Z</time>
      </trkpt>
      <trkpt lat="47.440125" lon="7.6860585">
        <ele>482.2784</ele>
        <time>2019-03-17T10:53:37Z</time>
      </trkpt>
      <trkpt lat="47.440063" lon="7.6862226">
        <ele>484.09894</ele>
        <time>2019-03-17T10:53:40Z</time>
      </trkpt>
      <trkpt lat="47.440113" lon="7.686401">
        <ele>485.31436</ele>
        <time>2019-03-17T10:53:43Z</time>
      </trkpt>
      <trkpt lat="47.4402" lon="7.686503">
        <ele>487.13226</ele>
        <time>2019-03-17T10:53:47Z</time>
      </trkpt>
      <trkpt lat="47.44028" lon="7.686601">
        <ele>487.69507</ele>
        <time>2019-03-17T10:53:50Z</time>
      </trkpt>
      <trkpt lat="47.440353" lon="7.6866927">
        <ele>488.7916</ele>
        <time>2019-03-17T10:53:53Z</time>
      </trkpt>
      <trkpt lat="47.440426" lon="7.6867805">
        <ele>490.33997</ele>
        <time>2019-03-17T10:53:56Z</time>
      </trkpt>
      <trkpt lat="47.44052" lon="7.686895">
        <ele>492.45908</ele>
        <time>2019-03-17T10:53:59Z</time>
      </trkpt>
      <trkpt lat="47.44059" lon="7.686984">
        <ele>493.45258</ele>
        <time>2019-03-17T10:54:02Z</time>
      </trkpt>
      <trkpt lat="47.440662" lon="7.6870775">
        <ele>494.98773</ele>
        <time>2019-03-17T10:54:06Z</time>
      </trkpt>
      <trkpt lat="47.44075" lon="7.6872163">
        <ele>495.51355</ele>
        <time>2019-03-17T10:54:09Z</time>
      </trkpt>
      <trkpt lat="47.44081" lon="7.6873193">
        <ele>495.90726</ele>
        <time>2019-03-17T10:54:13Z</time>
      </trkpt>
      <trkpt lat="47.44089" lon="7.68746">
        <ele>496.09222</ele>
        <time>2019-03-17T10:54:18Z</time>
      </trkpt>
      <trkpt lat="47.44095" lon="7.6875815">
        <ele>496.59424</ele>
        <time>2019-03-17T10:54:24Z</time>
      </trkpt>
      <trkpt lat="47.440975" lon="7.6876507">
        <ele>496.1292</ele>
        <time>2019-03-17T10:54:33Z</time>
      </trkpt>
    </trkseg>
    <trkseg>
      <trkpt lat="47.440975" lon="7.6876507">
        <ele>496.1292</ele>
        <time>2019-03-17T10:54:33Z</time>
      </trkpt>
      <trkpt lat="47.441074" lon="7.687803">
        <ele>494.79486</ele>
        <time>2019-03-17T10:55:00Z</time>
      </trkpt>
      <trkpt lat="47.441154" lon="7.6879344">
        <ele>494.2426</ele>
        <time>2019-03-17T10:55:03Z</time>
      </trkpt>
      <trkpt lat="47.441216" lon="7.6880364">
        <ele>493.10117</ele>
        <time>2019-03-17T10:55:05Z</time>
      </trkpt>
      <trkpt lat="47.44128" lon="7.688179">
        <ele>492.54892</ele>
        <time>2019-03-17T10:55:09Z</time>
      </trkpt>
      <trkpt lat="47.441353" lon="7.688311">
        <ele>492.1103</ele>
        <time>2019-03-17T10:55:13Z</time>
      </trkpt>
      <trkpt lat="47.441406" lon="7.688424">
        <ele>492.10767</ele>
        <time>2019-03-17T10:55:17Z</time>
      </trkpt>
      <trkpt lat="47.441463" lon="7.6885695">
        <ele>491.21722</ele>
        <time>2019-03-17T10:55:20Z</time>
      </trkpt>
      <trkpt lat="47.441505" lon="7.688689">
        <ele>491.11682</ele>
        <time>2019-03-17T10:55:23Z</time>
      </trkpt>
      <trkpt lat="47.441563" lon="7.6888647">
        <ele>490.0599</ele>
        <time>2019-03-17T10:55:27Z</time>
      </trkpt>
      <trkpt lat="47.44162" lon="7.689034">
        <ele>489.55258</ele>
        <time>2019-03-17T10:55:31Z</time>
      </trkpt>
      <trkpt lat="47.44168" lon="7.6891694">
        <ele>489.4654</ele>
        <time>2019-03-17T10:55:34Z</time>
      </trkpt>
      <trkpt lat="47.44175" lon="7.6893196">
        <ele>489.49182</ele>
        <time>2019-03-17T10:55:37Z</time>
      </trkpt>
      <trkpt lat="47.44181" lon="7.689444">
        <ele>488.966</ele>
        <time>2019-03-17T10:55:39Z</time>
      </trkpt>
      <trkpt lat="47.44187" lon="7.689547">
        <ele>488.2526</ele>
        <time>2019-03-17T10:55:41Z</time>
      </trkpt>
      <trkpt lat="47.441933" lon="7.68966">
        <ele>487.69507</ele>
        <time>2019-03-17T10:55:43Z</time>
      </trkpt>
      <trkpt lat="47.442" lon="7.6897745">
        <ele>487.15604</ele>
        <time>2019-03-17T10:55:45Z</time>
      </trkpt>
      <trkpt lat="47.442066" lon="7.6898737">
        <ele>486.2656</ele>
        <time>2019-03-17T10:55:47Z</time>
      </trkpt>
      <trkpt lat="47.442142" lon="7.690023">
        <ele>485.90625</ele>
        <time>2019-03-17T10:55:50Z</time>
      </trkpt>
      <trkpt lat="47.442226" lon="7.690162">
        <ele>485.02902</ele>
        <time>2019-03-17T10:55:53Z</time>
      </trkpt>
      <trkpt lat="47.44231" lon="7.690301">
        <ele>484.30768</ele>
        <time>2019-03-17T10:55:56Z</time>
      </trkpt>
      <trkpt lat="47.442387" lon="7.6904254">
        <ele>484.11743</ele>
        <time>2019-03-17T10:55:59Z</time>
      </trkpt>
      <trkpt lat="47.442448" lon="7.6905236">
        <ele>484.4345</ele>
        <time>2019-03-17T10:56:03Z</time>
      </trkpt>
      <trkpt lat="47.442516" lon="7.6906505">
        <ele>484.25748</ele>
        <time>2019-03-17T10:56:08Z</time>
      </trkpt>
      <trkpt lat="47.44258" lon="7.690796">
        <ele>484.20462</ele>
        <time>2019-03-17T10:56:13Z</time>
      </trkpt>
      <trkpt lat="47.44265" lon="7.6909156">
        <ele>483.94302</ele>
        <time>2019-03-17T10:56:17Z</time>
      </trkpt>
      <trkpt lat="47.442715" lon="7.6910267">
        <ele>483.8215</ele>
        <time>2019-03-17T10:56:21Z</time>
      </trkpt>
      <trkpt lat="47.442764" lon="7.691145">
        <ele>483.78186</ele>
        <time>2019-03-17T10:56:25Z</time>
      </trkpt>
      <trkpt lat="47.442837" lon="7.6912518">
        <ele>482.7857</ele>
        <time>2019-03-17T10:56:28Z</time>
      </trkpt>
      <trkpt lat="47.4429" lon="7.6913657">
        <ele>482.8465</ele>
        <time>2019-03-17T10:56:31Z</time>
      </trkpt>
      <trkpt lat="47.44296" lon="7.691489">
        <ele>482.3656</ele>
        <time>2019-03-17T10:56:34Z</time>
      </trkpt>
      <trkpt lat="47.44302" lon="7.691616">
        <ele>481.99832</ele>
        <time>2019-03-17T10:56:37Z</time>
      </trkpt>
      <trkpt lat="47.44308" lon="7.691734">
        <ele>481.69446</ele>
        <time>2019-03-17T10:56:40Z</time>
      </trkpt>
      <trkpt lat="47.44314" lon="7.691848">
        <ele>481.6654</ele>
        <time>2019-03-17T10:56:43Z</time>
      </trkpt>
      <trkpt lat="47.443195" lon="7.691962">
        <ele>481.454</ele>
        <time>2019-03-17T10:56:47Z</time>
      </trkpt>
      <trkpt lat="47.443245" lon="7.6920905">
        <ele>480.84628</ele>
        <time>2019-03-17T10:56:51Z</time>
      </trkpt>
      <trkpt lat="47.443314" lon="7.6922307">
        <ele>481.03653</ele>
        <time>2019-03-17T10:56:55Z</time>
      </trkpt>
      <trkpt lat="47.44339" lon="7.6923766">
        <ele>480.70096</ele>
        <time>2019-03-17T10:56:59Z</time>
      </trkpt>
      <trkpt lat="47.443462" lon="7.6925006">
        <ele>480.0166</ele>
        <time>2019-03-17T10:57:02Z</time>
      </trkpt>
      <trkpt lat="47.443558" lon="7.692663">
        <ele>479.58063</ele>
        <time>2019-03-17T10:57:06Z</time>
      </trkpt>
      <trkpt lat="47.443615" lon="7.692777">
        <ele>479.76825</ele>
        <time>2019-03-17T10:57:09Z</time>
      </trkpt>
      <trkpt lat="47.443657" lon="7.6929107">
        <ele>480.2095</ele>
        <time>2019-03-17T10:57:13Z</time>
      </trkpt>
      <trkpt lat="47.4437" lon="7.693057">
        <ele>479.89508</ele>
        <time>2019-03-17T10:57:17Z</time>
      </trkpt>
      <trkpt lat="47.443737" lon="7.693186">
        <ele>479.78146</ele>
        <time>2019-03-17T10:57:20Z</time>
      </trkpt>
      <trkpt lat="47.443813" lon="7.6932917">
        <ele>479.13937</ele>
        <time>2019-03-17T10:57:23Z</time>
      </trkpt>
      <trkpt lat="47.44389" lon="7.6934023">
        <ele>479.66785</ele>
        <time>2019-03-17T10:57:26Z</time>
      </trkpt>
      <trkpt lat="47.443974" lon="7.6935034">
        <ele>479.24243</ele>
        <time>2019-03-17T10:57:29Z</time>
      </trkpt>
      <trkpt lat="47.44405" lon="7.6936064">
        <ele>478.68756</ele>
        <time>2019-03-17T10:57:32Z</time>
      </trkpt>
      <trkpt lat="47.444134" lon="7.6937075">
        <ele>478.68756</ele>
        <time>2019-03-17T10:57:35Z</time>
      </trkpt>
      <trkpt lat="47.444206" lon="7.6938133">
        <ele>477.91336</ele>
        <time>2019-03-17T10:57:38Z</time>
      </trkpt>
      <trkpt lat="47.444283" lon="7.693911">
        <ele>478.18024</ele>
        <time>2019-03-17T10:57:41Z</time>
      </trkpt>
      <trkpt lat="47.444355" lon="7.694012">
        <ele>477.1101</ele>
        <time>2019-03-17T10:57:44Z</time>
      </trkpt>
      <trkpt lat="47.444435" lon="7.6941237">
        <ele>478.7166</ele>
        <time>2019-03-17T10:57:47Z</time>
      </trkpt>
      <trkpt lat="47.444527" lon="7.6942525">
        <ele>477.63593</ele>
        <time>2019-03-17T10:57:50Z</time>
      </trkpt>
      <trkpt lat="47.44465" lon="7.6944194">
        <ele>476.83267</ele>
        <time>2019-03-17T10:57:54Z</time>
      </trkpt>
      <trkpt lat="47.444736" lon="7.694551">
        <ele>475.8339</ele>
        <time>2019-03-17T10:57:57Z</time>
      </trkpt>
      <trkpt lat="47.444824" lon="7.694677">
        <ele>475.7837</ele>
        <time>2019-03-17T10:58:00Z</time>
      </trkpt>
      <trkpt lat="47.444912" lon="7.694794">
        <ele>474.81662</ele>
        <time>2019-03-17T10:58:03Z</time>
      </trkpt>
      <trkpt lat="47.444996" lon="7.6948915">
        <ele>474.97516</ele>
        <time>2019-03-17T10:58:06Z</time>
      </trkpt>
      <trkpt lat="47.44508" lon="7.694955">
        <ele>473.33167</ele>
        <time>2019-03-17T10:58:10Z</time>
      </trkpt>
      <trkpt lat="47.445175" lon="7.6949944">
        <ele>472.7768</ele>
        <time>2019-03-17T10:58:14Z</time>
      </trkpt>
      <trkpt lat="47.44527" lon="7.695027">
        <ele>471.82556</ele>
        <time>2019-03-17T10:58:17Z</time>
      </trkpt>
      <trkpt lat="47.445362" lon="7.6950583">
        <ele>471.1597</ele>
        <time>2019-03-17T10:58:20Z</time>
      </trkpt>
      <trkpt lat="47.445446" lon="7.695114">
        <ele>470.09222</ele>
        <time>2019-03-17T10:58:24Z</time>
      </trkpt>
      <trkpt lat="47.44552" lon="7.6952267">
        <ele>468.46194</ele>
        <time>2019-03-17T10:58:29Z</time>
      </trkpt>
      <trkpt lat="47.445587" lon="7.695319">
        <ele>467.71155</ele>
        <time>2019-03-17T10:58:33Z</time>
      </trkpt>
      <trkpt lat="47.445675" lon="7.695412">
        <ele>466.68106</ele>
        <time>2019-03-17T10:58:37Z</time>
      </trkpt>
      <trkpt lat="47.44575" lon="7.6955185">
        <ele>466.68106</ele>
        <time>2019-03-17T10:58:40Z</time>
      </trkpt>
      <trkpt lat="47.445824" lon="7.6956177">
        <ele>466.1288</ele>
        <time>2019-03-17T10:58:43Z</time>
      </trkpt>
      <trkpt lat="47.445873" lon="7.695755">
        <ele>466.46967</ele>
        <time>2019-03-17T10:58:46Z</time>
      </trkpt>
      <trkpt lat="47.44592" lon="7.6959105">
        <ele>467.1699</ele>
        <time>2019-03-17T10:58:49Z</time>
      </trkpt>
      <trkpt lat="47.445965" lon="7.6960416">
        <ele>467.01663</ele>
        <time>2019-03-17T10:58:52Z</time>
      </trkpt>
      <trkpt lat="47.446026" lon="7.6961894">
        <ele>467.06155</ele>
        <time>2019-03-17T10:58:56Z</time>
      </trkpt>
      <trkpt lat="47.44608" lon="7.6963215">
        <ele>467.19366</ele>
        <time>2019-03-17T10:58:59Z</time>
      </trkpt>
      <trkpt lat="47.446148" lon="7.696483">
        <ele>466.36398</ele>
        <time>2019-03-17T10:59:02Z</time>
      </trkpt>
      <trkpt lat="47.446205" lon="7.696652">
        <ele>466.36136</ele>
        <time>2019-03-17T10:59:05Z</time>
      </trkpt>
      <trkpt lat="47.44624" lon="7.6968236">
        <ele>466.36136</ele>
        <time>2019-03-17T10:59:08Z</time>
      </trkpt>
      <trkpt lat="47.446274" lon="7.69699">
        <ele>466.87393</ele>
        <time>2019-03-17T10:59:11Z</time>
      </trkpt>
      <trkpt lat="47.446327" lon="7.697148">
        <ele>466.6969</ele>
        <time>2019-03-17T10:59:14Z</time>
      </trkpt>
      <trkpt lat="47.4464" lon="7.6972985">
        <ele>467.7036</ele>
        <time>2019-03-17T10:59:17Z</time>
      </trkpt>
      <trkpt lat="47.44649" lon="7.6974406">
        <ele>468.69183</ele>
        <time>2019-03-17T10:59:20Z</time>
      </trkpt>
      <trkpt lat="47.446575" lon="7.6975913">
        <ele>468.91907</ele>
        <time>2019-03-17T10:59:23Z</time>
      </trkpt>
      <trkpt lat="47.446648" lon="7.6977086">
        <ele>469.00626</ele>
        <time>2019-03-17T10:59:25Z</time>
      </trkpt>
      <trkpt lat="47.446712" lon="7.6978116">
        <ele>469.55057</ele>
        <time>2019-03-17T10:59:27Z</time>
      </trkpt>
      <trkpt lat="47.446774" lon="7.6979284">
        <ele>469.09344</ele>
        <time>2019-03-17T10:59:29Z</time>
      </trkpt>
      <trkpt lat="47.446835" lon="7.6980386">
        <ele>468.49103</ele>
        <time>2019-03-17T10:59:31Z</time>
      </trkpt>
      <trkpt lat="47.446884" lon="7.698159">
        <ele>468.1845</ele>
        <time>2019-03-17T10:59:33Z</time>
      </trkpt>
      <trkpt lat="47.446938" lon="7.6982813">
        <ele>468.2136</ele>
        <time>2019-03-17T10:59:35Z</time>
      </trkpt>
      <trkpt lat="47.446987" lon="7.6984043">
        <ele>468.2849</ele>
        <time>2019-03-17T10:59:37Z</time>
      </trkpt>
      <trkpt lat="47.447033" lon="7.698529">
        <ele>467.84894</ele>
        <time>2019-03-17T10:59:39Z</time>
      </trkpt>
      <trkpt lat="47.447086" lon="7.698705">
        <ele>467.66135</ele>
        <time>2019-03-17T10:59:42Z</time>
      </trkpt>
      <trkpt lat="47.44713" lon="7.6988854">
        <ele>467.55566</ele>
        <time>2019-03-17T10:59:45Z</time>
      </trkpt>
      <trkpt lat="47.447166" lon="7.6990757">
        <ele>467.23593</ele>
        <time>2019-03-17T10:59:48Z</time>
      </trkpt>
      <trkpt lat="47.4472" lon="7.69922">
        <ele>467.06418</ele>
        <time>2019-03-17T10:59:50Z</time>
      </trkpt>
      <trkpt lat="47.447227" lon="7.69936">
        <ele>467.55566</ele>
        <time>2019-03-17T10:59:52Z</time>
      </trkpt>
      <trkpt lat="47.44726" lon="7.699504">
        <ele>467.55566</ele>
        <time>2019-03-17T10:59:55Z</time>
      </trkpt>
      <trkpt lat="47.447292" lon="7.6996512">
        <ele>467.45523</ele>
        <time>2019-03-17T10:59:56Z</time>
      </trkpt>
      <trkpt lat="47.44732" lon="7.6997933">
        <ele>467.10648</ele>
        <time>2019-03-17T10:59:58Z</time>
      </trkpt>
      <trkpt lat="47.44735" lon="7.699924">
        <ele>467.50015</ele>
        <time>2019-03-17T11:00:00Z</time>
      </trkpt>
      <trkpt lat="47.44738" lon="7.7000575">
        <ele>466.93207</ele>
        <time>2019-03-17T11:00:02Z</time>
      </trkpt>
      <trkpt lat="47.447414" lon="7.70019">
        <ele>467.32843</ele>
        <time>2019-03-17T11:00:04Z</time>
      </trkpt>
      <trkpt lat="47.44745" lon="7.700322">
        <ele>467.23593</ele>
        <time>2019-03-17T11:00:06Z</time>
      </trkpt>
      <trkpt lat="47.44748" lon="7.70045">
        <ele>467.14874</ele>
        <time>2019-03-17T11:00:08Z</time>
      </trkpt>
      <trkpt lat="47.44751" lon="7.7005844">
        <ele>467.39713</ele>
        <time>2019-03-17T11:00:10Z</time>
      </trkpt>
      <trkpt lat="47.44756" lon="7.700771">
        <ele>466.84222</ele>
        <time>2019-03-17T11:00:13Z</time>
      </trkpt>
      <trkpt lat="47.447598" lon="7.700899">
        <ele>466.74182</ele>
        <time>2019-03-17T11:00:15Z</time>
      </trkpt>
      <trkpt lat="47.447628" lon="7.7010303">
        <ele>466.43533</ele>
        <time>2019-03-17T11:00:17Z</time>
      </trkpt>
      <trkpt lat="47.447666" lon="7.701166">
        <ele>466.3904</ele>
        <time>2019-03-17T11:00:19Z</time>
      </trkpt>
      <trkpt lat="47.44771" lon="7.7013593">
        <ele>466.04163</ele>
        <time>2019-03-17T11:00:22Z</time>
      </trkpt>
      <trkpt lat="47.44775" lon="7.7015033">
        <ele>466.6097</ele>
        <time>2019-03-17T11:00:24Z</time>
      </trkpt>
      <trkpt lat="47.447784" lon="7.7016416">
        <ele>466.0839</ele>
        <time>2019-03-17T11:00:26Z</time>
      </trkpt>
      <trkpt lat="47.44782" lon="7.701778">
        <ele>466.59387</ele>
        <time>2019-03-17T11:00:28Z</time>
      </trkpt>
      <trkpt lat="47.447857" lon="7.7019258">
        <ele>466.59387</ele>
        <time>2019-03-17T11:00:30Z</time>
      </trkpt>
      <trkpt lat="47.44789" lon="7.7020764">
        <ele>466.59387</ele>
        <time>2019-03-17T11:00:32Z</time>
      </trkpt>
      <trkpt lat="47.447926" lon="7.7022243">
        <ele>467.22272</ele>
        <time>2019-03-17T11:00:34Z</time>
      </trkpt>
      <trkpt lat="47.447956" lon="7.702363">
        <ele>467.29407</ele>
        <time>2019-03-17T11:00:36Z</time>
      </trkpt>
      <trkpt lat="47.447987" lon="7.702507">
        <ele>467.3099</ele>
        <time>2019-03-17T11:00:38Z</time>
      </trkpt>
      <trkpt lat="47.448025" lon="7.7026434">
        <ele>468.47516</ele>
        <time>2019-03-17T11:00:40Z</time>
      </trkpt>
      <trkpt lat="47.448063" lon="7.7027736">
        <ele>468.76846</ele>
        <time>2019-03-17T11:00:42Z</time>
      </trkpt>
      <trkpt lat="47.448093" lon="7.702901">
        <ele>468.38797</ele>
        <time>2019-03-17T11:00:44Z</time>
      </trkpt>
      <trkpt lat="47.448128" lon="7.7030272">
        <ele>469.11725</ele>
        <time>2019-03-17T11:00:47Z</time>
      </trkpt>
      <trkpt lat="47.44817" lon="7.7031665">
        <ele>469.26257</ele>
        <time>2019-03-17T11:00:49Z</time>
      </trkpt>
      <trkpt lat="47.448196" lon="7.7033067">
        <ele>469.46072</ele>
        <time>2019-03-17T11:00:51Z</time>
      </trkpt>
      <trkpt lat="47.44824" lon="7.7034407">
        <ele>469.8465</ele>
        <time>2019-03-17T11:00:53Z</time>
      </trkpt>
      <trkpt lat="47.44827" lon="7.703575">
        <ele>470.14508</ele>
        <time>2019-03-17T11:00:55Z</time>
      </trkpt>
      <trkpt lat="47.448303" lon="7.703698">
        <ele>470.98532</ele>
        <time>2019-03-17T11:00:57Z</time>
      </trkpt>
      <trkpt lat="47.44834" lon="7.703826">
        <ele>471.27597</ele>
        <time>2019-03-17T11:00:59Z</time>
      </trkpt>
      <trkpt lat="47.44838" lon="7.7039495">
        <ele>471.69873</ele>
        <time>2019-03-17T11:01:01Z</time>
      </trkpt>
      <trkpt lat="47.448437" lon="7.7041993">
        <ele>472.28268</ele>
        <time>2019-03-17T11:01:05Z</time>
      </trkpt>
      <trkpt lat="47.44847" lon="7.704327">
        <ele>472.72128</ele>
        <time>2019-03-17T11:01:07Z</time>
      </trkpt>
      <trkpt lat="47.4485" lon="7.7044587">
        <ele>473.38187</ele>
        <time>2019-03-17T11:01:09Z</time>
      </trkpt>
      <trkpt lat="47.448532" lon="7.7045884">
        <ele>473.22333</ele>
        <time>2019-03-17T11:01:11Z</time>
      </trkpt>
      <trkpt lat="47.448566" lon="7.7047744">
        <ele>474.11905</ele>
        <time>2019-03-17T11:01:14Z</time>
      </trkpt>
      <trkpt lat="47.44861" lon="7.7049537">
        <ele>474.13492</ele>
        <time>2019-03-17T11:01:17Z</time>
      </trkpt>
      <trkpt lat="47.448647" lon="7.7051373">
        <ele>474.95667</ele>
        <time>2019-03-17T11:01:20Z</time>
      </trkpt>
      <trkpt lat="47.44869" lon="7.705257">
        <ele>476.14832</ele>
        <time>2019-03-17T11:01:22Z</time>
      </trkpt>
      <trkpt lat="47.448765" lon="7.705425">
        <ele>476.23553</ele>
        <time>2019-03-17T11:01:25Z</time>
      </trkpt>
      <trkpt lat="47.44885" lon="7.705496">
        <ele>476.5843</ele>
        <time>2019-03-17T11:01:27Z</time>
      </trkpt>
      <trkpt lat="47.44895" lon="7.7055273">
        <ele>477.16296</ele>
        <time>2019-03-17T11:01:29Z</time>
      </trkpt>
      <trkpt lat="47.44905" lon="7.7055182">
        <ele>477.4087</ele>
        <time>2019-03-17T11:01:31Z</time>
      </trkpt>
      <trkpt lat="47.449142" lon="7.705446">
        <ele>477.4087</ele>
        <time>2019-03-17T11:01:33Z</time>
      </trkpt>
      <trkpt lat="47.449215" lon="7.7053275">
        <ele>477.59366</ele>
        <time>2019-03-17T11:01:35Z</time>
      </trkpt>
      <trkpt lat="47.449265" lon="7.705204">
        <ele>477.34528</ele>
        <time>2019-03-17T11:01:37Z</time>
      </trkpt>
      <trkpt lat="47.449314" lon="7.7050767">
        <ele>477.76804</ele>
        <time>2019-03-17T11:01:39Z</time>
      </trkpt>
      <trkpt lat="47.449368" lon="7.7049685">
        <ele>478.204</ele>
        <time>2019-03-17T11:01:41Z</time>
      </trkpt>
      <trkpt lat="47.449455" lon="7.704829">
        <ele>478.04547</ele>
        <time>2019-03-17T11:01:44Z</time>
      </trkpt>
      <trkpt lat="47.449543" lon="7.704731">
        <ele>480.4209</ele>
        <time>2019-03-17T11:01:47Z</time>
      </trkpt>
      <trkpt lat="47.449642" lon="7.7047014">
        <ele>480.61377</ele>
        <time>2019-03-17T11:01:50Z</time>
      </trkpt>
      <trkpt lat="47.44976" lon="7.704707">
        <ele>481.40115</ele>
        <time>2019-03-17T11:01:54Z</time>
      </trkpt>
      <trkpt lat="47.449852" lon="7.704716">
        <ele>483.00766</ele>
        <time>2019-03-17T11:01:57Z</time>
      </trkpt>
      <trkpt lat="47.449944" lon="7.704729">
        <ele>484.3288</ele>
        <time>2019-03-17T11:02:00Z</time>
      </trkpt>
      <trkpt lat="47.450043" lon="7.7047596">
        <ele>484.78326</ele>
        <time>2019-03-17T11:02:03Z</time>
      </trkpt>
      <trkpt lat="47.450157" lon="7.704812">
        <ele>484.9656</ele>
        <time>2019-03-17T11:02:06Z</time>
      </trkpt>
      <trkpt lat="47.45024" lon="7.70486">
        <ele>485.15054</ele>
        <time>2019-03-17T11:02:08Z</time>
      </trkpt>
      <trkpt lat="47.45032" lon="7.704925">
        <ele>485.39627</ele>
        <time>2019-03-17T11:02:10Z</time>
      </trkpt>
      <trkpt lat="47.450394" lon="7.7050095">
        <ele>485.69485</ele>
        <time>2019-03-17T11:02:12Z</time>
      </trkpt>
      <trkpt lat="47.450478" lon="7.705101">
        <ele>486.35278</ele>
        <time>2019-03-17T11:02:15Z</time>
      </trkpt>
      <trkpt lat="47.45056" lon="7.705182">
        <ele>487.93814</ele>
        <time>2019-03-17T11:02:18Z</time>
      </trkpt>
      <trkpt lat="47.450645" lon="7.7052627">
        <ele>489.16415</ele>
        <time>2019-03-17T11:02:21Z</time>
      </trkpt>
      <trkpt lat="47.45074" lon="7.705359">
        <ele>489.84323</ele>
        <time>2019-03-17T11:02:24Z</time>
      </trkpt>
      <trkpt lat="47.45084" lon="7.705456">
        <ele>490.93713</ele>
        <time>2019-03-17T11:02:27Z</time>
      </trkpt>
      <trkpt lat="47.450943" lon="7.7055564">
        <ele>491.90155</ele>
        <time>2019-03-17T11:02:30Z</time>
      </trkpt>
      <trkpt lat="47.451046" lon="7.7056646">
        <ele>492.85278</ele>
        <time>2019-03-17T11:02:33Z</time>
      </trkpt>
      <trkpt lat="47.45115" lon="7.7057805">
        <ele>493.7406</ele>
        <time>2019-03-17T11:02:36Z</time>
      </trkpt>
      <trkpt lat="47.451252" lon="7.705906">
        <ele>494.79486</ele>
        <time>2019-03-17T11:02:39Z</time>
      </trkpt>
      <trkpt lat="47.45135" lon="7.706034">
        <ele>494.98773</ele>
        <time>2019-03-17T11:02:42Z</time>
      </trkpt>
      <trkpt lat="47.45145" lon="7.7061663">
        <ele>496.75806</ele>
        <time>2019-03-17T11:02:45Z</time>
      </trkpt>
      <trkpt lat="47.45155" lon="7.706296">
        <ele>496.65503</ele>
        <time>2019-03-17T11:02:48Z</time>
      </trkpt>
      <trkpt lat="47.451637" lon="7.706387">
        <ele>497.61945</ele>
        <time>2019-03-17T11:02:50Z</time>
      </trkpt>
      <trkpt lat="47.451706" lon="7.706479">
        <ele>497.4424</ele>
        <time>2019-03-17T11:02:52Z</time>
      </trkpt>
      <trkpt lat="47.451782" lon="7.706554">
        <ele>498.0237</ele>
        <time>2019-03-17T11:02:54Z</time>
      </trkpt>
      <trkpt lat="47.451855" lon="7.7066426">
        <ele>498.27737</ele>
        <time>2019-03-17T11:02:56Z</time>
      </trkpt>
      <trkpt lat="47.451923" lon="7.7067323">
        <ele>498.2615</ele>
        <time>2019-03-17T11:02:58Z</time>
      </trkpt>
      <trkpt lat="47.451996" lon="7.7068253">
        <ele>498.9353</ele>
        <time>2019-03-17T11:03:00Z</time>
      </trkpt>
      <trkpt lat="47.452072" lon="7.7069135">
        <ele>499.1837</ele>
        <time>2019-03-17T11:03:02Z</time>
      </trkpt>
      <trkpt lat="47.452145" lon="7.706999">
        <ele>499.21274</ele>
        <time>2019-03-17T11:03:04Z</time>
      </trkpt>
      <trkpt lat="47.452225" lon="7.7070737">
        <ele>500.1983</ele>
        <time>2019-03-17T11:03:06Z</time>
      </trkpt>
      <trkpt lat="47.452305" lon="7.7071557">
        <ele>500.67126</ele>
        <time>2019-03-17T11:03:08Z</time>
      </trkpt>
      <trkpt lat="47.452385" lon="7.7072372">
        <ele>501.11252</ele>
        <time>2019-03-17T11:03:10Z</time>
      </trkpt>
      <trkpt lat="47.45251" lon="7.7073607">
        <ele>501.18124</ele>
        <time>2019-03-17T11:03:12Z</time>
      </trkpt>
      <trkpt lat="47.452595" lon="7.707451">
        <ele>502.14566</ele>
        <time>2019-03-17T11:03:15Z</time>
      </trkpt>
      <trkpt lat="47.452675" lon="7.707524">
        <ele>502.63977</ele>
        <time>2019-03-17T11:03:17Z</time>
      </trkpt>
      <trkpt lat="47.452747" lon="7.7076044">
        <ele>504.76416</ele>
        <time>2019-03-17T11:03:19Z</time>
      </trkpt>
      <trkpt lat="47.45283" lon="7.707687">
        <ele>503.48</ele>
        <time>2019-03-17T11:03:21Z</time>
      </trkpt>
      <trkpt lat="47.45294" lon="7.707803">
        <ele>503.82086</ele>
        <time>2019-03-17T11:03:23Z</time>
      </trkpt>
      <trkpt lat="47.45302" lon="7.7078967">
        <ele>503.23428</ele>
        <time>2019-03-17T11:03:26Z</time>
      </trkpt>
      <trkpt lat="47.453117" lon="7.7080326">
        <ele>504.25418</ele>
        <time>2019-03-17T11:03:28Z</time>
      </trkpt>
      <trkpt lat="47.453197" lon="7.7081137">
        <ele>504.2727</ele>
        <time>2019-03-17T11:03:31Z</time>
      </trkpt>
      <trkpt lat="47.453266" lon="7.708203">
        <ele>504.40482</ele>
        <time>2019-03-17T11:03:33Z</time>
      </trkpt>
      <trkpt lat="47.453354" lon="7.70835">
        <ele>504.21985</ele>
        <time>2019-03-17T11:03:35Z</time>
      </trkpt>
      <trkpt lat="47.45342" lon="7.708449">
        <ele>505.32697</ele>
        <time>2019-03-17T11:03:38Z</time>
      </trkpt>
      <trkpt lat="47.453487" lon="7.708553">
        <ele>505.0918</ele>
        <time>2019-03-17T11:03:40Z</time>
      </trkpt>
      <trkpt lat="47.453568" lon="7.708702">
        <ele>505.28998</ele>
        <time>2019-03-17T11:03:42Z</time>
      </trkpt>
      <trkpt lat="47.45363" lon="7.7088103">
        <ele>505.5172</ele>
        <time>2019-03-17T11:03:45Z</time>
      </trkpt>
      <trkpt lat="47.453724" lon="7.7089624">
        <ele>507.38</ele>
        <time>2019-03-17T11:03:48Z</time>
      </trkpt>
      <trkpt lat="47.4538" lon="7.709066">
        <ele>508.80154</ele>
        <time>2019-03-17T11:03:50Z</time>
      </trkpt>
      <trkpt lat="47.453865" lon="7.709175">
        <ele>508.41577</ele>
        <time>2019-03-17T11:03:51Z</time>
      </trkpt>
      <trkpt lat="47.453938" lon="7.7092805">
        <ele>508.00623</ele>
        <time>2019-03-17T11:03:54Z</time>
      </trkpt>
      <trkpt lat="47.454014" lon="7.709384">
        <ele>507.5808</ele>
        <time>2019-03-17T11:03:56Z</time>
      </trkpt>
      <trkpt lat="47.45413" lon="7.7095346">
        <ele>508.3127</ele>
        <time>2019-03-17T11:03:58Z</time>
      </trkpt>
      <trkpt lat="47.454212" lon="7.7096367">
        <ele>508.0934</ele>
        <time>2019-03-17T11:04:00Z</time>
      </trkpt>
      <trkpt lat="47.454296" lon="7.7097387">
        <ele>508.59018</ele>
        <time>2019-03-17T11:04:03Z</time>
      </trkpt>
      <trkpt lat="47.454384" lon="7.7098436">
        <ele>508.83853</ele>
        <time>2019-03-17T11:04:05Z</time>
      </trkpt>
      <trkpt lat="47.454506" lon="7.7099814">
        <ele>508.88345</ele>
        <time>2019-03-17T11:04:07Z</time>
      </trkpt>
      <trkpt lat="47.454628" lon="7.710102">
        <ele>509.18997</ele>
        <time>2019-03-17T11:04:10Z</time>
      </trkpt>
      <trkpt lat="47.454704" lon="7.7101736">
        <ele>509.73163</ele>
        <time>2019-03-17T11:04:12Z</time>
      </trkpt>
      <trkpt lat="47.4548" lon="7.710242">
        <ele>510.15704</ele>
        <time>2019-03-17T11:04:14Z</time>
      </trkpt>
      <trkpt lat="47.45489" lon="7.710291">
        <ele>510.75156</ele>
        <time>2019-03-17T11:04:16Z</time>
      </trkpt>
      <trkpt lat="47.45499" lon="7.7103148">
        <ele>510.9101</ele>
        <time>2019-03-17T11:04:18Z</time>
      </trkpt>
      <trkpt lat="47.455097" lon="7.7103076">
        <ele>510.96292</ele>
        <time>2019-03-17T11:04:20Z</time>
      </trkpt>
      <trkpt lat="47.455204" lon="7.7102666">
        <ele>510.6802</ele>
        <time>2019-03-17T11:04:22Z</time>
      </trkpt>
      <trkpt lat="47.455357" lon="7.7101765">
        <ele>511.243</ele>
        <time>2019-03-17T11:04:25Z</time>
      </trkpt>
      <trkpt lat="47.455463" lon="7.7101164">
        <ele>510.59302</ele>
        <time>2019-03-17T11:04:27Z</time>
      </trkpt>
      <trkpt lat="47.455612" lon="7.7100415">
        <ele>511.82697</ele>
        <time>2019-03-17T11:04:30Z</time>
      </trkpt>
      <trkpt lat="47.455715" lon="7.7100053">
        <ele>512.42676</ele>
        <time>2019-03-17T11:04:32Z</time>
      </trkpt>
      <trkpt lat="47.45581" lon="7.709972">
        <ele>513.2617</ele>
        <time>2019-03-17T11:04:35Z</time>
      </trkpt>
      <trkpt lat="47.455906" lon="7.709946">
        <ele>513.24585</ele>
        <time>2019-03-17T11:04:36Z</time>
      </trkpt>
      <trkpt lat="47.455997" lon="7.709958">
        <ele>514.1601</ele>
        <time>2019-03-17T11:04:38Z</time>
      </trkpt>
      <trkpt lat="47.456085" lon="7.7101064">
        <ele>514.2578</ele>
        <time>2019-03-17T11:04:41Z</time>
      </trkpt>
      <trkpt lat="47.456146" lon="7.710223">
        <ele>513.9778</ele>
        <time>2019-03-17T11:04:43Z</time>
      </trkpt>
      <trkpt lat="47.456223" lon="7.7104025">
        <ele>513.90643</ele>
        <time>2019-03-17T11:04:46Z</time>
      </trkpt>
      <trkpt lat="47.456326" lon="7.7106113">
        <ele>514.5934</ele>
        <time>2019-03-17T11:04:50Z</time>
      </trkpt>
      <trkpt lat="47.45639" lon="7.710751">
        <ele>512.9975</ele>
        <time>2019-03-17T11:04:53Z</time>
      </trkpt>
      <trkpt lat="47.456463" lon="7.7109094">
        <ele>512.3316</ele>
        <time>2019-03-17T11:04:56Z</time>
      </trkpt>
      <trkpt lat="47.456516" lon="7.7110195">
        <ele>512.1044</ele>
        <time>2019-03-17T11:04:58Z</time>
      </trkpt>
      <trkpt lat="47.456596" lon="7.711181">
        <ele>511.69482</ele>
        <time>2019-03-17T11:05:01Z</time>
      </trkpt>
      <trkpt lat="47.45669" lon="7.7113495">
        <ele>510.87308</ele>
        <time>2019-03-17T11:05:04Z</time>
      </trkpt>
      <trkpt lat="47.456753" lon="7.711473">
        <ele>510.49524</ele>
        <time>2019-03-17T11:05:06Z</time>
      </trkpt>
      <trkpt lat="47.45681" lon="7.7116017">
        <ele>510.49524</ele>
        <time>2019-03-17T11:05:08Z</time>
      </trkpt>
      <trkpt lat="47.456867" lon="7.71172">
        <ele>510.31293</ele>
        <time>2019-03-17T11:05:10Z</time>
      </trkpt>
      <trkpt lat="47.45692" lon="7.71184">
        <ele>510.10153</ele>
        <time>2019-03-17T11:05:12Z</time>
      </trkpt>
      <trkpt lat="47.456978" lon="7.7119617">
        <ele>510.18875</ele>
        <time>2019-03-17T11:05:14Z</time>
      </trkpt>
      <trkpt lat="47.457035" lon="7.712088">
        <ele>510.19138</ele>
        <time>2019-03-17T11:05:16Z</time>
      </trkpt>
      <trkpt lat="47.45709" lon="7.7121987">
        <ele>510.28915</ele>
        <time>2019-03-17T11:05:18Z</time>
      </trkpt>
      <trkpt lat="47.457138" lon="7.712318">
        <ele>510.24686</ele>
        <time>2019-03-17T11:05:20Z</time>
      </trkpt>
      <trkpt lat="47.457195" lon="7.712436">
        <ele>510.23102</ele>
        <time>2019-03-17T11:05:22Z</time>
      </trkpt>
      <trkpt lat="47.457256" lon="7.7126007">
        <ele>510.47147</ele>
        <time>2019-03-17T11:05:25Z</time>
      </trkpt>
      <trkpt lat="47.457333" lon="7.7127066">
        <ele>510.9048</ele>
        <time>2019-03-17T11:05:27Z</time>
      </trkpt>
      <trkpt lat="47.457394" lon="7.7128415">
        <ele>510.75684</ele>
        <time>2019-03-17T11:05:29Z</time>
      </trkpt>
      <trkpt lat="47.457436" lon="7.712961">
        <ele>510.6987</ele>
        <time>2019-03-17T11:05:31Z</time>
      </trkpt>
      <trkpt lat="47.457504" lon="7.7131104">
        <ele>511.98285</ele>
        <time>2019-03-17T11:05:34Z</time>
      </trkpt>
      <trkpt lat="47.457584" lon="7.713255">
        <ele>513.1243</ele>
        <time>2019-03-17T11:05:37Z</time>
      </trkpt>
      <trkpt lat="47.45764" lon="7.713372">
        <ele>512.3977</ele>
        <time>2019-03-17T11:05:40Z</time>
      </trkpt>
      <trkpt lat="47.4577" lon="7.7134876">
        <ele>513.5629</ele>
        <time>2019-03-17T11:05:43Z</time>
      </trkpt>
      <trkpt lat="47.457756" lon="7.7136035">
        <ele>514.12573</ele>
        <time>2019-03-17T11:05:46Z</time>
      </trkpt>
      <trkpt lat="47.457832" lon="7.7137494">
        <ele>513.6158</ele>
        <time>2019-03-17T11:05:50Z</time>
      </trkpt>
      <trkpt lat="47.457886" lon="7.7138786">
        <ele>514.02</ele>
        <time>2019-03-17T11:05:53Z</time>
      </trkpt>
      <trkpt lat="47.45794" lon="7.7140107">
        <ele>514.3001</ele>
        <time>2019-03-17T11:05:56Z</time>
      </trkpt>
      <trkpt lat="47.458" lon="7.714146">
        <ele>514.24725</ele>
        <time>2019-03-17T11:05:59Z</time>
      </trkpt>
      <trkpt lat="47.458057" lon="7.7142835">
        <ele>514.3371</ele>
        <time>2019-03-17T11:06:02Z</time>
      </trkpt>
      <trkpt lat="47.458103" lon="7.714428">
        <ele>514.65155</ele>
        <time>2019-03-17T11:06:05Z</time>
      </trkpt>
      <trkpt lat="47.458145" lon="7.7145715">
        <ele>514.54584</ele>
        <time>2019-03-17T11:06:08Z</time>
      </trkpt>
      <trkpt lat="47.458187" lon="7.7147183">
        <ele>514.6013</ele>
        <time>2019-03-17T11:06:11Z</time>
      </trkpt>
      <trkpt lat="47.458244" lon="7.7148647">
        <ele>515.0188</ele>
        <time>2019-03-17T11:06:14Z</time>
      </trkpt>
      <trkpt lat="47.458313" lon="7.7150083">
        <ele>515.0743</ele>
        <time>2019-03-17T11:06:17Z</time>
      </trkpt>
      <trkpt lat="47.45836" lon="7.715133">
        <ele>515.1615</ele>
        <time>2019-03-17T11:06:20Z</time>
      </trkpt>
      <trkpt lat="47.45841" lon="7.7152567">
        <ele>515.2381</ele>
        <time>2019-03-17T11:06:23Z</time>
      </trkpt>
      <trkpt lat="47.458492" lon="7.7153344">
        <ele>516.3928</ele>
        <time>2019-03-17T11:06:26Z</time>
      </trkpt>
      <trkpt lat="47.458553" lon="7.715487">
        <ele>516.1048</ele>
        <time>2019-03-17T11:06:31Z</time>
      </trkpt>
      <trkpt lat="47.45854" lon="7.71563">
        <ele>516.0018</ele>
        <time>2019-03-17T11:06:34Z</time>
      </trkpt>
      <trkpt lat="47.458553" lon="7.7157784">
        <ele>516.11273</ele>
        <time>2019-03-17T11:06:37Z</time>
      </trkpt>
      <trkpt lat="47.458588" lon="7.715926">
        <ele>516.0018</ele>
        <time>2019-03-17T11:06:40Z</time>
      </trkpt>
      <trkpt lat="47.45862" lon="7.716078">
        <ele>515.83795</ele>
        <time>2019-03-17T11:06:43Z</time>
      </trkpt>
      <trkpt lat="47.45866" lon="7.7162333">
        <ele>516.4694</ele>
        <time>2019-03-17T11:06:46Z</time>
      </trkpt>
      <trkpt lat="47.458687" lon="7.7163954">
        <ele>516.55133</ele>
        <time>2019-03-17T11:06:49Z</time>
      </trkpt>
      <trkpt lat="47.458717" lon="7.7165604">
        <ele>516.17615</ele>
        <time>2019-03-17T11:06:52Z</time>
      </trkpt>
      <trkpt lat="47.458755" lon="7.716729">
        <ele>516.3082</ele>
        <time>2019-03-17T11:06:55Z</time>
      </trkpt>
      <trkpt lat="47.4588" lon="7.716944">
        <ele>516.3796</ele>
        <time>2019-03-17T11:06:59Z</time>
      </trkpt>
      <trkpt lat="47.458836" lon="7.717101">
        <ele>517.48145</ele>
        <time>2019-03-17T11:07:03Z</time>
      </trkpt>
      <trkpt lat="47.45888" lon="7.7172527">
        <ele>517.59766</ele>
        <time>2019-03-17T11:07:06Z</time>
      </trkpt>
      <trkpt lat="47.458923" lon="7.717405">
        <ele>517.2304</ele>
        <time>2019-03-17T11:07:09Z</time>
      </trkpt>
      <trkpt lat="47.45897" lon="7.717537">
        <ele>517.8328</ele>
        <time>2019-03-17T11:07:12Z</time>
      </trkpt>
      <trkpt lat="47.459015" lon="7.717675">
        <ele>517.8302</ele>
        <time>2019-03-17T11:07:15Z</time>
      </trkpt>
      <trkpt lat="47.45906" lon="7.717805">
        <ele>518.3137</ele>
        <time>2019-03-17T11:07:18Z</time>
      </trkpt>
      <trkpt lat="47.459106" lon="7.717925">
        <ele>517.93854</ele>
        <time>2019-03-17T11:07:21Z</time>
      </trkpt>
      <trkpt lat="47.45914" lon="7.718056">
        <ele>518.40094</ele>
        <time>2019-03-17T11:07:24Z</time>
      </trkpt>
      <trkpt lat="47.459167" lon="7.7181873">
        <ele>518.0944</ele>
        <time>2019-03-17T11:07:27Z</time>
      </trkpt>
      <trkpt lat="47.4592" lon="7.7183547">
        <ele>518.1684</ele>
        <time>2019-03-17T11:07:31Z</time>
      </trkpt>
      <trkpt lat="47.459236" lon="7.71852">
        <ele>517.9914</ele>
        <time>2019-03-17T11:07:35Z</time>
      </trkpt>
      <trkpt lat="47.459267" lon="7.718645">
        <ele>517.81433</ele>
        <time>2019-03-17T11:07:38Z</time>
      </trkpt>
      <trkpt lat="47.459286" lon="7.718779">
        <ele>516.8499</ele>
        <time>2019-03-17T11:07:41Z</time>
      </trkpt>
      <trkpt lat="47.459297" lon="7.718956">
        <ele>516.51434</ele>
        <time>2019-03-17T11:07:44Z</time>
      </trkpt>
      <trkpt lat="47.459297" lon="7.7191157">
        <ele>515.8485</ele>
        <time>2019-03-17T11:07:46Z</time>
      </trkpt>
      <trkpt lat="47.4593" lon="7.719271">
        <ele>515.10864</ele>
        <time>2019-03-17T11:07:48Z</time>
      </trkpt>
      <trkpt lat="47.45929" lon="7.7194223">
        <ele>514.1601</ele>
        <time>2019-03-17T11:07:50Z</time>
      </trkpt>
      <trkpt lat="47.459274" lon="7.7195864">
        <ele>513.4572</ele>
        <time>2019-03-17T11:07:52Z</time>
      </trkpt>
      <trkpt lat="47.459248" lon="7.719746">
        <ele>513.1137</ele>
        <time>2019-03-17T11:07:54Z</time>
      </trkpt>
      <trkpt lat="47.459225" lon="7.719945">
        <ele>512.4373</ele>
        <time>2019-03-17T11:07:57Z</time>
      </trkpt>
      <trkpt lat="47.459236" lon="7.7200837">
        <ele>512.80725</ele>
        <time>2019-03-17T11:07:59Z</time>
      </trkpt>
      <trkpt lat="47.45933" lon="7.720212">
        <ele>513.33307</ele>
        <time>2019-03-17T11:08:02Z</time>
      </trkpt>
      <trkpt lat="47.45944" lon="7.720294">
        <ele>514.1416</ele>
        <time>2019-03-17T11:08:05Z</time>
      </trkpt>
      <trkpt lat="47.459534" lon="7.720357">
        <ele>515.10864</ele>
        <time>2019-03-17T11:08:08Z</time>
      </trkpt>
      <trkpt lat="47.45962" lon="7.720416">
        <ele>515.8828</ele>
        <time>2019-03-17T11:08:11Z</time>
      </trkpt>
      <trkpt lat="47.45971" lon="7.7204657">
        <ele>516.35315</ele>
        <time>2019-03-17T11:08:14Z</time>
      </trkpt>
      <trkpt lat="47.459793" lon="7.720516">
        <ele>517.11414</ele>
        <time>2019-03-17T11:08:17Z</time>
      </trkpt>
      <trkpt lat="47.4599" lon="7.720589">
        <ele>518.4749</ele>
        <time>2019-03-17T11:08:21Z</time>
      </trkpt>
      <trkpt lat="47.460007" lon="7.7206626">
        <ele>518.8131</ele>
        <time>2019-03-17T11:08:25Z</time>
      </trkpt>
      <trkpt lat="47.460114" lon="7.7207174">
        <ele>519.78546</ele>
        <time>2019-03-17T11:08:29Z</time>
      </trkpt>
      <trkpt lat="47.460213" lon="7.720797">
        <ele>520.8582</ele>
        <time>2019-03-17T11:08:33Z</time>
      </trkpt>
      <trkpt lat="47.46032" lon="7.720843">
        <ele>521.4633</ele>
        <time>2019-03-17T11:08:37Z</time>
      </trkpt>
      <trkpt lat="47.460423" lon="7.720895">
        <ele>523.3103</ele>
        <time>2019-03-17T11:08:41Z</time>
      </trkpt>
      <trkpt lat="47.46051" lon="7.7209363">
        <ele>524.0052</ele>
        <time>2019-03-17T11:08:44Z</time>
      </trkpt>
      <trkpt lat="47.46062" lon="7.720992">
        <ele>524.8375</ele>
        <time>2019-03-17T11:08:48Z</time>
      </trkpt>
      <trkpt lat="47.460724" lon="7.721044">
        <ele>526.2881</ele>
        <time>2019-03-17T11:08:52Z</time>
      </trkpt>
      <trkpt lat="47.460815" lon="7.7210755">
        <ele>526.3304</ele>
        <time>2019-03-17T11:08:55Z</time>
      </trkpt>
      <trkpt lat="47.46092" lon="7.7211146">
        <ele>526.9962</ele>
        <time>2019-03-17T11:08:58Z</time>
      </trkpt>
      <trkpt lat="47.46102" lon="7.7211437">
        <ele>527.6357</ele>
        <time>2019-03-17T11:09:01Z</time>
      </trkpt>
      <trkpt lat="47.46112" lon="7.7211747">
        <ele>528.15094</ele>
        <time>2019-03-17T11:09:04Z</time>
      </trkpt>
      <trkpt lat="47.461224" lon="7.721199">
        <ele>529.2316</ele>
        <time>2019-03-17T11:09:07Z</time>
      </trkpt>
      <trkpt lat="47.461327" lon="7.721218">
        <ele>529.6464</ele>
        <time>2019-03-17T11:09:10Z</time>
      </trkpt>
      <trkpt lat="47.46143" lon="7.721231">
        <ele>530.32025</ele>
        <time>2019-03-17T11:09:13Z</time>
      </trkpt>
      <trkpt lat="47.461536" lon="7.7212315">
        <ele>530.1115</ele>
        <time>2019-03-17T11:09:16Z</time>
      </trkpt>
      <trkpt lat="47.461643" lon="7.721211">
        <ele>530.3942</ele>
        <time>2019-03-17T11:09:19Z</time>
      </trkpt>
      <trkpt lat="47.461746" lon="7.7211595">
        <ele>530.27</ele>
        <time>2019-03-17T11:09:23Z</time>
      </trkpt>
      <trkpt lat="47.46185" lon="7.721097">
        <ele>530.3414</ele>
        <time>2019-03-17T11:09:27Z</time>
      </trkpt>
      <trkpt lat="47.461933" lon="7.7210197">
        <ele>529.02814</ele>
        <time>2019-03-17T11:09:30Z</time>
      </trkpt>
      <trkpt lat="47.461998" lon="7.7209263">
        <ele>529.2686</ele>
        <time>2019-03-17T11:09:32Z</time>
      </trkpt>
      <trkpt lat="47.46209" lon="7.7207885">
        <ele>529.05457</ele>
        <time>2019-03-17T11:09:34Z</time>
      </trkpt>
      <trkpt lat="47.462154" lon="7.7206817">
        <ele>529.1629</ele>
        <time>2019-03-17T11:09:36Z</time>
      </trkpt>
      <trkpt lat="47.462223" lon="7.7205596">
        <ele>528.6027</ele>
        <time>2019-03-17T11:09:38Z</time>
      </trkpt>
      <trkpt lat="47.46229" lon="7.7204432">
        <ele>527.62244</ele>
        <time>2019-03-17T11:09:40Z</time>
      </trkpt>
      <trkpt lat="47.46238" lon="7.720327">
        <ele>526.92755</ele>
        <time>2019-03-17T11:09:43Z</time>
      </trkpt>
      <trkpt lat="47.462494" lon="7.720314">
        <ele>525.7174</ele>
        <time>2019-03-17T11:09:47Z</time>
      </trkpt>
      <trkpt lat="47.46259" lon="7.7204227">
        <ele>525.34216</ele>
        <time>2019-03-17T11:09:50Z</time>
      </trkpt>
      <trkpt lat="47.462635" lon="7.72055">
        <ele>524.17694</ele>
        <time>2019-03-17T11:09:53Z</time>
      </trkpt>
      <trkpt lat="47.4627" lon="7.720671">
        <ele>524.0739</ele>
        <time>2019-03-17T11:09:56Z</time>
      </trkpt>
      <trkpt lat="47.462826" lon="7.7207947">
        <ele>523.5322</ele>
        <time>2019-03-17T11:09:59Z</time>
      </trkpt>
      <trkpt lat="47.462902" lon="7.7208896">
        <ele>523.17816</ele>
        <time>2019-03-17T11:10:01Z</time>
      </trkpt>
      <trkpt lat="47.462997" lon="7.7210097">
        <ele>521.4025</ele>
        <time>2019-03-17T11:10:03Z</time>
      </trkpt>
      <trkpt lat="47.463093" lon="7.7211456">
        <ele>521.73016</ele>
        <time>2019-03-17T11:10:05Z</time>
      </trkpt>
      <trkpt lat="47.463207" lon="7.721281">
        <ele>521.3048</ele>
        <time>2019-03-17T11:10:07Z</time>
      </trkpt>
      <trkpt lat="47.46332" lon="7.7214303">
        <ele>521.3761</ele>
        <time>2019-03-17T11:10:09Z</time>
      </trkpt>
      <trkpt lat="47.463444" lon="7.721573">
        <ele>520.99567</ele>
        <time>2019-03-17T11:10:11Z</time>
      </trkpt>
      <trkpt lat="47.46356" lon="7.721711">
        <ele>519.796</ele>
        <time>2019-03-17T11:10:13Z</time>
      </trkpt>
      <trkpt lat="47.463657" lon="7.721811">
        <ele>518.95844</ele>
        <time>2019-03-17T11:10:15Z</time>
      </trkpt>
      <trkpt lat="47.463757" lon="7.721928">
        <ele>518.32697</ele>
        <time>2019-03-17T11:10:17Z</time>
      </trkpt>
      <trkpt lat="47.463863" lon="7.7220516">
        <ele>518.3428</ele>
        <time>2019-03-17T11:10:19Z</time>
      </trkpt>
      <trkpt lat="47.463963" lon="7.722182">
        <ele>517.04016</ele>
        <time>2019-03-17T11:10:21Z</time>
      </trkpt>
      <trkpt lat="47.464073" lon="7.7223163">
        <ele>516.99524</ele>
        <time>2019-03-17T11:10:23Z</time>
      </trkpt>
      <trkpt lat="47.464184" lon="7.7224364">
        <ele>516.61475</ele>
        <time>2019-03-17T11:10:25Z</time>
      </trkpt>
      <trkpt lat="47.464294" lon="7.7225704">
        <ele>516.4245</ele>
        <time>2019-03-17T11:10:27Z</time>
      </trkpt>
      <trkpt lat="47.46441" lon="7.722712">
        <ele>516.044</ele>
        <time>2019-03-17T11:10:29Z</time>
      </trkpt>
      <trkpt lat="47.464535" lon="7.7228627">
        <ele>515.8643</ele>
        <time>2019-03-17T11:10:31Z</time>
      </trkpt>
      <trkpt lat="47.46465" lon="7.72301">
        <ele>515.143</ele>
        <time>2019-03-17T11:10:33Z</time>
      </trkpt>
      <trkpt lat="47.464775" lon="7.723155">
        <ele>515.2487</ele>
        <time>2019-03-17T11:10:35Z</time>
      </trkpt>
      <trkpt lat="47.464893" lon="7.7233">
        <ele>514.8629</ele>
        <time>2019-03-17T11:10:37Z</time>
      </trkpt>
      <trkpt lat="47.465023" lon="7.72346">
        <ele>514.43225</ele>
        <time>2019-03-17T11:10:39Z</time>
      </trkpt>
      <trkpt lat="47.465145" lon="7.72362">
        <ele>514.0227</ele>
        <time>2019-03-17T11:10:41Z</time>
      </trkpt>
      <trkpt lat="47.465267" lon="7.7237797">
        <ele>513.9196</ele>
        <time>2019-03-17T11:10:43Z</time>
      </trkpt>
      <trkpt lat="47.465397" lon="7.7239256">
        <ele>514.242</ele>
        <time>2019-03-17T11:10:45Z</time>
      </trkpt>
      <trkpt lat="47.465523" lon="7.724064">
        <ele>513.1005</ele>
        <time>2019-03-17T11:10:47Z</time>
      </trkpt>
      <trkpt lat="47.465652" lon="7.72419">
        <ele>512.3501</ele>
        <time>2019-03-17T11:10:49Z</time>
      </trkpt>
      <trkpt lat="47.465794" lon="7.7243123">
        <ele>511.13733</ele>
        <time>2019-03-17T11:10:51Z</time>
      </trkpt>
      <trkpt lat="47.465942" lon="7.7244244">
        <ele>510.47147</ele>
        <time>2019-03-17T11:10:53Z</time>
      </trkpt>
      <trkpt lat="47.46609" lon="7.7245083">
        <ele>510.24158</ele>
        <time>2019-03-17T11:10:55Z</time>
      </trkpt>
      <trkpt lat="47.466225" lon="7.7245884">
        <ele>508.3418</ele>
        <time>2019-03-17T11:10:57Z</time>
      </trkpt>
      <trkpt lat="47.46633" lon="7.7246547">
        <ele>507.8741</ele>
        <time>2019-03-17T11:10:59Z</time>
      </trkpt>
      <trkpt lat="47.466442" lon="7.7247305">
        <ele>507.4487</ele>
        <time>2019-03-17T11:11:01Z</time>
      </trkpt>
      <trkpt lat="47.466553" lon="7.7248206">
        <ele>507.63895</ele>
        <time>2019-03-17T11:11:03Z</time>
      </trkpt>
      <trkpt lat="47.466724" lon="7.724982">
        <ele>506.6164</ele>
        <time>2019-03-17T11:11:06Z</time>
      </trkpt>
      <trkpt lat="47.46683" lon="7.7250757">
        <ele>506.368</ele>
        <time>2019-03-17T11:11:08Z</time>
      </trkpt>
      <trkpt lat="47.466938" lon="7.725193">
        <ele>505.60703</ele>
        <time>2019-03-17T11:11:10Z</time>
      </trkpt>
      <trkpt lat="47.467037" lon="7.7253094">
        <ele>506.00073</ele>
        <time>2019-03-17T11:11:12Z</time>
      </trkpt>
      <trkpt lat="47.467133" lon="7.7254267">
        <ele>505.3428</ele>
        <time>2019-03-17T11:11:14Z</time>
      </trkpt>
      <trkpt lat="47.46722" lon="7.725561">
        <ele>504.39423</ele>
        <time>2019-03-17T11:11:16Z</time>
      </trkpt>
      <trkpt lat="47.4673" lon="7.72569">
        <ele>503.6042</ele>
        <time>2019-03-17T11:11:18Z</time>
      </trkpt>
      <trkpt lat="47.46739" lon="7.7258177">
        <ele>503.04138</ele>
        <time>2019-03-17T11:11:20Z</time>
      </trkpt>
      <trkpt lat="47.46747" lon="7.7259583">
        <ele>503.1656</ele>
        <time>2019-03-17T11:11:22Z</time>
      </trkpt>
      <trkpt lat="47.467556" lon="7.7261033">
        <ele>501.55115</ele>
        <time>2019-03-17T11:11:24Z</time>
      </trkpt>
      <trkpt lat="47.467648" lon="7.7262425">
        <ele>502.41516</ele>
        <time>2019-03-17T11:11:26Z</time>
      </trkpt>
      <trkpt lat="47.467735" lon="7.7263627">
        <ele>501.52472</ele>
        <time>2019-03-17T11:11:28Z</time>
      </trkpt>
      <trkpt lat="47.467815" lon="7.7264853">
        <ele>500.83508</ele>
        <time>2019-03-17T11:11:30Z</time>
      </trkpt>
      <trkpt lat="47.46791" lon="7.726601">
        <ele>500.57352</ele>
        <time>2019-03-17T11:11:32Z</time>
      </trkpt>
      <trkpt lat="47.468" lon="7.726725">
        <ele>500.63693</ele>
        <time>2019-03-17T11:11:34Z</time>
      </trkpt>
      <trkpt lat="47.468086" lon="7.7268476">
        <ele>498.37512</ele>
        <time>2019-03-17T11:11:36Z</time>
      </trkpt>
      <trkpt lat="47.46817" lon="7.7269673">
        <ele>498.7239</ele>
        <time>2019-03-17T11:11:38Z</time>
      </trkpt>
      <trkpt lat="47.468266" lon="7.727087">
        <ele>497.98672</ele>
        <time>2019-03-17T11:11:40Z</time>
      </trkpt>
      <trkpt lat="47.46836" lon="7.727214">
        <ele>498.1902</ele>
        <time>2019-03-17T11:11:42Z</time>
      </trkpt>
      <trkpt lat="47.468456" lon="7.727332">
        <ele>497.28122</ele>
        <time>2019-03-17T11:11:44Z</time>
      </trkpt>
      <trkpt lat="47.46855" lon="7.727455">
        <ele>495.71964</ele>
        <time>2019-03-17T11:11:46Z</time>
      </trkpt>
      <trkpt lat="47.46865" lon="7.727593">
        <ele>495.74606</ele>
        <time>2019-03-17T11:11:48Z</time>
      </trkpt>
      <trkpt lat="47.46875" lon="7.7277317">
        <ele>495.3022</ele>
        <time>2019-03-17T11:11:50Z</time>
      </trkpt>
      <trkpt lat="47.468853" lon="7.727862">
        <ele>495.38937</ele>
        <time>2019-03-17T11:11:52Z</time>
      </trkpt>
      <trkpt lat="47.46897" lon="7.7280116">
        <ele>493.33896</ele>
        <time>2019-03-17T11:11:54Z</time>
      </trkpt>
      <trkpt lat="47.469086" lon="7.728163">
        <ele>493.33896</ele>
        <time>2019-03-17T11:11:56Z</time>
      </trkpt>
      <trkpt lat="47.469215" lon="7.728329">
        <ele>492.09445</ele>
        <time>2019-03-17T11:11:58Z</time>
      </trkpt>
      <trkpt lat="47.469345" lon="7.728503">
        <ele>490.9107</ele>
        <time>2019-03-17T11:12:00Z</time>
      </trkpt>
      <trkpt lat="47.469418" lon="7.7285924">
        <ele>490.41132</ele>
        <time>2019-03-17T11:12:01Z</time>
      </trkpt>
      <trkpt lat="47.469543" lon="7.728763">
        <ele>490.41132</ele>
        <time>2019-03-17T11:12:03Z</time>
      </trkpt>
      <trkpt lat="47.469677" lon="7.7289457">
        <ele>489.67413</ele>
        <time>2019-03-17T11:12:05Z</time>
      </trkpt>
      <trkpt lat="47.46975" lon="7.729034">
        <ele>489.59485</ele>
        <time>2019-03-17T11:12:06Z</time>
      </trkpt>
      <trkpt lat="47.46982" lon="7.729139">
        <ele>488.77576</ele>
        <time>2019-03-17T11:12:07Z</time>
      </trkpt>
      <trkpt lat="47.469887" lon="7.729227">
        <ele>488.63837</ele>
        <time>2019-03-17T11:12:08Z</time>
      </trkpt>
      <trkpt lat="47.469967" lon="7.729322">
        <ele>486.5272</ele>
        <time>2019-03-17T11:12:09Z</time>
      </trkpt>
      <trkpt lat="47.47004" lon="7.729421">
        <ele>487.0609</ele>
        <time>2019-03-17T11:12:10Z</time>
      </trkpt>
      <trkpt lat="47.47011" lon="7.729515">
        <ele>486.67514</ele>
        <time>2019-03-17T11:12:11Z</time>
      </trkpt>
      <trkpt lat="47.470192" lon="7.7296157">
        <ele>486.30786</ele>
        <time>2019-03-17T11:12:12Z</time>
      </trkpt>
      <trkpt lat="47.47027" lon="7.729717">
        <ele>485.56274</ele>
        <time>2019-03-17T11:12:13Z</time>
      </trkpt>
      <trkpt lat="47.470345" lon="7.729821">
        <ele>485.50198</ele>
        <time>2019-03-17T11:12:14Z</time>
      </trkpt>
      <trkpt lat="47.47042" lon="7.7299194">
        <ele>484.8916</ele>
        <time>2019-03-17T11:12:15Z</time>
      </trkpt>
      <trkpt lat="47.4705" lon="7.730028">
        <ele>485.12415</ele>
        <time>2019-03-17T11:12:16Z</time>
      </trkpt>
      <trkpt lat="47.47058" lon="7.7301307">
        <ele>483.9087</ele>
        <time>2019-03-17T11:12:17Z</time>
      </trkpt>
      <trkpt lat="47.470654" lon="7.7302365">
        <ele>482.9654</ele>
        <time>2019-03-17T11:12:18Z</time>
      </trkpt>
      <trkpt lat="47.470722" lon="7.730341">
        <ele>483.20584</ele>
        <time>2019-03-17T11:12:19Z</time>
      </trkpt>
      <trkpt lat="47.470795" lon="7.730453">
        <ele>481.91376</ele>
        <time>2019-03-17T11:12:20Z</time>
      </trkpt>
      <trkpt lat="47.470863" lon="7.730567">
        <ele>480.71945</ele>
        <time>2019-03-17T11:12:21Z</time>
      </trkpt>
      <trkpt lat="47.470917" lon="7.730691">
        <ele>480.32312</ele>
        <time>2019-03-17T11:12:22Z</time>
      </trkpt>
      <trkpt lat="47.470974" lon="7.7308216">
        <ele>479.94263</ele>
        <time>2019-03-17T11:12:23Z</time>
      </trkpt>
      <trkpt lat="47.471024" lon="7.730954">
        <ele>480.08795</ele>
        <time>2019-03-17T11:12:24Z</time>
      </trkpt>
      <trkpt lat="47.471066" lon="7.731092">
        <ele>479.1843</ele>
        <time>2019-03-17T11:12:25Z</time>
      </trkpt>
      <trkpt lat="47.4711" lon="7.731223">
        <ele>478.51315</ele>
        <time>2019-03-17T11:12:26Z</time>
      </trkpt>
      <trkpt lat="47.471123" lon="7.7313533">
        <ele>477.8711</ele>
        <time>2019-03-17T11:12:27Z</time>
      </trkpt>
      <trkpt lat="47.47114" lon="7.7314844">
        <ele>477.16296</ele>
        <time>2019-03-17T11:12:28Z</time>
      </trkpt>
      <trkpt lat="47.471184" lon="7.7317314">
        <ele>476.37555</ele>
        <time>2019-03-17T11:12:30Z</time>
      </trkpt>
      <trkpt lat="47.47121" lon="7.7318587">
        <ele>474.84833</ele>
        <time>2019-03-17T11:12:32Z</time>
      </trkpt>
      <trkpt lat="47.47124" lon="7.731993">
        <ele>472.7345</ele>
        <time>2019-03-17T11:12:33Z</time>
      </trkpt>
      <trkpt lat="47.47128" lon="7.732127">
        <ele>472.17963</ele>
        <time>2019-03-17T11:12:34Z</time>
      </trkpt>
      <trkpt lat="47.47133" lon="7.732267">
        <ele>470.89548</ele>
        <time>2019-03-17T11:12:35Z</time>
      </trkpt>
      <trkpt lat="47.471382" lon="7.732414">
        <ele>470.38818</ele>
        <time>2019-03-17T11:12:36Z</time>
      </trkpt>
      <trkpt lat="47.47144" lon="7.7325373">
        <ele>470.89548</ele>
        <time>2019-03-17T11:12:37Z</time>
      </trkpt>
      <trkpt lat="47.471508" lon="7.732662">
        <ele>469.68796</ele>
        <time>2019-03-17T11:12:38Z</time>
      </trkpt>
      <trkpt lat="47.471577" lon="7.732789">
        <ele>468.7526</ele>
        <time>2019-03-17T11:12:39Z</time>
      </trkpt>
      <trkpt lat="47.47165" lon="7.7329006">
        <ele>467.55566</ele>
        <time>2019-03-17T11:12:40Z</time>
      </trkpt>
      <trkpt lat="47.47174" lon="7.733005">
        <ele>466.6388</ele>
        <time>2019-03-17T11:12:41Z</time>
      </trkpt>
      <trkpt lat="47.471832" lon="7.7330985">
        <ele>465.4022</ele>
        <time>2019-03-17T11:12:42Z</time>
      </trkpt>
      <trkpt lat="47.47193" lon="7.733191">
        <ele>463.96744</ele>
        <time>2019-03-17T11:12:43Z</time>
      </trkpt>
      <trkpt lat="47.472034" lon="7.7332788">
        <ele>463.20117</ele>
        <time>2019-03-17T11:12:44Z</time>
      </trkpt>
      <trkpt lat="47.472145" lon="7.7333775">
        <ele>462.464</ele>
        <time>2019-03-17T11:12:45Z</time>
      </trkpt>
      <trkpt lat="47.47225" lon="7.733469">
        <ele>461.9329</ele>
        <time>2019-03-17T11:12:46Z</time>
      </trkpt>
      <trkpt lat="47.47235" lon="7.7335463">
        <ele>460.52457</ele>
        <time>2019-03-17T11:12:47Z</time>
      </trkpt>
      <trkpt lat="47.472446" lon="7.7336254">
        <ele>459.49936</ele>
        <time>2019-03-17T11:12:48Z</time>
      </trkpt>
      <trkpt lat="47.47255" lon="7.7336936">
        <ele>460.31583</ele>
        <time>2019-03-17T11:12:49Z</time>
      </trkpt>
      <trkpt lat="47.47265" lon="7.7337494">
        <ele>458.1016</ele>
        <time>2019-03-17T11:12:50Z</time>
      </trkpt>
      <trkpt lat="47.472755" lon="7.733799">
        <ele>457.47275</ele>
        <time>2019-03-17T11:12:51Z</time>
      </trkpt>
      <trkpt lat="47.472855" lon="7.7338395">
        <ele>457.2904</ele>
        <time>2019-03-17T11:12:52Z</time>
      </trkpt>
      <trkpt lat="47.472954" lon="7.7338605">
        <ele>455.7262</ele>
        <time>2019-03-17T11:12:53Z</time>
      </trkpt>
      <trkpt lat="47.47306" lon="7.7338686">
        <ele>455.54388</ele>
        <time>2019-03-17T11:12:54Z</time>
      </trkpt>
      <trkpt lat="47.473167" lon="7.733873">
        <ele>454.22803</ele>
        <time>2019-03-17T11:12:55Z</time>
      </trkpt>
      <trkpt lat="47.473278" lon="7.7338605">
        <ele>453.30588</ele>
        <time>2019-03-17T11:12:56Z</time>
      </trkpt>
      <trkpt lat="47.473507" lon="7.733806">
        <ele>450.33594</ele>
        <time>2019-03-17T11:12:58Z</time>
      </trkpt>
      <trkpt lat="47.47363" lon="7.733762">
        <ele>449.5697</ele>
        <time>2019-03-17T11:12:59Z</time>
      </trkpt>
      <trkpt lat="47.473755" lon="7.7337155">
        <ele>447.70688</ele>
        <time>2019-03-17T11:13:00Z</time>
      </trkpt>
      <trkpt lat="47.47388" lon="7.733665">
        <ele>446.53107</ele>
        <time>2019-03-17T11:13:01Z</time>
      </trkpt>
      <trkpt lat="47.47402" lon="7.733611">
        <ele>446.1189</ele>
        <time>2019-03-17T11:13:02Z</time>
      </trkpt>
      <trkpt lat="47.47415" lon="7.7335634">
        <ele>444.22702</ele>
        <time>2019-03-17T11:13:03Z</time>
      </trkpt>
      <trkpt lat="47.47429" lon="7.733517">
        <ele>442.425</ele>
        <time>2019-03-17T11:13:04Z</time>
      </trkpt>
      <trkpt lat="47.47443" lon="7.7334785">
        <ele>441.83575</ele>
        <time>2019-03-17T11:13:05Z</time>
      </trkpt>
      <trkpt lat="47.474567" lon="7.7334576">
        <ele>440.27417</ele>
        <time>2019-03-17T11:13:06Z</time>
      </trkpt>
      <trkpt lat="47.47471" lon="7.733437">
        <ele>438.9055</ele>
        <time>2019-03-17T11:13:07Z</time>
      </trkpt>
      <trkpt lat="47.47497" lon="7.733404">
        <ele>438.04938</ele>
        <time>2019-03-17T11:13:09Z</time>
      </trkpt>
      <trkpt lat="47.47509" lon="7.7333913">
        <ele>437.9437</ele>
        <time>2019-03-17T11:13:10Z</time>
      </trkpt>
      <trkpt lat="47.475212" lon="7.7333875">
        <ele>436.74146</ele>
        <time>2019-03-17T11:13:11Z</time>
      </trkpt>
      <trkpt lat="47.475327" lon="7.733391">
        <ele>434.59592</ele>
        <time>2019-03-17T11:13:12Z</time>
      </trkpt>
      <trkpt lat="47.47543" lon="7.733396">
        <ele>434.43738</ele>
        <time>2019-03-17T11:13:13Z</time>
      </trkpt>
      <trkpt lat="47.475533" lon="7.733398">
        <ele>433.55753</ele>
        <time>2019-03-17T11:13:14Z</time>
      </trkpt>
      <trkpt lat="47.47563" lon="7.7334065">
        <ele>432.04877</ele>
        <time>2019-03-17T11:13:15Z</time>
      </trkpt>
      <trkpt lat="47.47574" lon="7.7334237">
        <ele>432.27866</ele>
        <time>2019-03-17T11:13:16Z</time>
      </trkpt>
      <trkpt lat="47.475845" lon="7.7334523">
        <ele>431.38556</ele>
        <time>2019-03-17T11:13:17Z</time>
      </trkpt>
      <trkpt lat="47.47595" lon="7.733476">
        <ele>431.56787</ele>
        <time>2019-03-17T11:13:18Z</time>
      </trkpt>
      <trkpt lat="47.476055" lon="7.7335057">
        <ele>431.19003</ele>
        <time>2019-03-17T11:13:19Z</time>
      </trkpt>
      <trkpt lat="47.47616" lon="7.733543">
        <ele>429.52277</ele>
        <time>2019-03-17T11:13:20Z</time>
      </trkpt>
      <trkpt lat="47.476265" lon="7.733584">
        <ele>429.4884</ele>
        <time>2019-03-17T11:13:21Z</time>
      </trkpt>
      <trkpt lat="47.476368" lon="7.733629">
        <ele>429.5386</ele>
        <time>2019-03-17T11:13:22Z</time>
      </trkpt>
      <trkpt lat="47.47647" lon="7.733678">
        <ele>429.4752</ele>
        <time>2019-03-17T11:13:23Z</time>
      </trkpt>
      <trkpt lat="47.476566" lon="7.7337303">
        <ele>428.4764</ele>
        <time>2019-03-17T11:13:24Z</time>
      </trkpt>
      <trkpt lat="47.47667" lon="7.7337856">
        <ele>427.42743</ele>
        <time>2019-03-17T11:13:25Z</time>
      </trkpt>
      <trkpt lat="47.476772" lon="7.7338448">
        <ele>427.3429</ele>
        <time>2019-03-17T11:13:26Z</time>
      </trkpt>
      <trkpt lat="47.47687" lon="7.7339015">
        <ele>427.67316</ele>
        <time>2019-03-17T11:13:27Z</time>
      </trkpt>
      <trkpt lat="47.47697" lon="7.733953">
        <ele>426.52643</ele>
        <time>2019-03-17T11:13:28Z</time>
      </trkpt>
      <trkpt lat="47.477062" lon="7.7340007">
        <ele>426.52377</ele>
        <time>2019-03-17T11:13:29Z</time>
      </trkpt>
      <trkpt lat="47.477154" lon="7.734041">
        <ele>425.67032</ele>
        <time>2019-03-17T11:13:30Z</time>
      </trkpt>
      <trkpt lat="47.47725" lon="7.734078">
        <ele>426.22784</ele>
        <time>2019-03-17T11:13:31Z</time>
      </trkpt>
      <trkpt lat="47.477345" lon="7.7341113">
        <ele>424.29105</ele>
        <time>2019-03-17T11:13:32Z</time>
      </trkpt>
      <trkpt lat="47.47744" lon="7.734151">
        <ele>425.54877</ele>
        <time>2019-03-17T11:13:33Z</time>
      </trkpt>
      <trkpt lat="47.477543" lon="7.7341933">
        <ele>423.21567</ele>
        <time>2019-03-17T11:13:34Z</time>
      </trkpt>
      <trkpt lat="47.47764" lon="7.734242">
        <ele>422.3252</ele>
        <time>2019-03-17T11:13:35Z</time>
      </trkpt>
      <trkpt lat="47.477726" lon="7.734274">
        <ele>421.83902</ele>
        <time>2019-03-17T11:13:36Z</time>
      </trkpt>
      <trkpt lat="47.477814" lon="7.734311">
        <ele>420.64737</ele>
        <time>2019-03-17T11:13:37Z</time>
      </trkpt>
      <trkpt lat="47.47798" lon="7.734369">
        <ele>418.00772</ele>
        <time>2019-03-17T11:13:39Z</time>
      </trkpt>
      <trkpt lat="47.478157" lon="7.7344227">
        <ele>415.43945</ele>
        <time>2019-03-17T11:13:41Z</time>
      </trkpt>
      <trkpt lat="47.478325" lon="7.7344656">
        <ele>413.59778</ele>
        <time>2019-03-17T11:13:43Z</time>
      </trkpt>
      <trkpt lat="47.478493" lon="7.7344913">
        <ele>411.04535</ele>
        <time>2019-03-17T11:13:45Z</time>
      </trkpt>
      <trkpt lat="47.478645" lon="7.734497">
        <ele>409.11383</ele>
        <time>2019-03-17T11:13:47Z</time>
      </trkpt>
      <trkpt lat="47.47879" lon="7.7344923">
        <ele>407.56546</ele>
        <time>2019-03-17T11:13:49Z</time>
      </trkpt>
      <trkpt lat="47.47892" lon="7.734443">
        <ele>405.9669</ele>
        <time>2019-03-17T11:13:51Z</time>
      </trkpt>
      <trkpt lat="47.479034" lon="7.734356">
        <ele>404.26263</ele>
        <time>2019-03-17T11:13:53Z</time>
      </trkpt>
      <trkpt lat="47.47915" lon="7.734196">
        <ele>402.59534</ele>
        <time>2019-03-17T11:13:55Z</time>
      </trkpt>
      <trkpt lat="47.479244" lon="7.7340274">
        <ele>400.53967</ele>
        <time>2019-03-17T11:13:57Z</time>
      </trkpt>
      <trkpt lat="47.479332" lon="7.7338753">
        <ele>398.68478</ele>
        <time>2019-03-17T11:13:59Z</time>
      </trkpt>
      <trkpt lat="47.47941" lon="7.733758">
        <ele>395.88925</ele>
        <time>2019-03-17T11:14:01Z</time>
      </trkpt>
      <trkpt lat="47.47949" lon="7.7336626">
        <ele>394.4862</ele>
        <time>2019-03-17T11:14:03Z</time>
      </trkpt>
      <trkpt lat="47.479595" lon="7.7336135">
        <ele>392.27197</ele>
        <time>2019-03-17T11:14:05Z</time>
      </trkpt>
      <trkpt lat="47.47973" lon="7.7336035">
        <ele>390.7606</ele>
        <time>2019-03-17T11:14:07Z</time>
      </trkpt>
      <trkpt lat="47.47985" lon="7.7336254">
        <ele>388.85025</ele>
        <time>2019-03-17T11:14:09Z</time>
      </trkpt>
      <trkpt lat="47.479965" lon="7.733762">
        <ele>388.12097</ele>
        <time>2019-03-17T11:14:11Z</time>
      </trkpt>
      <trkpt lat="47.48011" lon="7.7340536">
        <ele>385.69272</ele>
        <time>2019-03-17T11:14:14Z</time>
      </trkpt>
      <trkpt lat="47.48018" lon="7.7342544">
        <ele>384.07828</ele>
        <time>2019-03-17T11:14:16Z</time>
      </trkpt>
      <trkpt lat="47.480198" lon="7.7345033">
        <ele>382.51672</ele>
        <time>2019-03-17T11:14:18Z</time>
      </trkpt>
      <trkpt lat="47.480213" lon="7.734729">
        <ele>380.8336</ele>
        <time>2019-03-17T11:14:20Z</time>
      </trkpt>
      <trkpt lat="47.48023" lon="7.7349696">
        <ele>379.35654</ele>
        <time>2019-03-17T11:14:22Z</time>
      </trkpt>
      <trkpt lat="47.48027" lon="7.735183">
        <ele>377.9535</ele>
        <time>2019-03-17T11:14:24Z</time>
      </trkpt>
      <trkpt lat="47.480328" lon="7.7354164">
        <ele>375.61246</ele>
        <time>2019-03-17T11:14:26Z</time>
      </trkpt>
      <trkpt lat="47.480366" lon="7.7355485">
        <ele>373.09964</ele>
        <time>2019-03-17T11:14:27Z</time>
      </trkpt>
      <trkpt lat="47.480396" lon="7.735689">
        <ele>373.74963</ele>
        <time>2019-03-17T11:14:28Z</time>
      </trkpt>
      <trkpt lat="47.480434" lon="7.73583">
        <ele>373.60168</ele>
        <time>2019-03-17T11:14:29Z</time>
      </trkpt>
      <trkpt lat="47.48047" lon="7.7359824">
        <ele>372.47607</ele>
        <time>2019-03-17T11:14:30Z</time>
      </trkpt>
      <trkpt lat="47.48051" lon="7.7361193">
        <ele>371.98462</ele>
        <time>2019-03-17T11:14:31Z</time>
      </trkpt>
      <trkpt lat="47.48054" lon="7.7362556">
        <ele>371.91855</ele>
        <time>2019-03-17T11:14:32Z</time>
      </trkpt>
      <trkpt lat="47.480633" lon="7.7365007">
        <ele>371.10474</ele>
        <time>2019-03-17T11:14:34Z</time>
      </trkpt>
      <trkpt lat="47.480705" lon="7.7366266">
        <ele>371.74152</ele>
        <time>2019-03-17T11:14:35Z</time>
      </trkpt>
      <trkpt lat="47.480778" lon="7.736733">
        <ele>370.9647</ele>
        <time>2019-03-17T11:14:36Z</time>
      </trkpt>
      <trkpt lat="47.480846" lon="7.7368193">
        <ele>371.72565</ele>
        <time>2019-03-17T11:14:37Z</time>
      </trkpt>
      <trkpt lat="47.48092" lon="7.736908">
        <ele>371.46936</ele>
        <time>2019-03-17T11:14:38Z</time>
      </trkpt>
      <trkpt lat="47.481037" lon="7.737048">
        <ele>370.93033</ele>
        <time>2019-03-17T11:14:40Z</time>
      </trkpt>
      <trkpt lat="47.48118" lon="7.7370634">
        <ele>370.9462</ele>
        <time>2019-03-17T11:14:42Z</time>
      </trkpt>
      <trkpt lat="47.481304" lon="7.7369623">
        <ele>370.36752</ele>
        <time>2019-03-17T11:14:44Z</time>
      </trkpt>
      <trkpt lat="47.481415" lon="7.736823">
        <ele>369.86285</ele>
        <time>2019-03-17T11:14:46Z</time>
      </trkpt>
      <trkpt lat="47.48154" lon="7.7366943">
        <ele>369.34497</ele>
        <time>2019-03-17T11:14:48Z</time>
      </trkpt>
      <trkpt lat="47.481636" lon="7.736529">
        <ele>367.934</ele>
        <time>2019-03-17T11:14:50Z</time>
      </trkpt>
      <trkpt lat="47.48176" lon="7.7363753">
        <ele>367.9155</ele>
        <time>2019-03-17T11:14:52Z</time>
      </trkpt>
      <trkpt lat="47.481876" lon="7.7362075">
        <ele>366.13196</ele>
        <time>2019-03-17T11:14:54Z</time>
      </trkpt>
      <trkpt lat="47.481983" lon="7.7361207">
        <ele>364.95352</ele>
        <time>2019-03-17T11:14:56Z</time>
      </trkpt>
      <trkpt lat="47.48214" lon="7.7360277">
        <ele>361.99417</ele>
        <time>2019-03-17T11:14:58Z</time>
      </trkpt>
      <trkpt lat="47.482227" lon="7.7359915">
        <ele>361.71674</ele>
        <time>2019-03-17T11:14:59Z</time>
      </trkpt>
      <trkpt lat="47.482376" lon="7.7358994">
        <ele>360.60696</ele>
        <time>2019-03-17T11:15:01Z</time>
      </trkpt>
      <trkpt lat="47.482513" lon="7.735842">
        <ele>358.7204</ele>
        <time>2019-03-17T11:15:03Z</time>
      </trkpt>
      <trkpt lat="47.482613" lon="7.7358155">
        <ele>358.0096</ele>
        <time>2019-03-17T11:15:05Z</time>
      </trkpt>
      <trkpt lat="47.482716" lon="7.7358346">
        <ele>356.35028</ele>
        <time>2019-03-17T11:15:08Z</time>
      </trkpt>
      <trkpt lat="47.48282" lon="7.7357764">
        <ele>356.67792</ele>
        <time>2019-03-17T11:15:10Z</time>
      </trkpt>
      <trkpt lat="47.482937" lon="7.7358227">
        <ele>354.98157</ele>
        <time>2019-03-17T11:15:14Z</time>
      </trkpt>
      <trkpt lat="47.483017" lon="7.7359896">
        <ele>354.14926</ele>
        <time>2019-03-17T11:15:18Z</time>
      </trkpt>
      <trkpt lat="47.483097" lon="7.7360506">
        <ele>354.0832</ele>
        <time>2019-03-17T11:15:21Z</time>
      </trkpt>
      <trkpt lat="47.483192" lon="7.736099">
        <ele>353.59702</ele>
        <time>2019-03-17T11:15:23Z</time>
      </trkpt>
      <trkpt lat="47.483288" lon="7.736128">
        <ele>353.94315</ele>
        <time>2019-03-17T11:15:28Z</time>
      </trkpt>
      <trkpt lat="47.48337" lon="7.736191">
        <ele>353.39093</ele>
        <time>2019-03-17T11:15:32Z</time>
      </trkpt>
      <trkpt lat="47.483414" lon="7.736268">
        <ele>353.02628</ele>
        <time>2019-03-17T11:15:39Z</time>
      </trkpt>
    </trkseg>
    <trkseg>
      <trkpt lat="47.483414" lon="7.736268">
        <ele>353.02628</ele>
        <time>2019-03-17T11:15:39Z</time>
      </trkpt>
      <trkpt lat="47.48322" lon="7.73611">
        <ele>353.7027</ele>
        <time>2019-03-17T11:16:06Z</time>
      </trkpt>
      <trkpt lat="47.483135" lon="7.7360215">
        <ele>353.6842</ele>
        <time>2019-03-17T11:16:10Z</time>
      </trkpt>
      <trkpt lat="47.483055" lon="7.7358875">
        <ele>355.54703</ele>
        <time>2019-03-17T11:16:14Z</time>
      </trkpt>
      <trkpt lat="47.483063" lon="7.735784">
        <ele>355.0714</ele>
        <time>2019-03-17T11:16:21Z</time>
      </trkpt>
    </trkseg>
    <trkseg>
      <trkpt lat="47.483063" lon="7.735784">
        <ele>355.0714</ele>
        <time>2019-03-17T11:16:21Z</time>
      </trkpt>
      <trkpt lat="47.482857" lon="7.7356677">
        <ele>357.17993</ele>
        <time>2019-03-17T11:16:51Z</time>
      </trkpt>
      <trkpt lat="47.48293" lon="7.7357607">
        <ele>356.54315</ele>
        <time>2019-03-17T11:16:56Z</time>
      </trkpt>
      <trkpt lat="47.482956" lon="7.7357645">
        <ele>356.03848</ele>
        <time>2019-03-17T11:17:04Z</time>
      </trkpt>
    </trkseg>
    <trkseg>
      <trkpt lat="47.482956" lon="7.7357645">
        <ele>356.03848</ele>
        <time>2019-03-17T11:17:04Z</time>
      </trkpt>
      <trkpt lat="47.4833" lon="7.7361016">
        <ele>353.72913</ele>
        <time>2019-03-17T11:17:59Z</time>
      </trkpt>
      <trkpt lat="47.483387" lon="7.7361493">
        <ele>354.0832</ele>
        <time>2019-03-17T11:18:01Z</time>
      </trkpt>
      <trkpt lat="47.483475" lon="7.73623">
        <ele>353.42792</ele>
        <time>2019-03-17T11:18:04Z</time>
      </trkpt>
      <trkpt lat="47.48358" lon="7.736289">
        <ele>352.9391</ele>
        <time>2019-03-17T11:18:09Z</time>
      </trkpt>
      <trkpt lat="47.48369" lon="7.7363715">
        <ele>352.73563</ele>
        <time>2019-03-17T11:18:13Z</time>
      </trkpt>
      <trkpt lat="47.48379" lon="7.736431">
        <ele>352.3023</ele>
        <time>2019-03-17T11:18:16Z</time>
      </trkpt>
      <trkpt lat="47.48391" lon="7.73645">
        <ele>351.85046</ele>
        <time>2019-03-17T11:18:19Z</time>
      </trkpt>
      <trkpt lat="47.484" lon="7.736452">
        <ele>350.83057</ele>
        <time>2019-03-17T11:18:21Z</time>
      </trkpt>
      <trkpt lat="47.484135" lon="7.736469">
        <ele>351.4515</ele>
        <time>2019-03-17T11:18:24Z</time>
      </trkpt>
      <trkpt lat="47.484238" lon="7.7364726">
        <ele>350.36288</ele>
        <time>2019-03-17T11:18:26Z</time>
      </trkpt>
      <trkpt lat="47.484337" lon="7.7364793">
        <ele>349.16858</ele>
        <time>2019-03-17T11:18:28Z</time>
      </trkpt>
      <trkpt lat="47.484447" lon="7.7364874">
        <ele>348.77222</ele>
        <time>2019-03-17T11:18:30Z</time>
      </trkpt>
      <trkpt lat="47.484577" lon="7.7365413">
        <ele>348.4763</ele>
        <time>2019-03-17T11:18:33Z</time>
      </trkpt>
      <trkpt lat="47.484673" lon="7.736568">
        <ele>347.37183</ele>
        <time>2019-03-17T11:18:35Z</time>
      </trkpt>
      <trkpt lat="47.48476" lon="7.736598">
        <ele>347.0759</ele>
        <time>2019-03-17T11:18:37Z</time>
      </trkpt>
      <trkpt lat="47.484882" lon="7.736622">
        <ele>346.4021</ele>
        <time>2019-03-17T11:18:40Z</time>
      </trkpt>
      <trkpt lat="47.484985" lon="7.736623">
        <ele>345.9529</ele>
        <time>2019-03-17T11:18:42Z</time>
      </trkpt>
      <trkpt lat="47.485115" lon="7.736666">
        <ele>345.0387</ele>
        <time>2019-03-17T11:18:45Z</time>
      </trkpt>
      <trkpt lat="47.485226" lon="7.736788">
        <ele>343.31064</ele>
        <time>2019-03-17T11:18:48Z</time>
      </trkpt>
      <trkpt lat="47.485313" lon="7.7368836">
        <ele>343.1521</ele>
        <time>2019-03-17T11:18:50Z</time>
      </trkpt>
      <trkpt lat="47.485428" lon="7.7369695">
        <ele>341.51126</ele>
        <time>2019-03-17T11:18:53Z</time>
      </trkpt>
      <trkpt lat="47.485523" lon="7.7370305">
        <ele>341.16513</ele>
        <time>2019-03-17T11:18:56Z</time>
      </trkpt>
      <trkpt lat="47.4856" lon="7.737049">
        <ele>340.05536</ele>
        <time>2019-03-17T11:19:04Z</time>
      </trkpt>
    </trkseg>
    <trkseg>
      <trkpt lat="47.4856" lon="7.737049">
        <ele>340.05536</ele>
        <time>2019-03-17T11:19:04Z</time>
      </trkpt>
      <trkpt lat="47.485874" lon="7.737247">
        <ele>340.11084</ele>
        <time>2019-03-17T11:19:46Z</time>
      </trkpt>
      <trkpt lat="47.485977" lon="7.7373543">
        <ele>340.17163</ele>
        <time>2019-03-17T11:19:48Z</time>
      </trkpt>
      <trkpt lat="47.486057" lon="7.737441">
        <ele>340.28787</ele>
        <time>2019-03-17T11:19:50Z</time>
      </trkpt>
      <trkpt lat="47.486134" lon="7.7375464">
        <ele>339.89682</ele>
        <time>2019-03-17T11:19:52Z</time>
      </trkpt>
      <trkpt lat="47.486244" lon="7.737681">
        <ele>338.72894</ele>
        <time>2019-03-17T11:19:55Z</time>
      </trkpt>
      <trkpt lat="47.48635" lon="7.737806">
        <ele>339.50842</ele>
        <time>2019-03-17T11:19:58Z</time>
      </trkpt>
      <trkpt lat="47.48642" lon="7.737909">
        <ele>341.14926</ele>
        <time>2019-03-17T11:20:01Z</time>
      </trkpt>
      <trkpt lat="47.48649" lon="7.73801">
        <ele>341.61166</ele>
        <time>2019-03-17T11:20:05Z</time>
      </trkpt>
      <trkpt lat="47.486557" lon="7.7381425">
        <ele>341.66452</ele>
        <time>2019-03-17T11:20:09Z</time>
      </trkpt>
      <trkpt lat="47.486607" lon="7.738289">
        <ele>341.82834</ele>
        <time>2019-03-17T11:20:12Z</time>
      </trkpt>
      <trkpt lat="47.48663" lon="7.7384605">
        <ele>340.9062</ele>
        <time>2019-03-17T11:20:16Z</time>
      </trkpt>
      <trkpt lat="47.486626" lon="7.738594">
        <ele>340.70273</ele>
        <time>2019-03-17T11:20:19Z</time>
      </trkpt>
      <trkpt lat="47.486603" lon="7.7387366">
        <ele>340.56003</ele>
        <time>2019-03-17T11:20:22Z</time>
      </trkpt>
      <trkpt lat="47.486576" lon="7.7388706">
        <ele>340.1135</ele>
        <time>2019-03-17T11:20:25Z</time>
      </trkpt>
      <trkpt lat="47.48655" lon="7.739001">
        <ele>340.60233</ele>
        <time>2019-03-17T11:20:28Z</time>
      </trkpt>
      <trkpt lat="47.486526" lon="7.739148">
        <ele>340.33017</ele>
        <time>2019-03-17T11:20:32Z</time>
      </trkpt>
      <trkpt lat="47.48651" lon="7.7393045">
        <ele>341.21533</ele>
        <time>2019-03-17T11:20:36Z</time>
      </trkpt>
      <trkpt lat="47.4865" lon="7.7394624">
        <ele>340.75027</ele>
        <time>2019-03-17T11:20:40Z</time>
      </trkpt>
      <trkpt lat="47.486504" lon="7.7396398">
        <ele>340.9564</ele>
        <time>2019-03-17T11:20:43Z</time>
      </trkpt>
      <trkpt lat="47.486504" lon="7.739905">
        <ele>341.09644</ele>
        <time>2019-03-17T11:20:47Z</time>
      </trkpt>
      <trkpt lat="47.4865" lon="7.7400413">
        <ele>340.9564</ele>
        <time>2019-03-17T11:20:49Z</time>
      </trkpt>
      <trkpt lat="47.486496" lon="7.74022">
        <ele>341.45313</ele>
        <time>2019-03-17T11:20:51Z</time>
      </trkpt>
      <trkpt lat="47.48647" lon="7.740417">
        <ele>341.4584</ele>
        <time>2019-03-17T11:20:54Z</time>
      </trkpt>
      <trkpt lat="47.48641" lon="7.740671">
        <ele>342.11633</ele>
        <time>2019-03-17T11:20:58Z</time>
      </trkpt>
      <trkpt lat="47.486404" lon="7.740818">
        <ele>342.39114</ele>
        <time>2019-03-17T11:21:00Z</time>
      </trkpt>
      <trkpt lat="47.4864" lon="7.741058">
        <ele>342.61572</ele>
        <time>2019-03-17T11:21:03Z</time>
      </trkpt>
      <trkpt lat="47.48639" lon="7.7412205">
        <ele>342.63422</ele>
        <time>2019-03-17T11:21:05Z</time>
      </trkpt>
      <trkpt lat="47.486378" lon="7.741367">
        <ele>342.79013</ele>
        <time>2019-03-17T11:21:07Z</time>
      </trkpt>
      <trkpt lat="47.486324" lon="7.7414865">
        <ele>342.90903</ele>
        <time>2019-03-17T11:21:09Z</time>
      </trkpt>
      <trkpt lat="47.486294" lon="7.741669">
        <ele>344.03464</ele>
        <time>2019-03-17T11:21:12Z</time>
      </trkpt>
      <trkpt lat="47.486225" lon="7.7417846">
        <ele>343.90253</ele>
        <time>2019-03-17T11:21:15Z</time>
      </trkpt>
      <trkpt lat="47.4862" lon="7.7419186">
        <ele>344.36227</ele>
        <time>2019-03-17T11:21:17Z</time>
      </trkpt>
      <trkpt lat="47.48615" lon="7.742092">
        <ele>344.85373</ele>
        <time>2019-03-17T11:21:20Z</time>
      </trkpt>
      <trkpt lat="47.486095" lon="7.742251">
        <ele>346.07446</ele>
        <time>2019-03-17T11:21:23Z</time>
      </trkpt>
      <trkpt lat="47.486042" lon="7.742409">
        <ele>346.43646</ele>
        <time>2019-03-17T11:21:26Z</time>
      </trkpt>
      <trkpt lat="47.485992" lon="7.7425756">
        <ele>347.21594</ele>
        <time>2019-03-17T11:21:29Z</time>
      </trkpt>
      <trkpt lat="47.485954" lon="7.742755">
        <ele>348.0958</ele>
        <time>2019-03-17T11:21:32Z</time>
      </trkpt>
      <trkpt lat="47.485916" lon="7.7429237">
        <ele>348.64276</ele>
        <time>2019-03-17T11:21:35Z</time>
      </trkpt>
      <trkpt lat="47.485867" lon="7.743061">
        <ele>349.86612</ele>
        <time>2019-03-17T11:21:38Z</time>
      </trkpt>
      <trkpt lat="47.48583" lon="7.7431936">
        <ele>351.2454</ele>
        <time>2019-03-17T11:21:41Z</time>
      </trkpt>
      <trkpt lat="47.485786" lon="7.7433176">
        <ele>352.33136</ele>
        <time>2019-03-17T11:21:44Z</time>
      </trkpt>
      <trkpt lat="47.48571" lon="7.743451">
        <ele>353.35657</ele>
        <time>2019-03-17T11:21:48Z</time>
      </trkpt>
      <trkpt lat="47.485622" lon="7.7436223">
        <ele>354.66714</ele>
        <time>2019-03-17T11:21:53Z</time>
      </trkpt>
      <trkpt lat="47.485558" lon="7.7437534">
        <ele>356.48767</ele>
        <time>2019-03-17T11:21:57Z</time>
      </trkpt>
      <trkpt lat="47.485497" lon="7.7438846">
        <ele>357.44946</ele>
        <time>2019-03-17T11:22:02Z</time>
      </trkpt>
      <trkpt lat="47.48542" lon="7.744021">
        <ele>358.39276</ele>
        <time>2019-03-17T11:22:06Z</time>
      </trkpt>
      <trkpt lat="47.485332" lon="7.7441373">
        <ele>359.41266</ele>
        <time>2019-03-17T11:22:10Z</time>
      </trkpt>
      <trkpt lat="47.485233" lon="7.7442393">
        <ele>360.92932</ele>
        <time>2019-03-17T11:22:14Z</time>
      </trkpt>
      <trkpt lat="47.48515" lon="7.744294">
        <ele>361.97568</ele>
        <time>2019-03-17T11:22:17Z</time>
      </trkpt>
      <trkpt lat="47.485043" lon="7.7443776">
        <ele>362.97708</ele>
        <time>2019-03-17T11:22:21Z</time>
      </trkpt>
      <trkpt lat="47.484962" lon="7.7444654">
        <ele>363.9151</ele>
        <time>2019-03-17T11:22:24Z</time>
      </trkpt>
      <trkpt lat="47.48488" lon="7.7445493">
        <ele>364.36163</ele>
        <time>2019-03-17T11:22:27Z</time>
      </trkpt>
      <trkpt lat="47.484795" lon="7.7446423">
        <ele>365.11206</ele>
        <time>2019-03-17T11:22:30Z</time>
      </trkpt>
      <trkpt lat="47.4847" lon="7.7447586">
        <ele>365.92322</ele>
        <time>2019-03-17T11:22:33Z</time>
      </trkpt>
      <trkpt lat="47.48461" lon="7.744895">
        <ele>366.3539</ele>
        <time>2019-03-17T11:22:36Z</time>
      </trkpt>
      <trkpt lat="47.48454" lon="7.7450266">
        <ele>366.9035</ele>
        <time>2019-03-17T11:22:39Z</time>
      </trkpt>
      <trkpt lat="47.4845" lon="7.7451873">
        <ele>367.51917</ele>
        <time>2019-03-17T11:22:42Z</time>
      </trkpt>
      <trkpt lat="47.4845" lon="7.7454176">
        <ele>367.71204</ele>
        <time>2019-03-17T11:22:45Z</time>
      </trkpt>
      <trkpt lat="47.484486" lon="7.745555">
        <ele>367.8283</ele>
        <time>2019-03-17T11:22:47Z</time>
      </trkpt>
      <trkpt lat="47.484463" lon="7.7456927">
        <ele>367.89966</ele>
        <time>2019-03-17T11:22:49Z</time>
      </trkpt>
      <trkpt lat="47.48444" lon="7.7458396">
        <ele>368.22992</ele>
        <time>2019-03-17T11:22:51Z</time>
      </trkpt>
      <trkpt lat="47.484413" lon="7.7459817">
        <ele>368.90372</ele>
        <time>2019-03-17T11:22:53Z</time>
      </trkpt>
      <trkpt lat="47.484383" lon="7.7462">
        <ele>369.08337</ele>
        <time>2019-03-17T11:22:56Z</time>
      </trkpt>
      <trkpt lat="47.484364" lon="7.746346">
        <ele>369.66733</ele>
        <time>2019-03-17T11:22:58Z</time>
      </trkpt>
      <trkpt lat="47.48434" lon="7.7464867">
        <ele>371.05453</ele>
        <time>2019-03-17T11:23:00Z</time>
      </trkpt>
      <trkpt lat="47.48432" lon="7.7466288">
        <ele>371.10474</ele>
        <time>2019-03-17T11:23:02Z</time>
      </trkpt>
      <trkpt lat="47.4843" lon="7.746767">
        <ele>371.48523</ele>
        <time>2019-03-17T11:23:04Z</time>
      </trkpt>
      <trkpt lat="47.484272" lon="7.746901">
        <ele>371.91327</ele>
        <time>2019-03-17T11:23:06Z</time>
      </trkpt>
      <trkpt lat="47.484234" lon="7.7470317">
        <ele>372.14578</ele>
        <time>2019-03-17T11:23:08Z</time>
      </trkpt>
      <trkpt lat="47.484154" lon="7.7472363">
        <ele>372.56326</ele>
        <time>2019-03-17T11:23:12Z</time>
      </trkpt>
      <trkpt lat="47.48409" lon="7.7473683">
        <ele>372.7086</ele>
        <time>2019-03-17T11:23:15Z</time>
      </trkpt>
      <trkpt lat="47.484005" lon="7.7475605">
        <ele>373.42993</ele>
        <time>2019-03-17T11:23:19Z</time>
      </trkpt>
      <trkpt lat="47.483948" lon="7.7476745">
        <ele>373.57526</ele>
        <time>2019-03-17T11:23:21Z</time>
      </trkpt>
      <trkpt lat="47.483894" lon="7.7477856">
        <ele>374.54233</ele>
        <time>2019-03-17T11:23:23Z</time>
      </trkpt>
      <trkpt lat="47.483845" lon="7.7479115">
        <ele>374.3283</ele>
        <time>2019-03-17T11:23:25Z</time>
      </trkpt>
      <trkpt lat="47.48377" lon="7.74811">
        <ele>374.1962</ele>
        <time>2019-03-17T11:23:28Z</time>
      </trkpt>
      <trkpt lat="47.483715" lon="7.7482414">
        <ele>375.39578</ele>
        <time>2019-03-17T11:23:30Z</time>
      </trkpt>
      <trkpt lat="47.483658" lon="7.748433">
        <ele>376.07486</ele>
        <time>2019-03-17T11:23:33Z</time>
      </trkpt>
      <trkpt lat="47.483597" lon="7.7485757">
        <ele>376.49496</ele>
        <time>2019-03-17T11:23:35Z</time>
      </trkpt>
      <trkpt lat="47.483513" lon="7.7486954">
        <ele>376.6535</ele>
        <time>2019-03-17T11:23:37Z</time>
      </trkpt>
      <trkpt lat="47.483418" lon="7.748891">
        <ele>376.78296</ele>
        <time>2019-03-17T11:23:39Z</time>
      </trkpt>
      <trkpt lat="47.48332" lon="7.749073">
        <ele>377.64963</ele>
        <time>2019-03-17T11:23:42Z</time>
      </trkpt>
      <trkpt lat="47.483273" lon="7.7491875">
        <ele>378.14374</ele>
        <time>2019-03-17T11:23:45Z</time>
      </trkpt>
      <trkpt lat="47.483192" lon="7.749411">
        <ele>379.93256</ele>
        <time>2019-03-17T11:23:49Z</time>
      </trkpt>
      <trkpt lat="47.4831" lon="7.74961">
        <ele>380.45044</ele>
        <time>2019-03-17T11:23:52Z</time>
      </trkpt>
      <trkpt lat="47.483086" lon="7.7497983">
        <ele>381.39374</ele>
        <time>2019-03-17T11:23:55Z</time>
      </trkpt>
      <trkpt lat="47.48306" lon="7.7499785">
        <ele>383.24335</ele>
        <time>2019-03-17T11:24:00Z</time>
      </trkpt>
      <trkpt lat="47.48308" lon="7.7501435">
        <ele>385.11935</ele>
        <time>2019-03-17T11:24:03Z</time>
      </trkpt>
      <trkpt lat="47.48314" lon="7.750301">
        <ele>385.2911</ele>
        <time>2019-03-17T11:24:07Z</time>
      </trkpt>
      <trkpt lat="47.4832" lon="7.7504053">
        <ele>386.61487</ele>
        <time>2019-03-17T11:24:10Z</time>
      </trkpt>
      <trkpt lat="47.483273" lon="7.750491">
        <ele>387.2358</ele>
        <time>2019-03-17T11:24:13Z</time>
      </trkpt>
      <trkpt lat="47.483356" lon="7.750548">
        <ele>387.9651</ele>
        <time>2019-03-17T11:24:16Z</time>
      </trkpt>
      <trkpt lat="47.48347" lon="7.7505794">
        <ele>389.21487</ele>
        <time>2019-03-17T11:24:20Z</time>
      </trkpt>
      <trkpt lat="47.48359" lon="7.750577">
        <ele>390.0736</ele>
        <time>2019-03-17T11:24:24Z</time>
      </trkpt>
      <trkpt lat="47.483696" lon="7.7505455">
        <ele>390.56506</ele>
        <time>2019-03-17T11:24:28Z</time>
      </trkpt>
      <trkpt lat="47.48379" lon="7.750443">
        <ele>391.82016</ele>
        <time>2019-03-17T11:24:32Z</time>
      </trkpt>
      <trkpt lat="47.48387" lon="7.750318">
        <ele>393.03824</ele>
        <time>2019-03-17T11:24:35Z</time>
      </trkpt>
      <trkpt lat="47.48394" lon="7.7501698">
        <ele>393.26285</ele>
        <time>2019-03-17T11:24:38Z</time>
      </trkpt>
      <trkpt lat="47.484005" lon="7.7500305">
        <ele>394.35675</ele>
        <time>2019-03-17T11:24:41Z</time>
      </trkpt>
      <trkpt lat="47.484062" lon="7.749892">
        <ele>395.123</ele>
        <time>2019-03-17T11:24:44Z</time>
      </trkpt>
      <trkpt lat="47.484123" lon="7.7497773">
        <ele>395.57217</ele>
        <time>2019-03-17T11:24:47Z</time>
      </trkpt>
      <trkpt lat="47.484207" lon="7.749652">
        <ele>397.29495</ele>
        <time>2019-03-17T11:24:51Z</time>
      </trkpt>
      <trkpt lat="47.4843" lon="7.7495713">
        <ele>398.99393</ele>
        <time>2019-03-17T11:24:55Z</time>
      </trkpt>
      <trkpt lat="47.484398" lon="7.74956">
        <ele>399.4114</ele>
        <time>2019-03-17T11:24:59Z</time>
      </trkpt>
      <trkpt lat="47.48451" lon="7.749616">
        <ele>400.31506</ele>
        <time>2019-03-17T11:25:04Z</time>
      </trkpt>
      <trkpt lat="47.48458" lon="7.749712">
        <ele>401.93213</ele>
        <time>2019-03-17T11:25:08Z</time>
      </trkpt>
      <trkpt lat="47.484634" lon="7.749827">
        <ele>402.1171</ele>
        <time>2019-03-17T11:25:12Z</time>
      </trkpt>
      <trkpt lat="47.484646" lon="7.7500157">
        <ele>405.2482</ele>
        <time>2019-03-17T11:25:18Z</time>
      </trkpt>
      <trkpt lat="47.484634" lon="7.75018">
        <ele>405.8691</ele>
        <time>2019-03-17T11:25:23Z</time>
      </trkpt>
      <trkpt lat="47.48461" lon="7.7503185">
        <ele>407.24838</ele>
        <time>2019-03-17T11:25:27Z</time>
      </trkpt>
      <trkpt lat="47.484577" lon="7.7504582">
        <ele>408.95795</ele>
        <time>2019-03-17T11:25:31Z</time>
      </trkpt>
      <trkpt lat="47.484554" lon="7.7506156">
        <ele>410.15753</ele>
        <time>2019-03-17T11:25:35Z</time>
      </trkpt>
      <trkpt lat="47.48453" lon="7.7507725">
        <ele>410.974</ele>
        <time>2019-03-17T11:25:39Z</time>
      </trkpt>
      <trkpt lat="47.48451" lon="7.7509217">
        <ele>412.26343</ele>
        <time>2019-03-17T11:25:43Z</time>
      </trkpt>
      <trkpt lat="47.484486" lon="7.7510734">
        <ele>413.0799</ele>
        <time>2019-03-17T11:25:47Z</time>
      </trkpt>
      <trkpt lat="47.484447" lon="7.751215">
        <ele>414.7181</ele>
        <time>2019-03-17T11:25:51Z</time>
      </trkpt>
      <trkpt lat="47.484417" lon="7.7513614">
        <ele>415.52664</ele>
        <time>2019-03-17T11:25:55Z</time>
      </trkpt>
      <trkpt lat="47.48439" lon="7.7515125">
        <ele>416.861</ele>
        <time>2019-03-17T11:25:59Z</time>
      </trkpt>
      <trkpt lat="47.484367" lon="7.7516665">
        <ele>417.57175</ele>
        <time>2019-03-17T11:26:03Z</time>
      </trkpt>
      <trkpt lat="47.48434" lon="7.7518163">
        <ele>418.31952</ele>
        <time>2019-03-17T11:26:07Z</time>
      </trkpt>
      <trkpt lat="47.484318" lon="7.751971">
        <ele>419.89432</ele>
        <time>2019-03-17T11:26:11Z</time>
      </trkpt>
      <trkpt lat="47.48428" lon="7.7521234">
        <ele>421.46118</ele>
        <time>2019-03-17T11:26:15Z</time>
      </trkpt>
      <trkpt lat="47.484257" lon="7.752286">
        <ele>422.49167</ele>
        <time>2019-03-17T11:26:19Z</time>
      </trkpt>
      <trkpt lat="47.48423" lon="7.752446">
        <ele>423.94757</ele>
        <time>2019-03-17T11:26:23Z</time>
      </trkpt>
      <trkpt lat="47.484207" lon="7.7526035">
        <ele>425.27927</ele>
        <time>2019-03-17T11:26:27Z</time>
      </trkpt>
      <trkpt lat="47.484177" lon="7.7527585">
        <ele>426.3679</ele>
        <time>2019-03-17T11:26:31Z</time>
      </trkpt>
      <trkpt lat="47.484142" lon="7.7529144">
        <ele>427.65997</ele>
        <time>2019-03-17T11:26:35Z</time>
      </trkpt>
      <trkpt lat="47.48411" lon="7.7530737">
        <ele>429.137</ele>
        <time>2019-03-17T11:26:39Z</time>
      </trkpt>
      <trkpt lat="47.484077" lon="7.753234">
        <ele>430.49777</ele>
        <time>2019-03-17T11:26:43Z</time>
      </trkpt>
      <trkpt lat="47.484043" lon="7.753398">
        <ele>431.9748</ele>
        <time>2019-03-17T11:26:47Z</time>
      </trkpt>
      <trkpt lat="47.48402" lon="7.753561">
        <ele>432.64328</ele>
        <time>2019-03-17T11:26:51Z</time>
      </trkpt>
      <trkpt lat="47.48399" lon="7.7537203">
        <ele>434.42154</ele>
        <time>2019-03-17T11:26:55Z</time>
      </trkpt>
      <trkpt lat="47.483948" lon="7.753934">
        <ele>435.86685</ele>
        <time>2019-03-17T11:27:00Z</time>
      </trkpt>
      <trkpt lat="47.483917" lon="7.7540817">
        <ele>436.50894</ele>
        <time>2019-03-17T11:27:03Z</time>
      </trkpt>
      <trkpt lat="47.483887" lon="7.754225">
        <ele>437.75345</ele>
        <time>2019-03-17T11:27:06Z</time>
      </trkpt>
      <trkpt lat="47.48386" lon="7.7543626">
        <ele>438.48535</ele>
        <time>2019-03-17T11:27:09Z</time>
      </trkpt>
      <trkpt lat="47.483833" lon="7.754496">
        <ele>440.0258</ele>
        <time>2019-03-17T11:27:12Z</time>
      </trkpt>
      <trkpt lat="47.483814" lon="7.7546263">
        <ele>440.50934</ele>
        <time>2019-03-17T11:27:15Z</time>
      </trkpt>
      <trkpt lat="47.48378" lon="7.754794">
        <ele>441.6957</ele>
        <time>2019-03-17T11:27:19Z</time>
      </trkpt>
      <trkpt lat="47.483753" lon="7.7549624">
        <ele>443.4713</ele>
        <time>2019-03-17T11:27:23Z</time>
      </trkpt>
      <trkpt lat="47.483734" lon="7.7551317">
        <ele>444.4622</ele>
        <time>2019-03-17T11:27:27Z</time>
      </trkpt>
      <trkpt lat="47.483727" lon="7.7552643">
        <ele>445.82825</ele>
        <time>2019-03-17T11:27:30Z</time>
      </trkpt>
      <trkpt lat="47.48372" lon="7.7554393">
        <ele>446.864</ele>
        <time>2019-03-17T11:27:34Z</time>
      </trkpt>
      <trkpt lat="47.483723" lon="7.7555723">
        <ele>447.82315</ele>
        <time>2019-03-17T11:27:37Z</time>
      </trkpt>
      <trkpt lat="47.48373" lon="7.755713">
        <ele>448.31198</ele>
        <time>2019-03-17T11:27:40Z</time>
      </trkpt>
      <trkpt lat="47.483738" lon="7.7558613">
        <ele>449.52478</ele>
        <time>2019-03-17T11:27:43Z</time>
      </trkpt>
      <trkpt lat="47.48374" lon="7.7560234">
        <ele>450.34125</ele>
        <time>2019-03-17T11:27:46Z</time>
      </trkpt>
      <trkpt lat="47.483753" lon="7.756192">
        <ele>451.052</ele>
        <time>2019-03-17T11:27:49Z</time>
      </trkpt>
      <trkpt lat="47.48378" lon="7.7563686">
        <ele>451.99796</ele>
        <time>2019-03-17T11:27:52Z</time>
      </trkpt>
      <trkpt lat="47.483807" lon="7.7565026">
        <ele>451.9451</ele>
        <time>2019-03-17T11:27:54Z</time>
      </trkpt>
      <trkpt lat="47.48385" lon="7.756639">
        <ele>451.7337</ele>
        <time>2019-03-17T11:27:56Z</time>
      </trkpt>
      <trkpt lat="47.4839" lon="7.756759">
        <ele>452.2252</ele>
        <time>2019-03-17T11:27:58Z</time>
      </trkpt>
      <trkpt lat="47.483986" lon="7.75692">
        <ele>452.2331</ele>
        <time>2019-03-17T11:28:01Z</time>
      </trkpt>
      <trkpt lat="47.484047" lon="7.7570333">
        <ele>452.72986</ele>
        <time>2019-03-17T11:28:03Z</time>
      </trkpt>
      <trkpt lat="47.484108" lon="7.757138">
        <ele>453.18433</ele>
        <time>2019-03-17T11:28:05Z</time>
      </trkpt>
      <trkpt lat="47.484177" lon="7.7572446">
        <ele>452.9756</ele>
        <time>2019-03-17T11:28:07Z</time>
      </trkpt>
      <trkpt lat="47.48424" lon="7.7573566">
        <ele>453.46442</ele>
        <time>2019-03-17T11:28:09Z</time>
      </trkpt>
      <trkpt lat="47.484314" lon="7.7574677">
        <ele>453.23718</ele>
        <time>2019-03-17T11:28:11Z</time>
      </trkpt>
      <trkpt lat="47.484394" lon="7.75757">
        <ele>453.71805</ele>
        <time>2019-03-17T11:28:13Z</time>
      </trkpt>
      <trkpt lat="47.48448" lon="7.757673">
        <ele>453.91888</ele>
        <time>2019-03-17T11:28:15Z</time>
      </trkpt>
      <trkpt lat="47.48458" lon="7.757762">
        <ele>454.60587</ele>
        <time>2019-03-17T11:28:17Z</time>
      </trkpt>
      <trkpt lat="47.48468" lon="7.757839">
        <ele>455.0577</ele>
        <time>2019-03-17T11:28:19Z</time>
      </trkpt>
      <trkpt lat="47.484776" lon="7.7579074">
        <ele>455.27963</ele>
        <time>2019-03-17T11:28:21Z</time>
      </trkpt>
      <trkpt lat="47.484867" lon="7.757963">
        <ele>456.1199</ele>
        <time>2019-03-17T11:28:23Z</time>
      </trkpt>
      <trkpt lat="47.484962" lon="7.7580113">
        <ele>457.01035</ele>
        <time>2019-03-17T11:28:25Z</time>
      </trkpt>
      <trkpt lat="47.485058" lon="7.758057">
        <ele>458.30505</ele>
        <time>2019-03-17T11:28:27Z</time>
      </trkpt>
      <trkpt lat="47.48515" lon="7.75809">
        <ele>458.8573</ele>
        <time>2019-03-17T11:28:29Z</time>
      </trkpt>
      <trkpt lat="47.48525" lon="7.75811">
        <ele>459.19284</ele>
        <time>2019-03-17T11:28:31Z</time>
      </trkpt>
      <trkpt lat="47.485344" lon="7.758142">
        <ele>459.70282</ele>
        <time>2019-03-17T11:28:33Z</time>
      </trkpt>
      <trkpt lat="47.485443" lon="7.758155">
        <ele>460.43207</ele>
        <time>2019-03-17T11:28:35Z</time>
      </trkpt>
      <trkpt lat="47.48554" lon="7.7581697">
        <ele>461.12964</ele>
        <time>2019-03-17T11:28:37Z</time>
      </trkpt>
      <trkpt lat="47.485676" lon="7.75818">
        <ele>461.26175</ele>
        <time>2019-03-17T11:28:40Z</time>
      </trkpt>
      <trkpt lat="47.485798" lon="7.7582355">
        <ele>461.8351</ele>
        <time>2019-03-17T11:28:43Z</time>
      </trkpt>
      <trkpt lat="47.485912" lon="7.75828">
        <ele>463.1404</ele>
        <time>2019-03-17T11:28:46Z</time>
      </trkpt>
      <trkpt lat="47.48601" lon="7.75835">
        <ele>463.67944</ele>
        <time>2019-03-17T11:28:49Z</time>
      </trkpt>
      <trkpt lat="47.486103" lon="7.7584195">
        <ele>464.3532</ele>
        <time>2019-03-17T11:28:52Z</time>
      </trkpt>
      <trkpt lat="47.486187" lon="7.758496">
        <ele>465.13797</ele>
        <time>2019-03-17T11:28:55Z</time>
      </trkpt>
      <trkpt lat="47.486267" lon="7.7585716">
        <ele>466.0152</ele>
        <time>2019-03-17T11:28:58Z</time>
      </trkpt>
      <trkpt lat="47.48634" lon="7.7586627">
        <ele>467.0774</ele>
        <time>2019-03-17T11:29:01Z</time>
      </trkpt>
      <trkpt lat="47.48642" lon="7.7587433">
        <ele>467.5583</ele>
        <time>2019-03-17T11:29:04Z</time>
      </trkpt>
      <trkpt lat="47.4865" lon="7.7588186">
        <ele>468.16602</ele>
        <time>2019-03-17T11:29:07Z</time>
      </trkpt>
      <trkpt lat="47.486572" lon="7.758914">
        <ele>469.10403</ele>
        <time>2019-03-17T11:29:10Z</time>
      </trkpt>
      <trkpt lat="47.48665" lon="7.759006">
        <ele>469.83328</ele>
        <time>2019-03-17T11:29:13Z</time>
      </trkpt>
      <trkpt lat="47.48672" lon="7.75911">
        <ele>470.56256</ele>
        <time>2019-03-17T11:29:16Z</time>
      </trkpt>
      <trkpt lat="47.48679" lon="7.7592235">
        <ele>471.61154</ele>
        <time>2019-03-17T11:29:19Z</time>
      </trkpt>
      <trkpt lat="47.48685" lon="7.7593427">
        <ele>472.55746</ele>
        <time>2019-03-17T11:29:22Z</time>
      </trkpt>
      <trkpt lat="47.48692" lon="7.7594585">
        <ele>472.78735</ele>
        <time>2019-03-17T11:29:25Z</time>
      </trkpt>
      <trkpt lat="47.486977" lon="7.7595825">
        <ele>473.55096</ele>
        <time>2019-03-17T11:29:28Z</time>
      </trkpt>
      <trkpt lat="47.487038" lon="7.7597065">
        <ele>474.76114</ele>
        <time>2019-03-17T11:29:31Z</time>
      </trkpt>
      <trkpt lat="47.487103" lon="7.7598286">
        <ele>475.27374</ele>
        <time>2019-03-17T11:29:34Z</time>
      </trkpt>
      <trkpt lat="47.487167" lon="7.7599487">
        <ele>476.55524</ele>
        <time>2019-03-17T11:29:37Z</time>
      </trkpt>
      <trkpt lat="47.487236" lon="7.76009">
        <ele>477.0388</ele>
        <time>2019-03-17T11:29:40Z</time>
      </trkpt>
      <trkpt lat="47.487316" lon="7.7602134">
        <ele>477.3215</ele>
        <time>2019-03-17T11:29:43Z</time>
      </trkpt>
      <trkpt lat="47.48738" lon="7.7603364">
        <ele>478.07455</ele>
        <time>2019-03-17T11:29:46Z</time>
      </trkpt>
      <trkpt lat="47.487446" lon="7.760463">
        <ele>478.21988</ele>
        <time>2019-03-17T11:29:49Z</time>
      </trkpt>
      <trkpt lat="47.48752" lon="7.760591">
        <ele>479.28207</ele>
        <time>2019-03-17T11:29:52Z</time>
      </trkpt>
      <trkpt lat="47.487595" lon="7.7607317">
        <ele>479.95584</ele>
        <time>2019-03-17T11:29:55Z</time>
      </trkpt>
      <trkpt lat="47.48765" lon="7.7608457">
        <ele>480.1223</ele>
        <time>2019-03-17T11:29:57Z</time>
      </trkpt>
      <trkpt lat="47.487713" lon="7.760962">
        <ele>480.96518</ele>
        <time>2019-03-17T11:29:59Z</time>
      </trkpt>
      <trkpt lat="47.48777" lon="7.76107">
        <ele>481.43817</ele>
        <time>2019-03-17T11:30:01Z</time>
      </trkpt>
      <trkpt lat="47.487827" lon="7.7611756">
        <ele>482.61133</ele>
        <time>2019-03-17T11:30:03Z</time>
      </trkpt>
      <trkpt lat="47.487915" lon="7.7612967">
        <ele>482.7593</ele>
        <time>2019-03-17T11:30:05Z</time>
      </trkpt>
      <trkpt lat="47.487976" lon="7.761425">
        <ele>482.83328</ele>
        <time>2019-03-17T11:30:07Z</time>
      </trkpt>
      <trkpt lat="47.488033" lon="7.761544">
        <ele>484.23367</ele>
        <time>2019-03-17T11:30:09Z</time>
      </trkpt>
      <trkpt lat="47.488087" lon="7.7616625">
        <ele>484.49792</ele>
        <time>2019-03-17T11:30:11Z</time>
      </trkpt>
      <trkpt lat="47.488148" lon="7.7617955">
        <ele>484.68814</ele>
        <time>2019-03-17T11:30:14Z</time>
      </trkpt>
      <trkpt lat="47.488228" lon="7.7619514">
        <ele>485.8534</ele>
        <time>2019-03-17T11:30:17Z</time>
      </trkpt>
      <trkpt lat="47.488277" lon="7.762071">
        <ele>486.30786</ele>
        <time>2019-03-17T11:30:19Z</time>
      </trkpt>
      <trkpt lat="47.488342" lon="7.762216">
        <ele>487.93024</ele>
        <time>2019-03-17T11:30:22Z</time>
      </trkpt>
      <trkpt lat="47.4884" lon="7.7623754">
        <ele>488.8656</ele>
        <time>2019-03-17T11:30:25Z</time>
      </trkpt>
      <trkpt lat="47.488445" lon="7.762535">
        <ele>489.67413</ele>
        <time>2019-03-17T11:30:28Z</time>
      </trkpt>
      <trkpt lat="47.488472" lon="7.7626815">
        <ele>491.0851</ele>
        <time>2019-03-17T11:30:31Z</time>
      </trkpt>
      <trkpt lat="47.488495" lon="7.762833">
        <ele>491.93326</ele>
        <time>2019-03-17T11:30:34Z</time>
      </trkpt>
      <trkpt lat="47.48851" lon="7.7629805">
        <ele>492.8977</ele>
        <time>2019-03-17T11:30:38Z</time>
      </trkpt>
      <trkpt lat="47.48851" lon="7.7631383">
        <ele>494.3906</ele>
        <time>2019-03-17T11:30:42Z</time>
      </trkpt>
      <trkpt lat="47.488525" lon="7.7633057">
        <ele>495.4422</ele>
        <time>2019-03-17T11:30:46Z</time>
      </trkpt>
      <trkpt lat="47.488537" lon="7.763477">
        <ele>496.50705</ele>
        <time>2019-03-17T11:30:50Z</time>
      </trkpt>
      <trkpt lat="47.48854" lon="7.7636385">
        <ele>498.1611</ele>
        <time>2019-03-17T11:30:54Z</time>
      </trkpt>
      <trkpt lat="47.488537" lon="7.7638016">
        <ele>500.2855</ele>
        <time>2019-03-17T11:30:59Z</time>
      </trkpt>
      <trkpt lat="47.488537" lon="7.763935">
        <ele>500.98306</ele>
        <time>2019-03-17T11:31:02Z</time>
      </trkpt>
      <trkpt lat="47.488518" lon="7.7641053">
        <ele>502.37555</ele>
        <time>2019-03-17T11:31:06Z</time>
      </trkpt>
      <trkpt lat="47.488514" lon="7.7642817">
        <ele>503.93713</ele>
        <time>2019-03-17T11:31:10Z</time>
      </trkpt>
      <trkpt lat="47.488518" lon="7.7644167">
        <ele>504.55276</ele>
        <time>2019-03-17T11:31:13Z</time>
      </trkpt>
      <trkpt lat="47.48852" lon="7.7645926">
        <ele>506.28876</ele>
        <time>2019-03-17T11:31:17Z</time>
      </trkpt>
      <trkpt lat="47.488525" lon="7.764726">
        <ele>507.06293</ele>
        <time>2019-03-17T11:31:20Z</time>
      </trkpt>
      <trkpt lat="47.48853" lon="7.7648597">
        <ele>508.32858</ele>
        <time>2019-03-17T11:31:23Z</time>
      </trkpt>
      <trkpt lat="47.488533" lon="7.7650323">
        <ele>509.7924</ele>
        <time>2019-03-17T11:31:27Z</time>
      </trkpt>
      <trkpt lat="47.488552" lon="7.76521">
        <ele>511.08447</ele>
        <time>2019-03-17T11:31:31Z</time>
      </trkpt>
      <trkpt lat="47.488567" lon="7.765344">
        <ele>511.605</ele>
        <time>2019-03-17T11:31:34Z</time>
      </trkpt>
      <trkpt lat="47.48859" lon="7.765516">
        <ele>512.9816</ele>
        <time>2019-03-17T11:31:38Z</time>
      </trkpt>
      <trkpt lat="47.48863" lon="7.765644">
        <ele>513.7294</ele>
        <time>2019-03-17T11:31:41Z</time>
      </trkpt>
      <trkpt lat="47.48866" lon="7.765778">
        <ele>514.82855</ele>
        <time>2019-03-17T11:31:44Z</time>
      </trkpt>
      <trkpt lat="47.48869" lon="7.7659345">
        <ele>515.51294</ele>
        <time>2019-03-17T11:31:47Z</time>
      </trkpt>
      <trkpt lat="47.488724" lon="7.7660904">
        <ele>516.2052</ele>
        <time>2019-03-17T11:31:50Z</time>
      </trkpt>
      <trkpt lat="47.488747" lon="7.7662497">
        <ele>517.3044</ele>
        <time>2019-03-17T11:31:54Z</time>
      </trkpt>
      <trkpt lat="47.488777" lon="7.7663774">
        <ele>518.3956</ele>
        <time>2019-03-17T11:31:58Z</time>
      </trkpt>
      <trkpt lat="47.48884" lon="7.766554">
        <ele>519.75116</ele>
        <time>2019-03-17T11:32:01Z</time>
      </trkpt>
      <trkpt lat="47.488873" lon="7.766679">
        <ele>520.14484</ele>
        <time>2019-03-17T11:32:03Z</time>
      </trkpt>
      <trkpt lat="47.48891" lon="7.7668667">
        <ele>520.9375</ele>
        <time>2019-03-17T11:32:06Z</time>
      </trkpt>
      <trkpt lat="47.48894" lon="7.7670436">
        <ele>521.104</ele>
        <time>2019-03-17T11:32:09Z</time>
      </trkpt>
      <trkpt lat="47.488983" lon="7.7672544">
        <ele>522.3591</ele>
        <time>2019-03-17T11:32:13Z</time>
      </trkpt>
      <trkpt lat="47.489017" lon="7.7674003">
        <ele>523.4265</ele>
        <time>2019-03-17T11:32:16Z</time>
      </trkpt>
      <trkpt lat="47.48905" lon="7.767558">
        <ele>524.17694</ele>
        <time>2019-03-17T11:32:19Z</time>
      </trkpt>
      <trkpt lat="47.489094" lon="7.767736">
        <ele>524.49927</ele>
        <time>2019-03-17T11:32:22Z</time>
      </trkpt>
      <trkpt lat="47.489124" lon="7.76787">
        <ele>525.04095</ele>
        <time>2019-03-17T11:32:24Z</time>
      </trkpt>
      <trkpt lat="47.48915" lon="7.768002">
        <ele>525.32104</ele>
        <time>2019-03-17T11:32:26Z</time>
      </trkpt>
      <trkpt lat="47.489162" lon="7.7681885">
        <ele>526.24054</ele>
        <time>2019-03-17T11:32:29Z</time>
      </trkpt>
      <trkpt lat="47.489136" lon="7.768367">
        <ele>526.8377</ele>
        <time>2019-03-17T11:32:32Z</time>
      </trkpt>
      <trkpt lat="47.489098" lon="7.7685323">
        <ele>527.958</ele>
        <time>2019-03-17T11:32:35Z</time>
      </trkpt>
      <trkpt lat="47.48905" lon="7.7686844">
        <ele>528.5631</ele>
        <time>2019-03-17T11:32:38Z</time>
      </trkpt>
      <trkpt lat="47.489006" lon="7.768829">
        <ele>530.1115</ele>
        <time>2019-03-17T11:32:41Z</time>
      </trkpt>
      <trkpt lat="47.488945" lon="7.768979">
        <ele>532.3997</ele>
        <time>2019-03-17T11:32:45Z</time>
      </trkpt>
      <trkpt lat="47.488895" lon="7.7690945">
        <ele>533.1765</ele>
        <time>2019-03-17T11:32:48Z</time>
      </trkpt>
      <trkpt lat="47.48882" lon="7.7692223">
        <ele>534.2836</ele>
        <time>2019-03-17T11:32:52Z</time>
      </trkpt>
      <trkpt lat="47.48877" lon="7.7693553">
        <ele>535.6603</ele>
        <time>2019-03-17T11:32:55Z</time>
      </trkpt>
      <trkpt lat="47.488712" lon="7.7694983">
        <ele>536.9074</ele>
        <time>2019-03-17T11:32:58Z</time>
      </trkpt>
      <trkpt lat="47.488655" lon="7.7696133">
        <ele>537.54156</ele>
        <time>2019-03-17T11:33:01Z</time>
      </trkpt>
      <trkpt lat="47.488594" lon="7.769734">
        <ele>538.8891</ele>
        <time>2019-03-17T11:33:04Z</time>
      </trkpt>
      <trkpt lat="47.488533" lon="7.7698975">
        <ele>539.46246</ele>
        <time>2019-03-17T11:33:07Z</time>
      </trkpt>
      <trkpt lat="47.488472" lon="7.7700586">
        <ele>540.8127</ele>
        <time>2019-03-17T11:33:10Z</time>
      </trkpt>
      <trkpt lat="47.488403" lon="7.77021">
        <ele>541.7692</ele>
        <time>2019-03-17T11:33:13Z</time>
      </trkpt>
      <trkpt lat="47.488335" lon="7.7703695">
        <ele>542.65173</ele>
        <time>2019-03-17T11:33:16Z</time>
      </trkpt>
      <trkpt lat="47.48829" lon="7.770484">
        <ele>543.04016</ele>
        <time>2019-03-17T11:33:18Z</time>
      </trkpt>
      <trkpt lat="47.488243" lon="7.7706137">
        <ele>543.2806</ele>
        <time>2019-03-17T11:33:20Z</time>
      </trkpt>
      <trkpt lat="47.488213" lon="7.77075">
        <ele>543.2806</ele>
        <time>2019-03-17T11:33:22Z</time>
      </trkpt>
      <trkpt lat="47.48819" lon="7.7708907">
        <ele>543.11676</ele>
        <time>2019-03-17T11:33:24Z</time>
      </trkpt>
      <trkpt lat="47.48817" lon="7.7710896">
        <ele>543.3044</ele>
        <time>2019-03-17T11:33:25Z</time>
      </trkpt>
      <trkpt lat="47.48816" lon="7.7712603">
        <ele>543.11676</ele>
        <time>2019-03-17T11:33:28Z</time>
      </trkpt>
      <trkpt lat="47.48814" lon="7.771425">
        <ele>543.07446</ele>
        <time>2019-03-17T11:33:30Z</time>
      </trkpt>
      <trkpt lat="47.488106" lon="7.771574">
        <ele>542.79175</ele>
        <time>2019-03-17T11:33:32Z</time>
      </trkpt>
      <trkpt lat="47.488056" lon="7.771736">
        <ele>542.65173</ele>
        <time>2019-03-17T11:33:34Z</time>
      </trkpt>
      <trkpt lat="47.488014" lon="7.771912">
        <ele>541.9806</ele>
        <time>2019-03-17T11:33:36Z</time>
      </trkpt>
      <trkpt lat="47.487953" lon="7.772075">
        <ele>542.4403</ele>
        <time>2019-03-17T11:33:38Z</time>
      </trkpt>
      <trkpt lat="47.487896" lon="7.7722335">
        <ele>541.9568</ele>
        <time>2019-03-17T11:33:40Z</time>
      </trkpt>
      <trkpt lat="47.487827" lon="7.7723813">
        <ele>541.20905</ele>
        <time>2019-03-17T11:33:42Z</time>
      </trkpt>
      <trkpt lat="47.48776" lon="7.772552">
        <ele>540.7836</ele>
        <time>2019-03-17T11:33:43Z</time>
      </trkpt>
      <trkpt lat="47.487675" lon="7.772687">
        <ele>540.74927</ele>
        <time>2019-03-17T11:33:45Z</time>
      </trkpt>
      <trkpt lat="47.487602" lon="7.7728267">
        <ele>539.8007</ele>
        <time>2019-03-17T11:33:48Z</time>
      </trkpt>
      <trkpt lat="47.48751" lon="7.772984">
        <ele>540.1521</ele>
        <time>2019-03-17T11:33:49Z</time>
      </trkpt>
      <trkpt lat="47.48737" lon="7.7731986">
        <ele>539.3198</ele>
        <time>2019-03-17T11:33:52Z</time>
      </trkpt>
      <trkpt lat="47.487274" lon="7.773334">
        <ele>538.82837</ele>
        <time>2019-03-17T11:33:54Z</time>
      </trkpt>
      <trkpt lat="47.48718" lon="7.773473">
        <ele>539.42816</ele>
        <time>2019-03-17T11:33:56Z</time>
      </trkpt>
      <trkpt lat="47.487026" lon="7.7736735">
        <ele>538.2286</ele>
        <time>2019-03-17T11:33:59Z</time>
      </trkpt>
      <trkpt lat="47.486923" lon="7.773792">
        <ele>537.5997</ele>
        <time>2019-03-17T11:34:02Z</time>
      </trkpt>
      <trkpt lat="47.486824" lon="7.773916">
        <ele>537.5997</ele>
        <time>2019-03-17T11:34:04Z</time>
      </trkpt>
      <trkpt lat="47.486656" lon="7.7740746">
        <ele>537.6129</ele>
        <time>2019-03-17T11:34:06Z</time>
      </trkpt>
      <trkpt lat="47.48655" lon="7.774175">
        <ele>537.8243</ele>
        <time>2019-03-17T11:34:08Z</time>
      </trkpt>
      <trkpt lat="47.486435" lon="7.7742906">
        <ele>537.93524</ele>
        <time>2019-03-17T11:34:11Z</time>
      </trkpt>
      <trkpt lat="47.48634" lon="7.7744164">
        <ele>538.4188</ele>
        <time>2019-03-17T11:34:13Z</time>
      </trkpt>
      <trkpt lat="47.486206" lon="7.7745857">
        <ele>538.72797</ele>
        <time>2019-03-17T11:34:15Z</time>
      </trkpt>
      <trkpt lat="47.486126" lon="7.774719">
        <ele>539.0952</ele>
        <time>2019-03-17T11:34:18Z</time>
      </trkpt>
      <trkpt lat="47.486084" lon="7.774886">
        <ele>539.769</ele>
        <time>2019-03-17T11:34:20Z</time>
      </trkpt>
      <trkpt lat="47.48609" lon="7.7751865">
        <ele>540.0781</ele>
        <time>2019-03-17T11:34:22Z</time>
      </trkpt>
      <trkpt lat="47.48612" lon="7.775366">
        <ele>540.0781</ele>
        <time>2019-03-17T11:34:24Z</time>
      </trkpt>
      <trkpt lat="47.486145" lon="7.775524">
        <ele>540.7308</ele>
        <time>2019-03-17T11:34:26Z</time>
      </trkpt>
      <trkpt lat="47.486206" lon="7.775732">
        <ele>541.5182</ele>
        <time>2019-03-17T11:34:29Z</time>
      </trkpt>
      <trkpt lat="47.486256" lon="7.775934">
        <ele>541.4178</ele>
        <time>2019-03-17T11:34:30Z</time>
      </trkpt>
      <trkpt lat="47.48632" lon="7.776178">
        <ele>541.9436</ele>
        <time>2019-03-17T11:34:33Z</time>
      </trkpt>
      <trkpt lat="47.48638" lon="7.77633">
        <ele>542.29767</ele>
        <time>2019-03-17T11:34:35Z</time>
      </trkpt>
      <trkpt lat="47.486454" lon="7.776485">
        <ele>542.3848</ele>
        <time>2019-03-17T11:34:37Z</time>
      </trkpt>
      <trkpt lat="47.486523" lon="7.7766337">
        <ele>543.19867</ele>
        <time>2019-03-17T11:34:39Z</time>
      </trkpt>
      <trkpt lat="47.486607" lon="7.776762">
        <ele>544.07855</ele>
        <time>2019-03-17T11:34:41Z</time>
      </trkpt>
      <trkpt lat="47.4867" lon="7.7769284">
        <ele>544.0072</ele>
        <time>2019-03-17T11:34:43Z</time>
      </trkpt>
      <trkpt lat="47.48678" lon="7.7770677">
        <ele>544.8712</ele>
        <time>2019-03-17T11:34:45Z</time>
      </trkpt>
      <trkpt lat="47.48686" lon="7.777199">
        <ele>543.9121</ele>
        <time>2019-03-17T11:34:47Z</time>
      </trkpt>
      <trkpt lat="47.48695" lon="7.777324">
        <ele>543.7615</ele>
        <time>2019-03-17T11:34:49Z</time>
      </trkpt>
      <trkpt lat="47.487045" lon="7.7774525">
        <ele>543.8857</ele>
        <time>2019-03-17T11:34:51Z</time>
      </trkpt>
      <trkpt lat="47.487137" lon="7.77761">
        <ele>543.8328</ele>
        <time>2019-03-17T11:34:53Z</time>
      </trkpt>
      <trkpt lat="47.487225" lon="7.777762">
        <ele>544.0865</ele>
        <time>2019-03-17T11:34:55Z</time>
      </trkpt>
      <trkpt lat="47.487324" lon="7.7778935">
        <ele>543.7192</ele>
        <time>2019-03-17T11:34:57Z</time>
      </trkpt>
      <trkpt lat="47.487404" lon="7.778058">
        <ele>544.2635</ele>
        <time>2019-03-17T11:34:59Z</time>
      </trkpt>
      <trkpt lat="47.48751" lon="7.7781796">
        <ele>543.95435</ele>
        <time>2019-03-17T11:35:01Z</time>
      </trkpt>
      <trkpt lat="47.48761" lon="7.778304">
        <ele>543.8381</ele>
        <time>2019-03-17T11:35:03Z</time>
      </trkpt>
      <trkpt lat="47.48769" lon="7.7784414">
        <ele>544.0627</ele>
        <time>2019-03-17T11:35:05Z</time>
      </trkpt>
      <trkpt lat="47.48777" lon="7.7785974">
        <ele>544.27405</ele>
        <time>2019-03-17T11:35:07Z</time>
      </trkpt>
      <trkpt lat="47.48784" lon="7.778737">
        <ele>544.4141</ele>
        <time>2019-03-17T11:35:09Z</time>
      </trkpt>
      <trkpt lat="47.487907" lon="7.778883">
        <ele>544.6255</ele>
        <time>2019-03-17T11:35:11Z</time>
      </trkpt>
      <trkpt lat="47.48795" lon="7.7790217">
        <ele>544.83685</ele>
        <time>2019-03-17T11:35:13Z</time>
      </trkpt>
      <trkpt lat="47.48801" lon="7.7791915">
        <ele>546.1765</ele>
        <time>2019-03-17T11:35:16Z</time>
      </trkpt>
      <trkpt lat="47.488068" lon="7.779361">
        <ele>546.9005</ele>
        <time>2019-03-17T11:35:18Z</time>
      </trkpt>
      <trkpt lat="47.488113" lon="7.779508">
        <ele>547.4448</ele>
        <time>2019-03-17T11:35:20Z</time>
      </trkpt>
      <trkpt lat="47.488174" lon="7.7796774">
        <ele>548.1582</ele>
        <time>2019-03-17T11:35:23Z</time>
      </trkpt>
      <trkpt lat="47.488216" lon="7.7798285">
        <ele>548.75006</ele>
        <time>2019-03-17T11:35:25Z</time>
      </trkpt>
      <trkpt lat="47.48827" lon="7.780028">
        <ele>549.67224</ele>
        <time>2019-03-17T11:35:28Z</time>
      </trkpt>
      <trkpt lat="47.488323" lon="7.7801876">
        <ele>550.27466</ele>
        <time>2019-03-17T11:35:30Z</time>
      </trkpt>
      <trkpt lat="47.488388" lon="7.7803683">
        <ele>551.0515</ele>
        <time>2019-03-17T11:35:33Z</time>
      </trkpt>
      <trkpt lat="47.488457" lon="7.7805285">
        <ele>552.1718</ele>
        <time>2019-03-17T11:35:36Z</time>
      </trkpt>
      <trkpt lat="47.488518" lon="7.7806683">
        <ele>553.24194</ele>
        <time>2019-03-17T11:35:39Z</time>
      </trkpt>
      <trkpt lat="47.48858" lon="7.7808094">
        <ele>553.9025</ele>
        <time>2019-03-17T11:35:42Z</time>
      </trkpt>
      <trkpt lat="47.488655" lon="7.780942">
        <ele>554.9251</ele>
        <time>2019-03-17T11:35:45Z</time>
      </trkpt>
      <trkpt lat="47.488747" lon="7.7810698">
        <ele>555.3796</ele>
        <time>2019-03-17T11:35:48Z</time>
      </trkpt>
      <trkpt lat="47.48885" lon="7.7811975">
        <ele>555.8895</ele>
        <time>2019-03-17T11:35:51Z</time>
      </trkpt>
      <trkpt lat="47.48895" lon="7.7813277">
        <ele>556.019</ele>
        <time>2019-03-17T11:35:54Z</time>
      </trkpt>
      <trkpt lat="47.489017" lon="7.78142">
        <ele>555.59357</ele>
        <time>2019-03-17T11:35:56Z</time>
      </trkpt>
      <trkpt lat="47.489098" lon="7.781522">
        <ele>556.344</ele>
        <time>2019-03-17T11:35:58Z</time>
      </trkpt>
      <trkpt lat="47.489162" lon="7.7816305">
        <ele>556.2991</ele>
        <time>2019-03-17T11:36:00Z</time>
      </trkpt>
      <trkpt lat="47.489235" lon="7.7817326">
        <ele>556.2568</ele>
        <time>2019-03-17T11:36:02Z</time>
      </trkpt>
      <trkpt lat="47.489315" lon="7.7818413">
        <ele>556.99133</ele>
        <time>2019-03-17T11:36:04Z</time>
      </trkpt>
      <trkpt lat="47.489357" lon="7.7819004">
        <ele>557.09436</ele>
        <time>2019-03-17T11:36:05Z</time>
      </trkpt>
      <trkpt lat="47.4894" lon="7.7819605">
        <ele>557.0072</ele>
        <time>2019-03-17T11:36:06Z</time>
      </trkpt>
      <trkpt lat="47.48949" lon="7.782076">
        <ele>557.52246</ele>
        <time>2019-03-17T11:36:08Z</time>
      </trkpt>
      <trkpt lat="47.489536" lon="7.7821355">
        <ele>556.87506</ele>
        <time>2019-03-17T11:36:09Z</time>
      </trkpt>
      <trkpt lat="47.48962" lon="7.7822595">
        <ele>557.58057</ele>
        <time>2019-03-17T11:36:11Z</time>
      </trkpt>
      <trkpt lat="47.489666" lon="7.7823243">
        <ele>557.53564</ele>
        <time>2019-03-17T11:36:12Z</time>
      </trkpt>
      <trkpt lat="47.489754" lon="7.782439">
        <ele>557.51715</ele>
        <time>2019-03-17T11:36:14Z</time>
      </trkpt>
      <trkpt lat="47.489796" lon="7.782501">
        <ele>558.0641</ele>
        <time>2019-03-17T11:36:15Z</time>
      </trkpt>
      <trkpt lat="47.489845" lon="7.7825613">
        <ele>557.9241</ele>
        <time>2019-03-17T11:36:16Z</time>
      </trkpt>
      <trkpt lat="47.489937" lon="7.7826824">
        <ele>558.03503</ele>
        <time>2019-03-17T11:36:18Z</time>
      </trkpt>
      <trkpt lat="47.490025" lon="7.7828064">
        <ele>558.24115</ele>
        <time>2019-03-17T11:36:20Z</time>
      </trkpt>
      <trkpt lat="47.490067" lon="7.782871">
        <ele>558.7537</ele>
        <time>2019-03-17T11:36:21Z</time>
      </trkpt>
      <trkpt lat="47.49011" lon="7.782932">
        <ele>558.29926</ele>
        <time>2019-03-17T11:36:22Z</time>
      </trkpt>
      <trkpt lat="47.490192" lon="7.783054">
        <ele>557.7867</ele>
        <time>2019-03-17T11:36:24Z</time>
      </trkpt>
      <trkpt lat="47.49027" lon="7.7831736">
        <ele>558.13806</ele>
        <time>2019-03-17T11:36:26Z</time>
      </trkpt>
      <trkpt lat="47.49035" lon="7.7832813">
        <ele>557.9056</ele>
        <time>2019-03-17T11:36:28Z</time>
      </trkpt>
      <trkpt lat="47.490395" lon="7.783331">
        <ele>558.2279</ele>
        <time>2019-03-17T11:36:29Z</time>
      </trkpt>
      <trkpt lat="47.49047" lon="7.7834735">
        <ele>557.49335</ele>
        <time>2019-03-17T11:36:31Z</time>
      </trkpt>
      <trkpt lat="47.49056" lon="7.7836094">
        <ele>557.37445</ele>
        <time>2019-03-17T11:36:33Z</time>
      </trkpt>
      <trkpt lat="47.490635" lon="7.7836995">
        <ele>559.16064</ele>
        <time>2019-03-17T11:36:35Z</time>
      </trkpt>
      <trkpt lat="47.49065" lon="7.7837353">
        <ele>559.3879</ele>
        <time>2019-03-17T11:36:36Z</time>
      </trkpt>
      <trkpt lat="47.490665" lon="7.7837687">
        <ele>559.44073</ele>
        <time>2019-03-17T11:36:37Z</time>
      </trkpt>
      <trkpt lat="47.490685" lon="7.7838063">
        <ele>560.08014</ele>
        <time>2019-03-17T11:36:38Z</time>
      </trkpt>
      <trkpt lat="47.490696" lon="7.7838564">
        <ele>558.5952</ele>
        <time>2019-03-17T11:36:39Z</time>
      </trkpt>
      <trkpt lat="47.49074" lon="7.7839823">
        <ele>560.22815</ele>
        <time>2019-03-17T11:36:42Z</time>
      </trkpt>
      <trkpt lat="47.490765" lon="7.7840276">
        <ele>559.8159</ele>
        <time>2019-03-17T11:36:43Z</time>
      </trkpt>
      <trkpt lat="47.490852" lon="7.7841506">
        <ele>559.7076</ele>
        <time>2019-03-17T11:36:46Z</time>
      </trkpt>
      <trkpt lat="47.490883" lon="7.784194">
        <ele>559.594</ele>
        <time>2019-03-17T11:36:47Z</time>
      </trkpt>
      <trkpt lat="47.490967" lon="7.7842817">
        <ele>559.1078</ele>
        <time>2019-03-17T11:36:49Z</time>
      </trkpt>
      <trkpt lat="47.49104" lon="7.7843695">
        <ele>559.3298</ele>
        <time>2019-03-17T11:36:51Z</time>
      </trkpt>
      <trkpt lat="47.491116" lon="7.7844615">
        <ele>559.30066</ele>
        <time>2019-03-17T11:36:53Z</time>
      </trkpt>
      <trkpt lat="47.49119" lon="7.784554">
        <ele>560.1832</ele>
        <time>2019-03-17T11:36:55Z</time>
      </trkpt>
      <trkpt lat="47.491295" lon="7.784686">
        <ele>559.7578</ele>
        <time>2019-03-17T11:36:58Z</time>
      </trkpt>
      <trkpt lat="47.49137" lon="7.784779">
        <ele>559.919</ele>
        <time>2019-03-17T11:37:00Z</time>
      </trkpt>
      <trkpt lat="47.491405" lon="7.784827">
        <ele>559.6098</ele>
        <time>2019-03-17T11:37:01Z</time>
      </trkpt>
      <trkpt lat="47.49147" lon="7.784937">
        <ele>559.56494</ele>
        <time>2019-03-17T11:37:03Z</time>
      </trkpt>
      <trkpt lat="47.49154" lon="7.785035">
        <ele>559.94806</ele>
        <time>2019-03-17T11:37:05Z</time>
      </trkpt>
      <trkpt lat="47.49163" lon="7.7851787">
        <ele>559.0893</ele>
        <time>2019-03-17T11:37:08Z</time>
      </trkpt>
      <trkpt lat="47.4917" lon="7.7852755">
        <ele>559.19763</ele>
        <time>2019-03-17T11:37:10Z</time>
      </trkpt>
      <trkpt lat="47.491776" lon="7.7853646">
        <ele>558.4472</ele>
        <time>2019-03-17T11:37:12Z</time>
      </trkpt>
      <trkpt lat="47.49184" lon="7.785461">
        <ele>559.0074</ele>
        <time>2019-03-17T11:37:14Z</time>
      </trkpt>
      <trkpt lat="47.491932" lon="7.7855916">
        <ele>560.3761</ele>
        <time>2019-03-17T11:37:17Z</time>
      </trkpt>
      <trkpt lat="47.49203" lon="7.7856846">
        <ele>558.7352</ele>
        <time>2019-03-17T11:37:20Z</time>
      </trkpt>
      <trkpt lat="47.49213" lon="7.7857313">
        <ele>557.6836</ele>
        <time>2019-03-17T11:37:23Z</time>
      </trkpt>
      <trkpt lat="47.49222" lon="7.785774">
        <ele>557.7285</ele>
        <time>2019-03-17T11:37:26Z</time>
      </trkpt>
      <trkpt lat="47.492306" lon="7.785838">
        <ele>557.35864</ele>
        <time>2019-03-17T11:37:29Z</time>
      </trkpt>
      <trkpt lat="47.49239" lon="7.785932">
        <ele>556.8434</ele>
        <time>2019-03-17T11:37:32Z</time>
      </trkpt>
      <trkpt lat="47.492477" lon="7.7860293">
        <ele>555.9767</ele>
        <time>2019-03-17T11:37:35Z</time>
      </trkpt>
      <trkpt lat="47.492565" lon="7.7861276">
        <ele>556.1247</ele>
        <time>2019-03-17T11:37:38Z</time>
      </trkpt>
      <trkpt lat="47.492653" lon="7.7862372">
        <ele>555.6649</ele>
        <time>2019-03-17T11:37:40Z</time>
      </trkpt>
      <trkpt lat="47.492737" lon="7.7863455">
        <ele>555.3822</ele>
        <time>2019-03-17T11:37:42Z</time>
      </trkpt>
      <trkpt lat="47.4928" lon="7.786438">
        <ele>555.1391</ele>
        <time>2019-03-17T11:37:44Z</time>
      </trkpt>
      <trkpt lat="47.49285" lon="7.7865562">
        <ele>555.31616</ele>
        <time>2019-03-17T11:37:46Z</time>
      </trkpt>
      <trkpt lat="47.492893" lon="7.786684">
        <ele>556.09296</ele>
        <time>2019-03-17T11:37:48Z</time>
      </trkpt>
      <trkpt lat="47.49296" lon="7.7868342">
        <ele>556.37305</ele>
        <time>2019-03-17T11:37:51Z</time>
      </trkpt>
      <trkpt lat="47.49305" lon="7.7869105">
        <ele>556.7271</ele>
        <time>2019-03-17T11:37:55Z</time>
      </trkpt>
      <trkpt lat="47.49313" lon="7.7868347">
        <ele>555.842</ele>
        <time>2019-03-17T11:37:58Z</time>
      </trkpt>
      <trkpt lat="47.49324" lon="7.786748">
        <ele>554.756</ele>
        <time>2019-03-17T11:38:02Z</time>
      </trkpt>
      <trkpt lat="47.49333" lon="7.786686">
        <ele>553.24194</ele>
        <time>2019-03-17T11:38:04Z</time>
      </trkpt>
      <trkpt lat="47.49344" lon="7.7865133">
        <ele>553.84705</ele>
        <time>2019-03-17T11:38:06Z</time>
      </trkpt>
      <trkpt lat="47.493526" lon="7.786345">
        <ele>553.0517</ele>
        <time>2019-03-17T11:38:08Z</time>
      </trkpt>
      <trkpt lat="47.493614" lon="7.786179">
        <ele>551.81775</ele>
        <time>2019-03-17T11:38:10Z</time>
      </trkpt>
      <trkpt lat="47.493694" lon="7.7860055">
        <ele>548.89276</ele>
        <time>2019-03-17T11:38:12Z</time>
      </trkpt>
      <trkpt lat="47.493774" lon="7.785851">
        <ele>549.5269</ele>
        <time>2019-03-17T11:38:14Z</time>
      </trkpt>
      <trkpt lat="47.493862" lon="7.7857103">
        <ele>548.4806</ele>
        <time>2019-03-17T11:38:16Z</time>
      </trkpt>
      <trkpt lat="47.493946" lon="7.785557">
        <ele>548.8637</ele>
        <time>2019-03-17T11:38:18Z</time>
      </trkpt>
      <trkpt lat="47.494026" lon="7.7854056">
        <ele>549.09625</ele>
        <time>2019-03-17T11:38:20Z</time>
      </trkpt>
      <trkpt lat="47.494118" lon="7.7853456">
        <ele>550.3011</ele>
        <time>2019-03-17T11:38:22Z</time>
      </trkpt>
      <trkpt lat="47.494198" lon="7.7854075">
        <ele>550.5072</ele>
        <time>2019-03-17T11:38:24Z</time>
      </trkpt>
      <trkpt lat="47.494305" lon="7.785533">
        <ele>551.3316</ele>
        <time>2019-03-17T11:38:27Z</time>
      </trkpt>
      <trkpt lat="47.49438" lon="7.7856083">
        <ele>550.671</ele>
        <time>2019-03-17T11:38:29Z</time>
      </trkpt>
      <trkpt lat="47.49449" lon="7.78571">
        <ele>551.432</ele>
        <time>2019-03-17T11:38:32Z</time>
      </trkpt>
      <trkpt lat="47.494617" lon="7.785693">
        <ele>552.9117</ele>
        <time>2019-03-17T11:38:35Z</time>
      </trkpt>
      <trkpt lat="47.494667" lon="7.785577">
        <ele>554.0769</ele>
        <time>2019-03-17T11:38:37Z</time>
      </trkpt>
      <trkpt lat="47.494728" lon="7.7854743">
        <ele>553.6013</ele>
        <time>2019-03-17T11:38:39Z</time>
      </trkpt>
      <trkpt lat="47.49481" lon="7.7853384">
        <ele>555.4773</ele>
        <time>2019-03-17T11:38:42Z</time>
      </trkpt>
      <trkpt lat="47.494846" lon="7.7851954">
        <ele>556.2277</ele>
        <time>2019-03-17T11:38:45Z</time>
      </trkpt>
      <trkpt lat="47.494762" lon="7.7850957">
        <ele>556.0375</ele>
        <time>2019-03-17T11:38:49Z</time>
      </trkpt>
      <trkpt lat="47.49474" lon="7.785038">
        <ele>556.0216</ele>
        <time>2019-03-17T11:38:56Z</time>
      </trkpt>
    </trkseg>
    <trkseg>
      <trkpt lat="47.49474" lon="7.785038">
        <ele>556.0216</ele>
        <time>2019-03-17T11:38:56Z</time>
      </trkpt>
    </trkseg>
  </trk>
  <exerciseinfo>
    <exercisetype>11007</exercisetype>
    <distance>29979.32</distance>
    <elevationgain>712.26086</elevationgain>
    <avggradient>0.030469339997791344</avggradient>
    <duration>7075305</duration>
    <avgspeed>4.238559</avgspeed>
  </exerciseinfo>
</gpx>